[[{"header":{"parameterUnit":"m.s-1","parameterCategory":1,"la1":31.0,"la2":29.5877,"lo1":-88.7671,"lo2":-86.6584,"dy":0.0162,"dx":0.0185,"nx":115,"ny":88,"refTime":"2023-05-08T06:00:00:Z","depth":0,"parameterNumber":2,"parameterNumberName":"U-component_of_WINDS"},"data":[0.0,0.0,0.0,0.0,0.0,0.0,0.0,0.0,0.0,0.0,0.0,0.0,0.0,0.0,0.0,0.0,0.0,0.0,0.0,0.0,0.0,0.0,0.0,0.0,0.0,0.0,0.0,0.0,0.0,0.0,0.0,0.0,0.0,0.0,0.0,0.0,0.0,0.0,0.0,0.0,0.0,0.0,0.0,0.0,0.0,0.0,0.0,0.0,0.0,0.0,0.0,0.0,0.0,0.0,0.0,0.0,0.0,0.0,0.0,0.0,0.0,0.0,0.0,0.0,0.0,0.0,0.0,0.0,0.0,0.0,0.0,0.0,0.0,0.0,0.0,0.0,0.0,0.0,0.0,0.0,0.0,0.0,0.0,0.0,0.0,0.0,0.0,0.0,0.0,0.0,0.0,0.0,0.0,0.0,0.0,0.0,0.0,0.0,0.0,0.0,0.0,0.0,0.0,0.0,0.0,0.0,0.0,0.0,0.0,0.0,0.0,0.0,0.0,0.0,0.0,0.0,0.0,0.0,0.0,0.0,0.0,0.0,0.0,0.0,0.0,0.0,0.0,0.0,0.0,0.0,0.0,0.0,0.0,0.0,0.0,0.0,0.0,0.0,0.0,0.0,0.0,0.0,0.0,0.0,0.0,0.0,0.0,0.0,0.0,0.0,0.0,0.0,0.0,0.0,0.0,0.0,0.0,0.0,0.0,0.0,0.0,0.0,0.0,0.0,0.0,0.0,0.0,0.0,0.0,0.0,0.0,0.0,0.0,0.0,0.0,0.0,0.0,0.0,0.0,0.0,0.0,0.0,0.0,0.0,0.0,0.0,0.0,0.0,0.0,0.0,0.0,0.0,0.0,0.0,0.0,0.0,0.0,0.0,0.0,0.0,0.0,0.0,0.0,0.0,0.0,0.0,0.0,0.0,0.0,0.0,0.0,0.0,0.0,0.0,0.0,0.0,0.0,0.0,0.0,0.0,0.0,0.0,0.0,0.0,0.0,0.0,0.0,0.0,0.0,0.0,0.0,0.0,0.0,0.0,0.0,0.0,0.0,0.0,0.0,0.0,0.0,0.0,0.0,0.0,0.0,0.0,0.0,0.0,0.0,0.0,0.0,0.0,0.0,0.0,0.0,0.0,0.0,0.0,0.0,0.0,0.0,0.0,0.0,0.0,0.0,0.0,0.0,0.0,0.0,0.0,0.0,0.0,0.0,0.0,0.0,0.0,0.0,0.0,0.0,0.0,0.0,0.0,0.0,0.0,0.0,0.0,0.0,0.0,0.0,0.0,0.0,0.0,0.0,0.0,0.0,0.0,0.0,0.0,0.0,0.0,0.0,0.0,0.0,0.0,0.0,0.0,0.0,0.0,0.0,0.0,0.0,0.0,0.0,0.0,0.0,0.0,0.0,0.0,0.0,0.0,0.0,0.0,0.0,0.0,0.0,0.0,0.0,0.0,0.0,0.0,0.0,0.0,0.0,0.0,0.0,0.0,0.0,0.0,0.0,0.0,0.0,0.0,0.0,0.0,0.0,0.0,0.0,0.0,0.0,0.0,0.0,0.0,0.0,0.0,0.0,0.0,0.0,0.0,0.0,0.0,0.0,0.0,0.0,0.0,0.0,0.0,0.0,0.0,0.0,0.0,0.0,0.0,0.0,0.0,0.0,0.0,0.0,0.0,0.0,0.0,0.0,0.0,0.0,0.0,0.0,0.0,0.0,0.0,0.0,0.0,0.0,0.0,0.0,0.0,0.0,0.0,0.0,0.0,0.0,0.0,0.0,0.0,0.0,0.0,0.0,0.0,0.0,0.0,0.0,0.0,0.0,0.0,0.0,0.0,0.0,0.0,0.0,0.0,0.0,0.0,0.0,0.0,0.0,0.0,0.0,0.0,0.0,0.0,0.0,0.0,0.0,0.0,0.0,0.0,0.0,0.0,0.0,0.0,0.0,0.0,0.0,0.0,0.0,0.0,0.0,0.0,0.0,0.0,0.0,0.0,0.0,0.0,0.0,0.0,0.0,0.0,0.0,0.0,0.0,0.0,0.0,0.0,0.0,0.0,0.0,0.0,0.0,0.0,0.0,0.0,0.0,0.0,0.0,0.0,0.0,0.0,0.0,0.0,0.0,0.0,0.0,0.0,0.0,0.0,0.0,0.0,0.0,0.0,0.0,0.0,0.0,0.0,0.0,0.0,0.0,0.0,0.0,0.0,0.0,0.0,0.0,0.0,0.0,0.0,0.0,0.0,0.0,0.0,0.0,0.0,0.0,0.0,0.0,0.0,0.0,0.0,0.0,0.0,0.0,0.0,0.0,0.0,0.0,0.0,0.0,0.0,0.0,0.0,0.0,0.0,0.0,0.0,0.0,0.0,0.0,0.0,0.0,0.0,0.0,0.0,0.0,0.0,0.0,0.0,0.0,0.0,0.0,0.0,0.0,0.0,0.0,0.0,0.0,0.0,0.0,0.0,0.0,0.0,0.0,0.0,0.0,0.0,0.0,0.0,0.0,0.0,0.0,0.0,0.0,0.0,0.0,0.0,0.0,0.0,0.0,0.0,0.0,0.0,0.0,0.0,0.0,0.0,0.0,0.0,0.0,0.0,0.0,0.0,0.0,0.0,0.0,0.0,0.0,0.0,0.0,0.0,0.0,0.0,0.0,0.0,0.0,0.0,0.0,0.0,0.0,0.0,0.0,0.0,0.0,0.0,0.0,0.0,0.0,0.0,0.0,0.0,0.0,0.0,0.0,0.0,0.0,0.0,0.0,0.0,0.0,0.0,0.0,0.0,0.0,0.0,0.0,0.0,0.0,0.0,0.0,0.0,0.0,0.0,0.0,0.0,0.0,0.0,0.0,0.0,0.0,0.0,0.0,0.0,0.0,0.0,0.0,0.0,0.0,0.0,0.0,0.0,0.0,0.0,0.0,0.0,0.0,0.0,0.0,0.0,0.0,0.0,0.0,0.0,0.0,0.0,0.0,0.0,0.0,0.0,0.0,0.0,0.0,0.0,0.0,0.0,0.0,0.0,0.0,0.0,0.0,0.0,0.0,0.0,0.0,0.0,0.0,0.0,0.0,0.0,0.0,0.0,0.0,0.0,0.0,0.0,0.0,0.0,0.0,0.0,0.0,0.0,0.0,0.0,0.0,0.0,0.0,0.0,0.0,0.0,0.0,0.0,0.0,0.0,0.0,0.0,0.0,0.0,0.0,0.0,0.0,0.0,0.0,0.0,0.0,0.0,0.0,0.0,0.0,0.0,0.0,0.0,0.0,0.0,0.0,0.0,0.0,0.0,0.0,0.0,0.0,0.0,0.0,0.0,0.0,0.0,0.0,0.0,0.0,0.0,0.0,0.0,0.0,0.0,0.0,0.0,0.0,0.0,0.0,0.0,0.0,0.0,0.0,0.0,0.0,0.0,0.0,0.0,0.0,0.0,0.0,0.0,0.0,0.0,0.0,0.0,0.0,0.0,0.0,0.0,0.0,0.0,0.0,0.0,0.0,0.0,0.0,0.0,0.0,0.0,0.0,0.0,0.0,0.0,0.0,0.0,0.0,0.0,0.0,0.0,0.0,0.0,0.0,0.0,0.0,0.0,0.0,0.0,0.0,0.0,0.0,0.0,0.0,0.0,0.0,0.0,0.0,0.0,0.0,0.0,0.0,0.0,0.0,0.0,0.0,0.0,0.0,0.0,0.0,0.0,0.0,0.0,0.0,0.0,0.0,0.0,0.0,0.0,0.0,0.0,0.0,0.0,0.0,0.0,0.0,0.0,0.0,0.0,0.0,0.0,0.0,0.0,0.0,0.0,0.0,0.0,0.0,0.0,0.0,0.0,0.0,0.0,0.0,0.0,0.0,0.0,0.0,0.0,0.0,0.0,0.0,0.0,0.0,0.0,0.0,0.0,0.0,0.0,0.0,0.0,0.0,0.0,0.0,0.0,0.0,0.0,0.0,0.0,0.0,0.0,0.0,0.0,0.0,0.0,0.0,0.0,0.0,0.0,0.0,0.0,0.0,0.0,0.0,0.0,0.0,0.0,0.0,0.0,0.0,0.0,0.0,0.0,0.0,0.0,0.0,0.0,0.0,0.0,0.0,0.0,0.0,0.0,0.0,0.0,0.0,0.0,0.0,0.0,0.0,0.0,0.0,0.0,0.0,0.0,0.0,0.0,0.0,0.0,0.0,0.0,0.0,0.0,0.0,0.0,0.0,0.0,0.0,0.0,0.0,0.0,0.0,0.0,0.0,0.0,0.0,0.0,0.0,0.0,0.0,0.0,0.0,0.0,-1.356,0.0,0.0,0.0,0.0,0.0,0.0,0.0,0.0,0.0,0.0,0.0,0.0,0.0,0.0,0.0,0.0,0.0,0.0,0.0,0.0,0.0,0.0,0.0,0.0,0.0,0.0,0.0,0.0,0.0,0.0,0.0,0.0,0.0,0.0,0.0,0.0,0.0,0.0,0.0,0.0,0.0,0.0,0.0,0.0,0.0,0.0,0.0,0.0,0.0,0.0,0.0,0.0,0.0,0.0,0.0,0.0,0.0,0.0,0.0,0.0,0.0,0.0,0.0,0.0,0.0,0.0,0.0,0.0,0.0,0.0,0.0,0.0,0.0,0.0,0.0,0.0,0.0,0.0,0.0,0.0,0.0,0.0,0.0,0.0,0.0,0.0,0.0,0.0,0.0,0.0,0.0,0.0,0.0,0.0,0.0,0.0,0.0,0.0,0.0,0.0,0.0,0.0,0.0,0.0,0.0,0.0,0.0,0.0,0.0,0.0,-1.4297,-1.4111,-1.3775,-1.3489,-1.3288,0.0,0.0,0.0,0.0,0.0,0.0,0.0,0.0,0.0,0.0,0.0,0.0,0.0,0.0,0.0,0.0,0.0,0.0,0.0,0.0,0.0,0.0,0.0,0.0,0.0,0.0,0.0,0.0,0.0,0.0,0.0,0.0,0.0,0.0,0.0,0.0,0.0,0.0,0.0,0.0,0.0,0.0,0.0,0.0,0.0,0.0,0.0,0.0,0.0,0.0,0.0,0.0,0.0,0.0,0.0,0.0,0.0,0.0,0.0,0.0,0.0,0.0,0.0,0.0,0.0,0.0,0.0,0.0,0.0,0.0,0.0,0.0,0.0,0.0,0.0,0.0,0.0,0.0,0.0,0.0,0.0,0.0,0.0,0.0,0.0,0.0,0.0,0.0,0.0,0.0,0.0,0.0,0.0,0.0,0.0,0.0,0.0,0.0,0.0,0.0,0.0,0.0,0.0,0.0,0.0,0.0,0.0,0.0,0.0,0.0,0.0,0.0,-1.3727,-1.3311,-1.2985,0.0,0.0,0.0,0.0,0.0,0.0,0.0,0.0,0.0,0.0,0.0,0.0,0.0,0.0,0.0,0.0,0.0,0.0,0.0,0.0,0.0,0.0,0.0,0.0,0.0,0.0,0.0,0.0,0.0,0.0,0.0,0.0,0.0,0.0,0.0,0.0,0.0,0.0,0.0,0.0,0.0,0.0,0.0,0.0,0.0,0.0,0.0,0.0,0.0,0.0,0.0,0.0,0.0,0.0,0.0,0.0,0.0,0.0,0.0,0.0,0.0,0.0,0.0,0.0,0.0,0.0,0.0,0.0,0.0,0.0,0.0,0.0,0.0,0.0,0.0,0.0,0.0,0.0,0.0,0.0,0.0,0.0,0.0,0.0,0.0,0.0,0.0,0.0,0.0,0.0,0.0,0.0,0.0,0.0,0.0,0.0,0.0,0.0,0.0,0.0,0.0,0.0,0.0,0.0,0.0,0.0,0.0,0.0,0.0,0.0,-1.4506,-1.3945,-1.3779,0.0,-1.2615,0.0,0.0,0.0,0.0,0.0,0.0,0.0,0.0,0.0,0.0,0.0,0.0,0.0,0.0,0.0,0.0,0.0,0.0,0.0,0.0,0.0,0.0,0.0,0.0,0.0,0.0,0.0,0.0,0.0,0.0,0.0,0.0,0.0,0.0,0.0,0.0,0.0,0.0,0.0,0.0,0.0,0.0,0.0,0.0,0.0,0.0,0.0,0.0,0.0,0.0,0.0,0.0,0.0,0.0,0.0,0.0,0.0,0.0,0.0,0.0,0.0,0.0,0.0,0.0,0.0,0.0,0.0,0.0,0.0,0.0,0.0,0.0,0.0,0.0,0.0,0.0,0.0,0.0,0.0,0.0,0.0,0.0,0.0,0.0,0.0,0.0,0.0,0.0,0.0,0.0,0.0,0.0,0.0,0.0,0.0,0.0,0.0,0.0,0.0,0.0,0.0,0.0,0.0,0.0,0.0,0.0,0.0,0.0,0.0,0.0,-1.4853,-1.4498,-1.3754,-1.3172,0.0,0.0,0.0,0.0,0.0,0.0,0.0,0.0,0.0,0.0,0.0,0.0,0.0,0.0,0.0,0.0,0.0,0.0,0.0,0.0,0.0,0.0,0.0,0.0,0.0,0.0,0.0,0.0,0.0,0.0,0.0,0.0,0.0,0.0,0.0,0.0,0.0,0.0,0.0,0.0,0.0,0.0,0.0,0.0,0.0,0.0,0.0,0.0,0.0,0.0,0.0,0.0,0.0,0.0,0.0,0.0,0.0,0.0,0.0,0.0,0.0,0.0,0.0,0.0,0.0,0.0,0.0,0.0,0.0,0.0,0.0,0.0,0.0,0.0,0.0,0.0,0.0,0.0,0.0,0.0,0.0,0.0,0.0,0.0,0.0,0.0,0.0,0.0,0.0,0.0,0.0,0.0,0.0,0.0,0.0,0.0,0.0,0.0,0.0,0.0,0.0,0.0,0.0,0.0,0.0,0.0,0.0,0.0,0.0,0.0,-1.5483,-1.5123,-1.4766,-1.3674,-1.3031,-1.2973,0.0,0.0,0.0,0.0,0.0,0.0,0.0,0.0,0.0,0.0,0.0,0.0,0.0,0.0,0.0,0.0,0.0,0.0,0.0,0.0,0.0,0.0,0.0,0.0,0.0,0.0,0.0,0.0,0.0,0.0,0.0,0.0,0.0,0.0,0.0,0.0,0.0,0.0,0.0,0.0,0.0,0.0,0.0,0.0,0.0,0.0,0.0,0.0,0.0,0.0,0.0,0.0,0.0,0.0,0.0,0.0,0.0,0.0,0.0,0.0,0.0,0.0,0.0,0.0,0.0,0.0,0.0,0.0,0.0,0.0,0.0,0.0,0.0,0.0,0.0,0.0,0.0,0.0,0.0,0.0,0.0,0.0,0.0,0.0,0.0,0.0,0.0,0.0,0.0,0.0,0.0,0.0,0.0,0.0,0.0,0.0,0.0,0.0,0.0,0.0,0.0,0.0,0.0,0.0,0.0,0.0,0.0,0.0,-1.5536,-1.5512,-1.5164,-1.4543,-1.3546,-1.2985,0.0,0.0,0.0,0.0,0.0,0.0,0.0,0.0,0.0,0.0,0.0,0.0,0.0,0.0,0.0,0.0,0.0,0.0,0.0,0.0,0.0,0.0,0.0,0.0,0.0,0.0,0.0,0.0,0.0,0.0,0.0,0.0,0.0,0.0,0.0,0.0,0.0,0.0,0.0,0.0,0.0,0.0,0.0,0.0,0.0,0.0,0.0,0.0,0.0,0.0,0.0,0.0,0.0,0.0,0.0,0.0,0.0,0.0,0.0,0.0,0.0,0.0,0.0,0.0,0.0,0.0,0.0,0.0,0.0,0.0,0.0,0.0,0.0,0.0,0.0,0.0,0.0,0.0,0.0,0.0,0.0,0.0,0.0,0.0,0.0,0.0,0.0,0.0,0.0,0.0,0.0,0.0,0.0,0.0,0.0,0.0,0.0,0.0,0.0,0.0,0.0,0.0,0.0,0.0,0.0,0.0,0.0,0.0,0.0,-1.5368,-1.5289,-1.5129,-1.4876,-1.4242,-1.3705,0.0,0.0,0.0,0.0,0.0,0.0,0.0,0.0,0.0,0.0,0.0,0.0,0.0,0.0,0.0,0.0,0.0,0.0,0.0,0.0,0.0,0.0,0.0,0.0,0.0,0.0,0.0,0.0,0.0,0.0,0.0,0.0,0.0,0.0,0.0,0.0,0.0,0.0,0.0,0.0,0.0,0.0,0.0,0.0,0.0,0.0,0.0,0.0,0.0,0.0,0.0,0.0,0.0,0.0,0.0,0.0,0.0,0.0,0.0,0.0,0.0,0.0,0.0,0.0,0.0,0.0,0.0,0.0,0.0,0.0,0.0,0.0,0.0,0.0,0.0,0.0,0.0,0.0,0.0,0.0,0.0,0.0,0.0,0.0,0.0,0.0,0.0,0.0,0.0,0.0,0.0,0.0,0.0,0.0,0.0,0.0,0.0,0.0,0.0,0.0,0.0,0.0,0.0,0.0,0.0,0.0,0.0,0.0,0.0,-1.5233,0.0,-1.5119,-1.5074,-1.4605,-1.4127,0.0,0.0,0.0,0.0,0.0,0.0,0.0,0.0,0.0,0.0,0.0,0.0,0.0,0.0,0.0,0.0,0.0,0.0,0.0,0.0,0.0,0.0,0.0,0.0,0.0,0.0,0.0,0.0,0.0,0.0,0.0,0.0,0.0,0.0,0.0,0.0,0.0,0.0,0.0,0.0,0.0,0.0,0.0,0.0,0.0,0.0,0.0,0.0,0.0,0.0,0.0,0.0,0.0,0.0,0.0,0.0,0.0,0.0,0.0,0.0,0.0,0.0,0.0,0.0,0.0,0.0,0.0,0.0,0.0,0.0,0.0,0.0,0.0,0.0,0.0,0.0,0.0,0.0,0.0,0.0,0.0,0.0,0.0,0.0,0.0,0.0,0.0,0.0,0.0,0.0,0.0,0.0,0.0,0.0,0.0,0.0,0.0,0.0,0.0,0.0,0.0,0.0,0.0,0.0,0.0,0.0,0.0,0.0,-1.5142,-1.5142,-1.5131,-1.5154,-1.5085,-1.4538,-1.42,0.0,0.0,0.0,0.0,0.0,0.0,0.0,0.0,0.0,0.0,0.0,0.0,0.0,0.0,0.0,0.0,0.0,0.0,0.0,0.0,0.0,0.0,0.0,0.0,0.0,0.0,0.0,0.0,0.0,0.0,0.0,0.0,0.0,0.0,0.0,0.0,0.0,0.0,0.0,0.0,0.0,0.0,0.0,0.0,0.0,0.0,0.0,0.0,0.0,0.0,0.0,0.0,0.0,0.0,0.0,0.0,0.0,0.0,0.0,0.0,0.0,0.0,0.0,0.0,0.0,0.0,0.0,0.0,0.0,0.0,0.0,0.0,0.0,0.0,0.0,0.0,0.0,0.0,0.0,0.0,0.0,0.0,0.0,0.0,0.0,0.0,0.0,0.0,0.0,0.0,0.0,0.0,0.0,0.0,0.0,0.0,0.0,0.0,0.0,0.0,0.0,0.0,0.0,0.0,0.0,0.0,0.0,0.0,0.0,-1.6128,-1.5832,-1.5659,-1.5636,-1.5028,-1.4484,0.0,0.0,0.0,0.0,0.0,0.0,0.0,0.0,0.0,0.0,0.0,0.0,0.0,0.0,0.0,0.0,0.0,0.0,0.0,0.0,0.0,0.0,0.0,0.0,0.0,0.0,0.0,0.0,0.0,0.0,0.0,0.0,0.0,0.0,0.0,0.0,0.0,0.0,0.0,0.0,0.0,0.0,0.0,0.0,0.0,0.0,0.0,0.0,0.0,0.0,0.0,0.0,0.0,0.0,0.0,0.0,0.0,0.0,0.0,0.0,0.0,0.0,0.0,0.0,0.0,0.0,0.0,0.0,0.0,0.0,0.0,0.0,0.0,0.0,0.0,0.0,0.0,0.0,0.0,0.0,0.0,0.0,0.0,0.0,0.0,0.0,0.0,0.0,0.0,0.0,0.0,0.0,0.0,0.0,0.0,0.0,0.0,0.0,0.0,0.0,0.0,0.0,0.0,0.0,0.0,0.0,0.0,0.0,0.0,-1.7126,-1.6325,-1.5912,-1.5911,-1.5233,-1.4665,-1.4261,0.0,0.0,0.0,0.0,0.0,0.0,0.0,0.0,0.0,0.0,0.0,0.0,0.0,0.0,0.0,0.0,0.0,0.0,0.0,0.0,0.0,0.0,0.0,0.0,0.0,0.0,0.0,0.0,0.0,0.0,0.0,0.0,0.0,0.0,0.0,0.0,0.0,0.0,0.0,0.0,0.0,0.0,0.0,0.0,0.0,0.0,0.0,0.0,0.0,0.0,0.0,0.0,0.0,0.0,0.0,0.0,0.0,0.0,0.0,0.0,0.0,0.0,0.0,0.0,0.0,0.0,0.0,0.0,0.0,0.0,0.0,0.0,0.0,0.0,0.0,0.0,0.0,0.0,0.0,0.0,0.0,0.0,0.0,0.0,0.0,0.0,0.0,0.0,0.0,0.0,0.0,0.0,0.0,0.0,0.0,0.0,0.0,0.0,0.0,0.0,0.0,0.0,0.0,0.0,0.0,0.0,0.0,0.0,-1.8164,-1.6745,-1.6014,-1.5979,-1.5242,-1.4764,0.0,0.0,0.0,0.0,0.0,0.0,0.0,0.0,0.0,0.0,0.0,0.0,0.0,0.0,0.0,0.0,0.0,0.0,0.0,0.0,0.0,0.0,0.0,0.0,0.0,0.0,0.0,0.0,0.0,0.0,0.0,0.0,0.0,0.0,0.0,0.0,0.0,0.0,0.0,0.0,0.0,0.0,0.0,0.0,0.0,0.0,0.0,0.0,0.0,0.0,0.0,0.0,0.0,0.0,0.0,0.0,0.0,0.0,0.0,0.0,0.0,0.0,0.0,0.0,0.0,0.0,0.0,0.0,0.0,0.0,0.0,0.0,0.0,0.0,0.0,0.0,0.0,0.0,0.0,0.0,0.0,0.0,0.0,0.0,0.0,0.0,0.0,0.0,0.0,0.0,0.0,0.0,0.0,0.0,0.0,0.0,0.0,0.0,0.0,0.0,0.0,0.0,0.0,0.0,0.0,0.0,0.0,0.0,0.0,-1.901,-1.7877,-1.7119,-1.6849,-1.5762,-1.5099,0.0,0.0,0.0,0.0,0.0,0.0,0.0,0.0,0.0,0.0,0.0,0.0,0.0,0.0,0.0,0.0,0.0,0.0,0.0,0.0,0.0,0.0,0.0,0.0,0.0,0.0,0.0,0.0,0.0,0.0,0.0,0.0,0.0,0.0,0.0,0.0,0.0,0.0,0.0,0.0,0.0,0.0,0.0,0.0,0.0,0.0,0.0,0.0,0.0,0.0,0.0,0.0,0.0,0.0,0.0,0.0,0.0,0.0,0.0,0.0,0.0,0.0,0.0,0.0,0.0,0.0,0.0,0.0,0.0,0.0,0.0,0.0,0.0,0.0,0.0,0.0,0.0,0.0,0.0,0.0,0.0,0.0,0.0,0.0,0.0,0.0,0.0,0.0,0.0,0.0,0.0,0.0,0.0,0.0,0.0,0.0,0.0,0.0,0.0,0.0,0.0,0.0,0.0,0.0,0.0,0.0,0.0,0.0,-1.858,-1.8949,-1.8277,-1.7707,-1.7254,-1.6169,-1.5411,0.0,0.0,0.0,0.0,0.0,0.0,0.0,0.0,0.0,0.0,0.0,0.0,0.0,0.0,0.0,0.0,0.0,0.0,0.0,0.0,0.0,0.0,0.0,0.0,0.0,0.0,0.0,0.0,0.0,0.0,0.0,0.0,0.0,0.0,0.0,0.0,0.0,0.0,0.0,0.0,0.0,0.0,0.0,0.0,0.0,0.0,0.0,0.0,0.0,0.0,0.0,0.0,0.0,0.0,0.0,0.0,0.0,0.0,0.0,0.0,0.0,0.0,0.0,0.0,0.0,0.0,0.0,0.0,0.0,0.0,0.0,0.0,0.0,0.0,0.0,0.0,0.0,0.0,0.0,0.0,0.0,0.0,0.0,0.0,0.0,0.0,0.0,0.0,0.0,0.0,0.0,0.0,0.0,0.0,0.0,0.0,0.0,0.0,0.0,0.0,0.0,0.0,0.0,0.0,0.0,0.0,0.0,0.0,-1.8483,-1.8623,-1.8433,-1.8078,-1.7486,-1.6565,-1.5709,0.0,0.0,0.0,0.0,0.0,0.0,0.0,0.0,0.0,0.0,0.0,0.0,0.0,0.0,0.0,0.0,0.0,0.0,0.0,0.0,0.0,0.0,0.0,0.0,0.0,0.0,0.0,0.0,0.0,0.0,0.0,0.0,0.0,0.0,0.0,0.0,0.0,0.0,0.0,0.0,0.0,0.0,0.0,0.0,0.0,0.0,0.0,0.0,0.0,0.0,0.0,0.0,0.0,0.0,0.0,0.0,0.0,0.0,0.0,0.0,0.0,0.0,0.0,0.0,0.0,0.0,0.0,0.0,0.0,0.0,0.0,0.0,0.0,0.0,0.0,0.0,0.0,0.0,0.0,0.0,0.0,0.0,0.0,0.0,0.0,0.0,0.0,0.0,0.0,0.0,0.0,0.0,0.0,0.0,0.0,0.0,0.0,0.0,0.0,0.0,0.0,0.0,0.0,0.0,0.0,0.0,0.0,0.0,-1.9089,-1.9933,-1.9434,-1.9038,-1.8808,-1.7132,-1.602,0.0,0.0,0.0,0.0,0.0,0.0,0.0,0.0,0.0,0.0,0.0,0.0,0.0,0.0,0.0,0.0,0.0,0.0,0.0,0.0,0.0,0.0,0.0,0.0,0.0,0.0,0.0,0.0,0.0,0.0,0.0,0.0,0.0,0.0,0.0,0.0,0.0,0.0,0.0,0.0,0.0,0.0,0.0,0.0,0.0,0.0,0.0,0.0,-0.5773,0.0,0.0,0.0,0.0,0.0,0.0,0.0,0.0,0.0,0.0,0.0,0.0,0.0,0.0,0.0,0.0,0.0,0.0,0.0,0.0,0.0,0.0,0.0,0.0,0.0,0.0,0.0,0.0,0.0,0.0,0.0,0.0,0.0,0.0,0.0,0.0,0.0,0.0,0.0,0.0,0.0,0.0,0.0,0.0,0.0,0.0,0.0,0.0,0.0,0.0,0.0,0.0,0.0,0.0,0.0,0.0,0.0,0.0,0.0,-1.9339,-1.9896,-1.9581,-1.9184,-1.8707,-1.7472,-1.6529,0.0,0.0,0.0,0.0,0.0,0.0,0.0,0.0,0.0,0.0,0.0,0.0,0.0,0.0,0.0,0.0,0.0,0.0,0.0,0.0,0.0,0.0,0.0,0.0,0.0,0.0,0.0,0.0,0.0,0.0,0.0,0.0,0.0,0.0,0.0,0.0,0.0,0.0,0.0,0.0,0.0,0.0,0.0,0.0,0.0,0.0,0.0,0.0,0.0,0.0,0.0,0.0,0.0,0.0,0.0,0.0,0.0,0.0,0.0,0.0,0.0,0.0,0.0,0.0,0.0,0.0,0.0,0.0,0.0,0.0,0.0,0.0,0.0,0.0,0.0,0.0,0.0,0.0,0.0,0.0,0.0,0.0,0.0,0.0,0.0,0.0,0.0,0.0,0.0,0.0,0.0,0.0,0.0,0.0,0.0,0.0,0.0,0.0,0.0,0.0,0.0,0.0,0.0,0.0,0.0,0.0,0.0,-1.9147,-1.9431,-1.9496,-1.9496,-1.9175,-1.8444,-1.7846,-1.7214,-1.6514,0.0,0.0,0.0,0.0,0.0,0.0,0.0,0.0,0.0,0.0,0.0,0.0,0.0,0.0,0.0,0.0,0.0,0.0,0.0,0.0,0.0,0.0,0.0,0.0,0.0,0.0,0.0,0.0,0.0,0.0,0.0,0.0,0.0,0.0,0.0,0.0,0.0,0.0,-0.7131,-0.7342,0.0,0.0,0.0,0.0,0.0,0.0,0.0,0.0,-0.6751,0.0,0.0,0.0,0.0,0.0,0.0,0.0,0.0,0.0,0.0,0.0,0.0,0.0,0.0,0.0,0.0,0.0,0.0,0.0,0.0,0.0,0.0,0.0,0.0,0.0,0.0,0.0,0.0,0.0,0.0,0.0,0.0,0.0,0.0,0.0,0.0,0.0,0.0,0.0,0.0,0.0,0.0,0.0,0.0,0.0,0.0,0.0,0.0,0.0,0.0,0.0,0.0,0.0,0.0,0.0,0.0,-1.8687,-1.9054,-1.9478,-1.9944,-1.9998,-1.9792,-1.9393,-1.8882,-1.8114,-1.6898,0.0,0.0,0.0,0.0,0.0,0.0,0.0,0.0,0.0,0.0,0.0,0.0,0.0,0.0,0.0,0.0,0.0,0.0,0.0,0.0,0.0,0.0,0.0,0.0,0.0,0.0,0.0,0.0,0.0,0.0,0.0,0.0,0.0,0.0,0.0,0.0,0.0,0.0,0.0,-0.7367,-0.7332,0.0,0.0,0.0,0.0,0.0,0.0,0.0,0.0,-0.672,0.0,0.0,0.0,0.0,0.0,0.0,0.0,0.0,0.0,0.0,0.0,0.0,0.0,0.0,0.0,0.0,0.0,0.0,0.0,0.0,0.0,0.0,0.0,0.0,0.0,0.0,0.0,0.0,0.0,0.0,0.0,0.0,0.0,0.0,0.0,0.0,0.0,0.0,0.0,0.0,0.0,0.0,0.0,0.0,0.0,0.0,0.0,0.0,0.0,0.0,0.0,0.0,0.0,0.0,0.0,-1.8466,-1.9072,-1.9555,-1.9835,-1.9846,-1.9714,-1.9429,-1.8857,-1.8068,0.0,0.0,0.0,0.0,0.0,0.0,0.0,0.0,0.0,0.0,0.0,0.0,0.0,0.0,0.0,0.0,0.0,0.0,0.0,0.0,0.0,0.0,0.0,0.0,0.0,0.0,0.0,0.0,0.0,0.0,0.0,0.0,0.0,0.0,0.0,0.0,0.0,0.0,0.0,0.0,-0.7716,-0.7746,-0.7778,0.0,0.0,0.0,0.0,0.0,0.0,-0.7699,-0.7313,0.0,0.0,0.0,0.0,0.0,0.0,0.0,0.0,0.0,0.0,0.0,0.0,0.0,0.0,0.0,0.0,0.0,0.0,0.0,0.0,0.0,0.0,0.0,0.0,0.0,0.0,0.0,0.0,0.0,0.0,0.0,0.0,0.0,0.0,0.0,0.0,0.0,0.0,0.0,0.0,0.0,0.0,0.0,0.0,0.0,0.0,0.0,0.0,0.0,0.0,0.0,0.0,0.0,0.0,0.0,-1.8222,-1.9094,-1.9572,-1.9583,-1.9583,-1.9506,-1.9308,-1.869,-1.7936,0.0,0.0,0.0,0.0,0.0,0.0,0.0,0.0,0.0,0.0,0.0,0.0,0.0,0.0,0.0,0.0,0.0,0.0,0.0,0.0,0.0,0.0,0.0,0.0,0.0,0.0,0.0,0.0,0.0,0.0,0.0,0.0,0.0,0.0,0.0,0.0,0.0,0.0,0.0,0.0,0.0,-0.824,-0.8296,-0.8302,0.0,0.0,0.0,0.0,-0.868,-0.8224,0.0,0.0,0.0,0.0,0.0,0.0,0.0,0.0,0.0,0.0,0.0,0.0,0.0,0.0,0.0,0.0,0.0,0.0,0.0,0.0,0.0,0.0,0.0,0.0,0.0,0.0,0.0,0.0,0.0,0.0,0.0,0.0,0.0,0.0,0.0,0.0,0.0,0.0,0.0,0.0,0.0,0.0,0.0,0.0,0.0,0.0,0.0,0.0,0.0,0.0,0.0,0.0,0.0,0.0,0.0,0.0,-1.8222,-1.8965,-1.9407,-1.9572,-1.9583,-1.9517,-1.9308,-1.909,-1.8306,0.0,0.0,0.0,0.0,0.0,0.0,0.0,0.0,0.0,0.0,0.0,0.0,0.0,0.0,0.0,0.0,0.0,0.0,0.0,0.0,0.0,0.0,0.0,0.0,0.0,0.0,0.0,0.0,0.0,0.0,0.0,0.0,0.0,0.0,0.0,0.0,0.0,0.0,0.0,0.0,0.0,-0.8355,-0.8619,-0.8643,-0.8632,0.0,0.0,-0.8528,-0.8675,-0.8144,0.0,0.0,0.0,0.0,0.0,0.0,0.0,0.0,0.0,0.0,0.0,0.0,0.0,0.0,0.0,0.0,0.0,0.0,0.0,0.0,0.0,0.0,0.0,0.0,0.0,0.0,0.0,0.0,0.0,0.0,0.0,0.0,0.0,0.0,0.0,0.0,0.0,0.0,0.0,0.0,0.0,0.0,0.0,0.0,0.0,0.0,0.0,0.0,0.0,0.0,0.0,0.0,0.0,0.0,0.0,-1.7957,-1.8312,-1.8897,-1.9241,-1.9308,-1.9308,-1.9274,-1.9208,-1.9042,-1.8248,0.0,0.0,0.0,0.0,0.0,0.0,0.0,0.0,0.0,0.0,0.0,0.0,0.0,0.0,0.0,0.0,0.0,0.0,0.0,0.0,0.0,0.0,0.0,0.0,0.0,0.0,0.0,0.0,0.0,0.0,0.0,0.0,0.0,0.0,0.0,0.0,0.0,0.0,0.0,0.0,0.0,0.0,-0.8668,-0.8704,0.0,0.0,0.0,-0.8902,-0.9143,0.0,0.0,0.0,0.0,0.0,0.0,0.0,0.0,0.0,0.0,0.0,0.0,0.0,0.0,0.0,0.0,0.0,0.0,0.0,0.0,0.0,0.0,0.0,0.0,0.0,0.0,0.0,0.0,0.0,0.0,0.0,0.0,0.0,0.0,0.0,0.0,0.0,0.0,0.0,0.0,0.0,0.0,0.0,0.0,0.0,0.0,0.0,0.0,0.0,0.0,0.0,0.0,0.0,0.0,0.0,0.0,0.0,-1.8382,-1.887,-1.9098,-1.9098,-1.9098,-1.9098,-1.9098,-1.8875,0.0,0.0,0.0,0.0,0.0,0.0,0.0,0.0,0.0,0.0,0.0,0.0,0.0,0.0,0.0,0.0,0.0,0.0,0.0,0.0,0.0,0.0,0.0,0.0,0.0,0.0,0.0,-1.1059,0.0,0.0,0.0,0.0,0.0,0.0,0.0,0.0,0.0,0.0,0.0,0.0,0.0,0.0,-0.8794,-0.8956,-0.8969,-0.9011,0.0,0.0,-0.9275,-0.948,-0.8898,-0.845,0.0,0.0,0.0,0.0,0.0,0.0,0.0,0.0,0.0,0.0,0.0,0.0,0.0,0.0,0.0,0.0,0.0,0.0,0.0,0.0,0.0,0.0,0.0,0.0,0.0,0.0,0.0,0.0,0.0,0.0,0.0,0.0,0.0,0.0,0.0,0.0,0.0,0.0,0.0,0.0,0.0,0.0,0.0,0.0,0.0,0.0,0.0,0.0,0.0,0.0,0.0,0.0,0.0,0.0,0.0,-1.8403,-1.887,-1.9098,-1.9098,-1.9098,-1.9098,-1.9098,-1.8707,-1.8151,0.0,0.0,0.0,0.0,0.0,0.0,0.0,0.0,0.0,0.0,0.0,0.0,0.0,0.0,0.0,0.0,0.0,0.0,0.0,0.0,0.0,0.0,0.0,0.0,0.0,0.0,0.0,0.0,0.0,0.0,0.0,0.0,0.0,0.0,0.0,0.0,0.0,0.0,0.0,0.0,0.0,-0.9284,-0.9674,-0.9748,-0.9659,0.0,0.0,-0.9466,-0.9478,-0.9144,-0.8786,-0.8522,0.0,0.0,0.0,0.0,0.0,0.0,0.0,0.0,0.0,0.0,0.0,0.0,0.0,0.0,0.0,0.0,0.0,0.0,0.0,0.0,0.0,0.0,0.0,0.0,0.0,0.0,0.0,0.0,0.0,0.0,0.0,0.0,0.0,0.0,0.0,0.0,0.0,0.0,0.0,0.0,0.0,0.0,0.0,0.0,0.0,0.0,0.0,0.0,0.0,0.0,0.0,0.0,0.0,-1.8081,-1.8828,-1.9015,-1.9098,-1.9098,-1.9098,-1.9098,-1.9098,-1.8841,-1.8305,0.0,0.0,0.0,0.0,0.0,0.0,0.0,0.0,0.0,0.0,0.0,0.0,0.0,0.0,0.0,0.0,0.0,0.0,0.0,0.0,0.0,0.0,0.0,0.0,0.0,0.0,0.0,0.0,-1.2422,-1.2206,-1.1676,0.0,0.0,0.0,0.0,0.0,0.0,0.0,0.0,0.0,0.0,-0.9699,-0.9901,-0.9862,0.0,0.0,-0.958,-0.9478,-0.9478,-0.9162,-0.8804,-0.8551,-0.7768,0.0,0.0,0.0,0.0,0.0,0.0,0.0,0.0,0.0,0.0,0.0,0.0,0.0,0.0,0.0,0.0,0.0,0.0,0.0,0.0,0.0,0.0,0.0,0.0,0.0,0.0,0.0,0.0,0.0,0.0,0.0,0.0,0.0,0.0,0.0,0.0,0.0,0.0,0.0,0.0,0.0,0.0,0.0,0.0,0.0,0.0,0.0,0.0,0.0,0.0,0.0,0.0,-1.8371,-1.9295,-1.9305,-1.9378,-1.9479,-1.9479,-1.944,-1.9316,-1.9036,-1.8496,0.0,0.0,0.0,0.0,0.0,0.0,0.0,0.0,0.0,0.0,0.0,0.0,0.0,0.0,0.0,0.0,0.0,0.0,0.0,0.0,0.0,0.0,0.0,0.0,0.0,0.0,0.0,0.0,-1.3072,-1.2731,-1.1906,0.0,0.0,0.0,0.0,0.0,0.0,0.0,0.0,0.0,0.0,-1.0074,-1.0104,-0.9951,-0.9862,-0.9804,-0.9644,-0.9478,-0.9478,-0.9265,-0.8989,-0.8723,0.0,0.0,0.0,0.0,0.0,0.0,0.0,0.0,0.0,0.0,0.0,0.0,0.0,0.0,0.0,0.0,0.0,0.0,0.0,0.0,0.0,0.0,0.0,0.0,0.0,0.0,0.0,0.0,0.0,0.0,-1.7678,0.0,0.0,0.0,0.0,0.0,0.0,0.0,0.0,0.0,0.0,0.0,0.0,0.0,0.0,0.0,0.0,0.0,0.0,0.0,0.0,0.0,0.0,-1.8849,-1.9751,-1.9782,-1.999,-2.0323,-2.0354,-2.0172,-1.9803,-1.9412,-1.8819,-1.7974,0.0,0.0,0.0,0.0,0.0,0.0,0.0,0.0,0.0,0.0,0.0,0.0,0.0,0.0,0.0,0.0,0.0,0.0,0.0,0.0,0.0,0.0,0.0,0.0,0.0,0.0,-1.3976,-1.3596,-1.2948,0.0,0.0,0.0,0.0,0.0,0.0,0.0,0.0,0.0,0.0,-1.0483,-1.0387,-1.03,-1.0117,-0.997,-0.9836,-0.9644,-0.951,-0.951,-0.9504,-0.9382,0.0,0.0,0.0,0.0,0.0,0.0,0.0,0.0,0.0,0.0,0.0,0.0,0.0,0.0,0.0,0.0,0.0,0.0,0.0,0.0,0.0,0.0,0.0,0.0,0.0,0.0,0.0,-1.8867,-1.8741,0.0,0.0,0.0,0.0,0.0,0.0,0.0,0.0,0.0,0.0,0.0,-2.0374,-2.0265,0.0,0.0,0.0,0.0,0.0,0.0,0.0,0.0,0.0,0.0,0.0,0.0,-1.9181,-1.9772,-2.0083,-2.0276,-2.0374,-2.0374,-2.0358,-2.0203,-1.987,-1.9019,-1.7692,0.0,0.0,0.0,0.0,0.0,0.0,0.0,0.0,0.0,0.0,0.0,0.0,0.0,0.0,0.0,0.0,0.0,0.0,0.0,0.0,0.0,0.0,0.0,0.0,0.0,-1.4071,0.0,0.0,0.0,0.0,0.0,0.0,0.0,0.0,0.0,0.0,0.0,-1.1379,-1.1512,-1.1485,-1.1323,-1.0992,-1.0686,-1.0387,0.0,0.0,0.0,0.0,0.0,0.0,0.0,0.0,0.0,0.0,0.0,0.0,0.0,0.0,-0.5896,-0.4915,-0.4525,-0.4252,-0.3863,0.0,0.0,0.0,0.0,0.0,0.0,0.0,0.0,0.0,0.0,0.0,0.0,0.0,0.0,0.0,0.0,-1.9617,0.0,0.0,0.0,0.0,0.0,0.0,0.0,0.0,-2.1238,-2.1383,-2.1383,-2.1383,-2.118,0.0,-2.087,-2.0096,0.0,0.0,0.0,0.0,0.0,0.0,0.0,0.0,-1.9768,-2.0224,-2.0514,-2.0741,-2.086,-2.087,-2.0824,-2.0633,-2.002,-1.9088,-1.7742,-1.6848,-1.6026,0.0,0.0,0.0,0.0,0.0,0.0,0.0,0.0,0.0,0.0,0.0,0.0,0.0,0.0,0.0,0.0,0.0,0.0,0.0,0.0,0.0,0.0,0.0,-1.4179,0.0,0.0,0.0,0.0,0.0,0.0,0.0,0.0,0.0,-1.246,-1.2398,-1.2379,-1.2488,-1.2346,-1.2109,-1.161,0.0,0.0,0.0,0.0,0.0,0.0,0.0,-1.0086,-0.9867,-0.9644,-0.9338,-0.887,-0.8334,-0.7836,-0.7414,0.0,0.0,-0.5506,-0.5155,-0.4911,-0.4406,-0.4175,-0.3987,-0.3614,-0.3524,-0.3446,0.0,0.0,0.0,0.0,0.0,0.0,0.0,0.0,-2.0791,-2.0948,0.0,-2.063,0.0,0.0,0.0,0.0,0.0,0.0,0.0,0.0,-2.2739,-2.3184,-2.3163,-2.3143,-2.2708,-2.188,-2.1849,-2.1393,-2.0545,-2.0478,0.0,0.0,0.0,0.0,0.0,0.0,-2.0669,-2.1083,-2.1114,-2.1352,-2.1766,-2.1797,-2.158,-2.1071,-1.9946,-1.8977,-1.8175,-1.7719,-1.6963,-1.5873,-1.5499,0.0,0.0,0.0,0.0,0.0,0.0,0.0,0.0,0.0,0.0,0.0,0.0,0.0,0.0,0.0,0.0,0.0,0.0,0.0,0.0,-1.4212,0.0,0.0,0.0,0.0,0.0,0.0,0.0,0.0,0.0,0.0,-1.353,-1.3492,-1.3421,-1.3427,0.0,0.0,0.0,0.0,-1.1484,-1.1252,-1.1046,-1.0908,-1.0908,-1.0908,-1.0839,-1.066,0.0,0.0,-0.9477,-0.8775,-0.827,-0.7874,-0.7596,-0.7105,-0.631,-0.6002,-0.5628,-0.4934,-0.4674,-0.4433,-0.3974,-0.3831,-0.3691,-2.2725,0.0,0.0,0.0,0.0,-2.1318,-2.1465,-2.1689,-2.1562,-2.1613,-2.1762,-2.1516,0.0,0.0,0.0,0.0,0.0,0.0,-2.2621,-2.2801,-2.307,-2.3194,-2.3194,-2.3194,-2.3049,-2.2791,-2.2791,-2.2656,-2.2408,-2.2397,-2.1725,-2.0405,0.0,0.0,0.0,0.0,-2.0979,-2.1124,-2.1445,-2.1673,-2.1807,-2.1807,-2.1593,-2.1166,-2.0282,-1.9484,-1.8835,-1.7974,-1.7168,-1.6401,-1.5909,0.0,0.0,0.0,0.0,0.0,0.0,0.0,0.0,0.0,0.0,0.0,0.0,0.0,0.0,0.0,0.0,0.0,0.0,0.0,-1.4706,-1.4223,-1.3876,0.0,0.0,0.0,0.0,0.0,0.0,0.0,0.0,0.0,-1.4288,-1.4228,-1.4134,0.0,0.0,-1.3703,-1.3204,-1.2723,-1.2277,-1.1833,0.0,0.0,0.0,-1.1189,-1.1086,-1.1052,-1.0811,-1.0416,-0.9963,-0.9714,-0.9363,-0.8717,-0.8397,-0.7987,-0.7232,-0.6507,-0.595,-0.5632,-0.5288,-0.4964,-0.4702,-0.4509,-0.4365,-2.3809,-2.2881,-2.2715,-2.2539,-2.2454,-2.2568,-2.2549,-2.2393,-2.2568,-2.2549,-2.2373,-2.2207,-2.2139,-2.2109,-2.1884,0.0,0.0,0.0,-2.3166,-2.333,-2.3598,-2.3722,-2.3722,-2.3722,-2.3629,-2.3504,-2.3463,-2.337,-2.3194,-2.3194,-2.2635,-2.1559,0.0,0.0,-2.1528,-2.1797,-2.1932,-2.1952,-2.2211,-2.2263,-2.2087,-2.1824,-2.1512,-2.1205,-2.059,-1.9956,-1.9302,-1.8531,-1.7719,-1.6872,-1.6463,-1.5814,0.0,0.0,0.0,0.0,0.0,0.0,0.0,0.0,0.0,0.0,0.0,-1.3147,-1.3282,0.0,0.0,0.0,-1.4047,-1.4348,-1.4669,-1.4159,0.0,0.0,0.0,0.0,0.0,0.0,0.0,-1.3566,-1.3729,-1.4007,-1.4524,-1.46,-1.4611,-1.4585,-1.4506,-1.4268,-1.3853,0.0,-1.3027,-1.2551,-1.2382,-1.2199,-1.1918,-1.1812,-1.1678,-1.1417,-1.1045,-1.0659,-1.0378,-1.0207,-0.9904,-0.9393,-0.9041,-0.8685,-0.8073,-0.7335,-0.6585,-0.6111,-0.5743,-0.5413,-0.5138,-0.4945,-0.4732,-2.4521,-2.4492,-2.4102,-2.3682,-2.3355,-2.3682,-2.3603,-2.3237,-2.3662,-2.3613,-2.3179,-2.2799,-2.2666,-2.2646,-2.2466,0.0,-2.2423,-2.3251,-2.3612,-2.3664,-2.4286,-2.4557,-2.4611,-2.46,-2.4394,-2.4085,-2.4002,-2.3764,-2.3381,-2.3329,-2.3298,-2.3287,-2.3298,-2.3256,-2.3194,-2.3184,-2.3194,-2.3184,-2.3184,-2.3017,-2.2563,-2.1914,-2.1448,-2.1265,-2.0829,-2.0294,-1.9645,-1.9201,-1.8435,-1.7364,-1.7021,-1.6387,-1.53,0.0,0.0,0.0,0.0,0.0,0.0,0.0,0.0,0.0,0.0,0.0,0.0,0.0,0.0,0.0,-1.4273,0.0,-1.4389,-1.4034,0.0,0.0,0.0,-1.361,-1.361,-1.361,-1.3592,-1.3649,0.0,0.0,-1.4407,0.0,-1.4864,-1.4864,-1.4756,-1.4533,-1.4209,-1.3985,-1.371,-1.3302,-1.3222,-1.3076,-1.2611,-1.2515,-1.2245,-1.176,-1.1314,-1.0972,-1.0773,-1.0438,-1.0143,-0.9886,-0.96,-0.9222,-0.8835,-0.8211,-0.7519,-0.654,-0.6129,-0.5813,-0.5432,-0.5126,-0.4948,-2.5372,-2.5372,-2.5265,-2.4824,-2.4131,-2.4228,-2.4209,-2.4085,-2.4219,-2.4209,-2.4102,-2.4004,-2.3965,-2.3955,-2.3902,-2.3998,-2.4187,-2.4376,-2.4561,-2.474,-2.5076,-2.5272,-2.5261,-2.5485,-2.5513,-2.5433,-2.5068,-2.485,-2.4683,-2.4342,-2.4177,-2.4177,-2.4177,-2.3867,-2.3215,-2.3194,-2.3194,-2.3194,-2.3194,-2.3143,-2.3018,-2.2376,-2.1954,-2.1757,-2.082,-2.0225,-1.9833,-1.9121,-1.8487,-1.7863,-1.7234,-1.6537,-1.5787,-1.5123,0.0,0.0,0.0,0.0,0.0,0.0,0.0,0.0,0.0,-1.3431,-1.3508,0.0,-1.3965,0.0,-1.4163,-1.4173,-1.4173,-1.3964,0.0,0.0,-1.3689,-1.361,-1.361,-1.361,-1.3721,-1.3958,-1.4061,-1.4212,-1.4517,-1.4621,-1.4677,-1.4685,-1.4756,-1.48,-1.4721,-1.4469,-1.4181,-1.392,-1.363,-1.3309,-1.2863,-1.2452,-1.204,-1.1744,-1.1458,-1.1243,-1.1021,-1.0942,-1.076,-1.0401,-1.0026,-0.9631,-0.9224,-0.8679,-0.81,-0.7518,-0.6814,-0.6213,-0.5999,-0.5668,-0.5377,-2.6259,-2.6239,-2.6103,-2.5732,-2.5273,-2.5088,-2.4785,-2.4434,-2.4619,-2.46,-2.4424,-2.4424,-2.4424,-2.4424,-2.4424,-2.447,-2.4608,-2.4756,-2.4838,-2.4975,-2.5204,-2.5305,-2.5351,-2.5477,-2.5603,-2.5694,-2.5468,-2.5389,-2.5502,-2.5254,-2.514,-2.514,-2.513,-2.4881,-2.4395,-2.3991,-2.3743,-2.3784,-2.3588,-2.3494,-2.3474,-2.2848,-2.2402,-2.2161,-2.1253,-2.0583,-2.0216,-1.9332,-1.8563,-1.7991,-1.7354,-1.6661,-1.5951,-1.5381,-1.4835,0.0,0.0,0.0,0.0,0.0,0.0,0.0,0.0,0.0,0.0,0.0,-1.4079,-1.3863,-1.392,-1.3964,-1.3956,-1.3861,-1.3818,-1.3916,-1.3886,-1.3846,-1.395,-1.395,-1.4055,-1.4288,-1.4312,-1.4383,-1.4581,-1.4605,-1.4605,-1.4605,-1.4685,-1.4756,-1.4756,-1.4533,-1.4317,-1.4129,-1.3855,-1.3455,-1.2973,-1.2445,-1.2046,-1.1744,-1.1521,-1.1329,-1.1149,-1.1117,-1.0952,-1.0568,-1.0392,-1.009,-0.955,-0.9114,-0.8657,-0.822,-0.7478,-0.6851,-0.6485,-0.6104,-0.5785,-2.7012,-2.6973,-2.6621,-2.6465,-2.6435,-2.6064,-2.5352,-2.4609,-2.499,-2.4941,-2.458,-2.459,-2.458,-2.459,-2.458,-2.459,-2.459,-2.4775,-2.4924,-2.4914,-2.5145,-2.5237,-2.5237,-2.5273,-2.5385,-2.5615,-2.5554,-2.566,-2.5867,-2.5871,-2.584,-2.583,-2.5875,-2.593,-2.5854,-2.5099,-2.4642,-2.458,-2.4188,-2.396,-2.396,-2.331,-2.2828,-2.2552,-2.1726,-2.1068,-2.0566,-1.9586,-1.8647,-1.7959,-1.7343,-1.6676,-1.5909,-1.5518,-1.5128,0.0,-1.4572,0.0,0.0,0.0,0.0,0.0,0.0,0.0,0.0,-1.4253,-1.4118,-1.3645,-1.377,-1.388,-1.3888,-1.3917,-1.399,-1.415,-1.4223,-1.4304,-1.4449,-1.4486,-1.4558,-1.4667,-1.4664,-1.4632,-1.4684,-1.4645,-1.4605,-1.4605,-1.4605,-1.4605,-1.4605,-1.4505,-1.4353,-1.4165,-1.3928,-1.3528,-1.2973,-1.2526,-1.2114,-1.1744,-1.1446,-1.126,-1.1043,-1.0999,-1.0881,-1.0582,-1.0571,-1.0426,-0.9765,-0.9516,-0.9207,-0.8798,-0.8106,-0.7436,-0.6837,-0.639,-0.6086,-2.7012,-2.7002,-2.6934,-2.6894,-2.6894,-2.6807,-2.6289,-2.545,-2.5576,-2.5508,-2.544,-2.544,-2.545,-2.544,-2.544,-2.543,-2.544,-2.5488,-2.5536,-2.5536,-2.5805,-2.5891,-2.5938,-2.6149,-2.6245,-2.6272,-2.592,-2.5748,-2.5831,-2.5661,-2.5578,-2.5589,-2.5805,-2.593,-2.5875,0.0,0.0,0.0,-2.4611,-2.4373,-2.4363,-2.3551,-2.3108,-2.3056,-2.187,0.0,-2.0351,-1.9502,-1.8521,-1.7579,-1.7057,0.0,0.0,0.0,0.0,0.0,0.0,0.0,0.0,0.0,0.0,0.0,-1.4629,-1.4631,-1.4473,-1.4456,-1.4432,-1.4328,-1.4366,-1.4366,-1.4366,-1.4482,-1.4544,-1.459,-1.4721,-1.4828,-1.4874,-1.4897,-1.4988,-1.5225,-1.4975,-1.484,-1.5025,-1.4795,-1.4621,-1.4609,-1.4605,-1.4605,-1.4629,-1.4585,-1.4505,-1.4353,-1.3899,-1.3419,-1.2973,-1.2445,-1.1929,-1.1521,-1.1149,-1.0887,-1.07,-1.0625,-1.0631,-1.0475,-1.04,-1.0293,-1.0067,-0.9804,-0.9429,-0.9015,-0.8529,-0.7965,-0.7049,-0.6595,-0.6226,-2.7646,0.0,-2.7422,-2.7334,0.0,-2.7109,-2.6768,-2.6327,-2.6367,-2.62,-2.6045,-2.5781,-2.5684,-2.5684,-2.5684,-2.5684,-2.5684,-2.5684,-2.5684,-2.5684,-2.583,-2.5917,-2.5917,-2.6024,-2.6159,-2.6284,-2.6074,-2.6012,-2.6144,-2.6027,-2.601,-2.602,-2.6139,-2.6186,-2.6186,-2.5972,-2.5624,-2.5199,-2.4962,-2.4681,-2.4335,-2.3896,-2.3571,-2.3338,0.0,0.0,0.0,0.0,0.0,0.0,0.0,0.0,0.0,0.0,0.0,-1.5148,-1.5035,-1.494,-1.494,-1.4948,-1.4948,-1.494,-1.5053,-1.5002,-1.4728,-1.456,-1.4504,-1.4504,-1.4504,-1.4504,-1.4504,-1.4543,-1.4582,-1.4582,-1.4691,-1.4762,-1.4839,-1.4839,-1.4956,-1.5134,-1.5034,-1.4965,-1.5086,-1.5059,-1.4987,-1.5016,-1.5083,-1.5141,-1.5073,-1.4738,-1.4425,-1.4152,-1.371,-1.3236,-1.2936,-1.2378,-1.1855,-1.1446,-1.1074,-1.0738,-1.0513,-1.0513,-1.0475,-1.0406,-1.0331,-1.0293,-1.0073,-0.9809,-0.9511,-0.916,-0.867,-0.8087,-0.743,-0.699,-0.6515,-2.8408,-2.8359,-2.7949,-2.7836,-2.7754,-2.7383,-2.7246,-2.7236,0.0,0.0,0.0,-2.6123,-2.5918,-2.5918,-2.5908,-2.5908,-2.5908,-2.584,-2.5801,-2.585,-2.5723,-2.5684,-2.5684,-2.5684,-2.583,-2.6004,-2.6004,-2.6149,-2.6352,-2.64,-2.6438,-2.6448,-2.6448,-2.6496,-2.6476,-2.6134,-2.5736,-2.5324,-2.5211,-2.4866,-2.4296,-2.4189,-2.3931,-2.3406,-2.2664,-2.1969,-2.1367,-2.0196,-1.9273,-1.8705,-1.7822,-1.7139,-1.6662,-1.621,-1.5834,-1.5621,-1.5549,-1.557,-1.5476,-1.5476,-1.5447,-1.5396,-1.5389,-1.5313,-1.5002,-1.4787,-1.464,-1.468,-1.464,-1.464,-1.468,-1.464,-1.468,-1.464,-1.464,-1.4719,-1.4798,-1.483,-1.4932,-1.5076,-1.5077,-1.5071,-1.5109,-1.5204,-1.5312,-1.5343,-1.5396,-1.5597,-1.5495,-1.4981,-1.4462,-1.4071,-1.3653,-1.3205,-1.2833,-1.2378,-1.1855,-1.1403,-1.0999,-1.07,-1.0519,-1.0443,-1.0331,-1.018,-1.0293,-1.0218,-0.9954,-0.9771,-0.9587,-0.9322,-0.8751,-0.8174,-0.7863,-0.7399,-0.6889,-2.8828,-2.8789,-2.8379,-2.8203,-2.8203,-2.8135,-2.8115,-2.8047,-2.7334,-2.6982,-2.6924,-2.6865,-2.6836,-2.6836,-2.6836,-2.6836,-2.6807,-2.6465,-2.6289,0.0,-2.5908,-2.5684,-2.5684,-2.5684,-2.5742,-2.5781,-2.5732,-2.5781,-2.583,-2.6062,-2.6139,-2.6197,-2.639,-2.6496,-2.6496,-2.6436,-2.6154,-2.5744,-2.5305,-2.4902,-2.4468,-2.4226,-2.3782,-2.3164,-2.2648,-2.1914,-2.0918,-2.0158,-1.9277,-1.8238,-1.7509,-1.7012,-1.677,-1.6484,-1.6331,-1.6243,-1.6235,-1.6126,-1.587,-1.5848,-1.5688,-1.5418,-1.5389,-1.5367,-1.5323,-1.5279,-1.5292,-1.5292,-1.527,-1.5258,-1.5299,-1.5228,-1.5255,-1.5228,-1.5243,-1.5292,-1.5303,-1.5303,-1.5323,-1.5506,-1.5345,-1.5253,-1.5405,-1.5239,-1.5126,-1.5087,-1.5249,-1.5173,-1.5188,-1.5034,-1.4843,-1.4501,-1.3976,-1.3411,-1.2841,-1.2311,-1.1832,-1.1223,-1.0842,-1.0509,-1.0327,-1.0154,-1.0035,-0.9954,-0.9992,-0.9954,-0.9884,-0.9884,-0.9695,-0.9392,-0.9013,-0.8665,-0.8174,-0.7676,-0.7199,-2.9268,-2.9248,-2.9062,-2.8848,-2.8613,-2.8389,-2.8301,-2.8262,-2.7891,-2.7578,-2.7353,-2.7119,-2.7012,-2.7012,-2.7012,-2.7012,-2.7002,-2.6816,-2.6728,-2.6719,-2.6523,-2.6309,-2.6094,-2.6094,-2.5918,-2.5703,-2.5684,-2.5684,-2.5732,-2.582,-2.5868,-2.5868,-2.6024,-2.6062,-2.6072,-2.6072,-2.5973,-2.5755,-2.5565,-2.5217,-2.466,-2.454,-2.4106,-2.3274,-2.2952,-2.2272,-2.1175,-2.0571,-1.9869,-1.895,-1.8253,-1.7672,-1.7235,-1.6907,-1.6595,-1.6426,-1.6411,-1.6353,-1.6177,-1.6162,-1.6096,-1.595,-1.5935,-1.5935,-1.5935,-1.5621,-1.5389,-1.5389,-1.5389,-1.5389,-1.5389,-1.5389,-1.5389,-1.5389,-1.5389,-1.5389,-1.5389,-1.5389,-1.5465,-1.5492,-1.5415,-1.536,-1.5491,-1.543,-1.5365,-1.5365,-1.5493,-1.5574,-1.5559,-1.5478,-1.5225,-1.4742,-1.4146,-1.3635,-1.3137,-1.2511,-1.2016,-1.1591,-1.097,-1.0588,-1.0406,-1.0138,-0.9938,-0.9884,-0.9889,-0.9884,-0.9889,-0.9809,-0.9657,-0.9506,-0.9122,-0.8703,-0.8327,-0.7714,-0.7019,-2.9707,-2.9707,-2.9609,-2.9375,-2.9043,-2.8721,-2.8525,-2.8437,-2.8428,-2.8203,-2.7783,-2.7441,-2.7305,-2.7305,-2.7295,-2.7305,-2.7285,-2.7197,-2.7168,-2.7158,-2.706,-2.6846,-2.6562,-2.6533,-2.6309,-2.5879,-2.583,-2.583,-2.5693,-2.5684,-2.5684,-2.5684,-2.5684,-2.5684,-2.5684,-2.5684,-2.5684,-2.5713,-2.5783,-2.5471,-2.4924,-2.4848,-2.4411,-2.3547,-2.3345,-2.2656,-2.1509,-2.1057,-2.044,-1.9641,-1.892,-1.8325,-1.7766,-1.7325,-1.6941,-1.6661,-1.6587,-1.6595,-1.6521,-1.6448,-1.6411,-1.6411,-1.6411,-1.6411,-1.633,-1.5928,-1.5635,-1.5635,-1.5672,-1.5665,-1.5672,-1.5665,-1.5643,-1.5643,-1.5643,-1.5593,-1.5513,-1.5498,-1.5462,-1.5418,-1.5389,-1.5423,-1.5431,-1.5541,-1.5594,-1.5613,-1.5839,-1.5922,-1.5922,-1.5748,-1.5386,-1.4925,-1.4374,-1.3873,-1.3529,-1.289,-1.2288,-1.1994,-1.1277,-1.0852,-1.0639,-1.0307,-1.0105,-1.0083,-1.0066,-1.005,-0.9997,-0.9899,-0.9764,-0.9613,-0.9198,-0.8784,-0.8369,-0.7633,-0.6826,-3.0137,-3.0078,-2.9756,-2.9607,-2.9502,-2.9453,-2.9209,-2.8887,-2.8857,-2.8623,-2.8242,-2.8193,-2.8154,-2.8174,-2.8144,-2.8135,-2.8105,-2.7836,-2.766,-2.7559,-2.7197,-2.6992,-2.6963,-2.6963,-2.6738,-2.6377,-2.6309,-2.6103,-2.5742,-2.5693,-2.5684,-2.5684,-2.5684,-2.5684,-2.5684,-2.5684,-2.5684,-2.5684,-2.5703,-2.5507,-2.5086,-2.5057,-2.4617,-2.3681,-2.3671,-2.301,-2.1666,-2.1333,-2.0715,-1.9666,-1.9082,-1.8535,-1.8087,-1.777,-1.7515,-1.723,-1.7177,-1.7121,-1.6873,-1.658,-1.6396,-1.6411,-1.6441,-1.6448,-1.6396,-1.633,-1.6331,-1.6323,-1.6279,-1.6228,-1.6287,-1.625,-1.6213,-1.6191,-1.6213,-1.6177,-1.5928,-1.5877,-1.576,-1.5411,-1.5504,-1.5396,-1.5504,-1.5489,-1.5445,-1.5465,-1.5514,-1.5555,-1.5555,-1.5506,-1.5458,-1.5277,-1.489,-1.4273,-1.3712,-1.3147,-1.2622,-1.2049,-1.1519,-1.1163,-1.09,-1.0683,-1.0517,-1.0394,-1.0469,-1.0399,-1.032,-1.0211,-1.0103,-0.9809,-0.9436,-0.9042,-0.8302,-0.7624,-0.6972,-3.0605,-3.0586,-3.042,-3.0185,-2.9922,-2.9678,-2.9473,-2.9287,-2.9023,-2.8818,-2.8643,-2.8398,-2.8301,-2.8301,-2.8301,-2.8301,-2.8281,-2.8115,-2.8037,-2.8018,-2.7851,-2.7637,-2.7422,-2.7393,-2.7178,-2.6758,-2.6514,-2.6299,-2.6113,-2.582,-2.5684,-2.5684,-2.5684,-2.5684,-2.5684,-2.5684,-2.5684,-2.5684,-2.5684,-2.5606,-2.5488,-2.5469,-2.5015,-2.4165,-2.4051,-2.3476,-2.2319,-2.1946,-2.1397,-2.0545,-1.9774,-1.909,-1.8431,-1.7974,-1.7581,-1.7333,-1.7286,-1.7228,-1.7143,-1.7004,-1.6938,-1.6938,-1.693,-1.693,-1.6938,-1.6938,-1.693,-1.6894,-1.6639,-1.6411,-1.6419,-1.6411,-1.6411,-1.6411,-1.6411,-1.636,-1.6206,-1.6184,-1.6111,-1.6001,-1.5979,-1.5972,-1.5957,-1.5826,-1.5608,-1.5455,-1.5396,-1.5445,-1.5389,-1.5389,-1.5389,-1.5374,-1.5182,-1.4778,-1.4158,-1.3536,-1.2994,-1.2438,-1.1752,-1.1254,-1.1114,-1.0825,-1.0592,-1.0608,-1.063,-1.0603,-1.0514,-1.0498,-1.041,-1.0095,-0.9745,-0.931,-0.8599,-0.7874,-0.7186,-3.0898,-3.0898,-3.0898,-3.0693,-3.0371,-3.0068,-2.991,-2.9717,-2.9404,-2.9209,-2.9053,-2.8652,-2.8467,-2.8447,-2.835,-2.8301,-2.8301,-2.8301,-2.8301,-2.8301,-2.8301,-2.8135,-2.7914,-2.7885,-2.7607,-2.7207,-2.6904,-2.6689,-2.6523,-2.6123,-2.5908,-2.5859,-2.5752,-2.5684,-2.5684,-2.5684,-2.5684,-2.5684,-2.5684,-2.5684,-2.5674,-2.5684,-2.5295,-2.4524,-2.4448,-2.3914,-2.284,-2.2527,-2.1957,-2.1142,-2.0452,-1.9646,-1.8824,-1.8308,-1.7906,-1.7519,-1.7457,-1.7374,-1.7293,-1.7286,-1.7286,-1.7286,-1.7286,-1.7286,-1.7286,-1.7286,-1.7286,-1.7235,-1.6901,-1.6652,-1.663,-1.6638,-1.663,-1.663,-1.663,-1.6653,-1.6521,-1.6543,-1.6514,-1.6433,-1.6353,-1.6411,-1.633,-1.6162,-1.5935,-1.565,-1.5577,-1.5504,-1.5411,-1.5389,-1.5389,-1.5389,-1.5389,-1.511,-1.4566,-1.4021,-1.3434,-1.2723,-1.2006,-1.1506,-1.1332,-1.0965,-1.0801,-1.093,-1.0823,-1.0783,-1.0746,-1.0735,-1.061,-1.0451,-1.0111,-0.9577,-0.8914,-0.8169,-0.7559,-3.0898,-3.0898,-3.0898,-3.0879,-3.085,-3.081,-3.0566,-3.0166,-3.0117,-2.9902,-2.9512,-2.9092,-2.8887,-2.8838,-2.8486,-2.8301,-2.8301,-2.8301,-2.8301,-2.8301,-2.8301,-2.8281,-2.8262,-2.8262,-2.8047,-2.7699,-2.7529,-2.7324,-2.6953,-2.6562,-2.6367,-2.6338,-2.5977,-2.5703,-2.5723,-2.5703,-2.5684,-2.5684,-2.5684,-2.5684,-2.5684,-2.5684,-2.5421,-2.4924,-2.4845,-2.4354,-2.3302,-2.2899,-2.2254,-2.1168,-2.0805,-2.0152,-1.9226,-1.8992,-1.8581,-1.7886,-1.7794,-1.7669,-1.7366,-1.7344,-1.7337,-1.7323,-1.7413,-1.7315,-1.7421,-1.7344,-1.733,-1.7293,-1.7282,-1.7216,-1.7216,-1.7172,-1.7155,-1.7216,-1.7252,-1.7113,-1.6903,-1.6881,-1.6734,-1.6543,-1.6462,-1.6462,-1.6404,-1.6367,-1.6206,-1.5987,-1.5891,-1.5768,-1.5542,-1.5447,-1.5433,-1.5425,-1.5411,-1.5257,-1.4734,-1.4237,-1.3646,-1.2905,-1.2242,-1.1778,-1.1499,-1.1278,-1.1252,-1.1193,-1.1182,-1.1091,-1.102,-1.0892,-1.0745,-1.0568,-1.0316,-0.9797,-0.9363,-0.8506,-0.7881,-3.0898,-3.0898,-3.0898,-3.0898,-3.0898,-3.0898,-3.0791,-3.0615,-3.0332,-3.0117,-2.9912,-2.9521,-2.918,-2.8906,-2.876,-2.8545,-2.831,-2.8301,-2.8301,-2.8301,-2.8301,-2.8301,-2.8301,-2.8291,-2.8232,-2.8057,-2.7845,-2.7441,-2.7051,-2.6855,-2.6787,-2.6719,-2.6367,-2.6152,-2.6113,-2.582,-2.5684,-2.5684,-2.5684,-2.5684,-2.5684,-2.5684,-2.544,-2.4941,-2.4892,-2.4571,-2.3892,-2.3399,-2.2825,-2.2034,-2.1369,-2.0498,-1.9506,-1.8862,-1.8452,-1.8145,-1.8123,-1.8072,-1.7977,-1.7955,-1.7955,-1.7955,-1.7955,-1.7925,-1.7911,-1.7765,-1.764,-1.7611,-1.7435,-1.7293,-1.7286,-1.7286,-1.7286,-1.7286,-1.7286,-1.7289,-1.7201,-1.7157,-1.7106,-1.7011,-1.6982,-1.6916,-1.6726,-1.6727,-1.6602,-1.6279,-1.6206,-1.614,-1.603,-1.5877,-1.5738,-1.5659,-1.552,-1.5215,-1.4776,-1.4356,-1.3815,-1.3003,-1.232,-1.1806,-1.1478,-1.1305,-1.1278,-1.1273,-1.1305,-1.1289,-1.1118,-1.1112,-1.0963,-1.0921,-1.0653,-1.0228,-0.9899,-0.9008,-0.8363,-3.0898,-3.0898,-3.0898,-3.0898,-3.0898,-3.0898,-3.0898,-3.085,-3.0557,-3.042,-3.0342,-2.9971,-2.9609,-2.9336,-2.918,-2.8896,-2.8506,-2.8359,-2.8301,-2.8301,-2.8301,-2.8301,-2.8301,-2.8301,-2.8301,-2.8252,-2.8018,-2.7705,-2.7432,-2.7285,-2.7226,-2.7197,-2.6807,-2.6592,-2.6533,-2.6289,-2.6044,-2.5947,-2.5947,-2.5889,-2.5713,-2.5684,-2.543,-2.499,-2.4892,-2.4695,-2.4202,-2.3696,-2.3088,-2.2492,-2.1779,-2.0853,-1.9829,-1.9041,-1.8562,-1.8474,-1.846,-1.8408,-1.8313,-1.8299,-1.8299,-1.8299,-1.8299,-1.8299,-1.8284,-1.8094,-1.7991,-1.7918,-1.7794,-1.7592,-1.7592,-1.7655,-1.7552,-1.7344,-1.7286,-1.7286,-1.7286,-1.7279,-1.7279,-1.725,-1.7242,-1.7201,-1.7062,-1.7011,-1.6903,-1.6609,-1.6573,-1.6543,-1.6404,-1.6206,-1.606,-1.603,-1.5796,-1.5431,-1.493,-1.4472,-1.3756,-1.2973,-1.2332,-1.1866,-1.1483,-1.1354,-1.1311,-1.1311,-1.1311,-1.1311,-1.1311,-1.1311,-1.1267,-1.1267,-1.0988,-1.0605,-1.0105,-0.9522,-0.8811,-3.0898,-3.0898,-3.0898,-3.0898,-3.0898,-3.0898,-3.0898,-3.0889,-3.0869,-3.082,-3.0742,-3.0391,-3.0156,-3.0059,-2.9717,-2.9336,-2.8916,-2.8545,-2.833,-2.8301,-2.8301,-2.8301,-2.8301,-2.8301,-2.8301,-2.8301,-2.8281,-2.8262,-2.8164,-2.7885,-2.7718,-2.7588,-2.7236,-2.7021,-2.7021,-2.6924,-2.6758,-2.6475,-2.6387,-2.6191,-2.5762,-2.5742,-2.5479,-2.499,-2.4892,-2.4686,-2.4211,-2.3705,-2.3147,-2.2526,-2.1962,-2.12,-2.0143,-1.9502,-1.9103,-1.884,-1.8789,-1.8642,-1.8401,-1.8379,-1.8416,-1.8416,-1.8357,-1.8416,-1.843,-1.835,-1.8306,-1.8299,-1.8247,-1.824,-1.8218,-1.8203,-1.8006,-1.7479,-1.7421,-1.7344,-1.7323,-1.7293,-1.7286,-1.7286,-1.7286,-1.7286,-1.7279,-1.7274,-1.7143,-1.693,-1.6895,-1.6822,-1.6609,-1.6492,-1.6426,-1.6323,-1.6126,-1.5741,-1.5183,-1.4595,-1.3756,-1.2948,-1.2381,-1.1866,-1.1483,-1.1311,-1.1311,-1.1311,-1.1311,-1.1311,-1.1311,-1.1311,-1.1311,-1.1224,-1.1046,-1.0824,-1.0356,-0.976,-0.9131,-3.0898,-3.0898,-3.0898,-3.0898,-3.0898,-3.0898,-3.0898,-3.0898,-3.0898,-3.0898,-3.0869,-3.0742,-3.0508,-3.0225,-3.0039,-2.9766,-2.9355,-2.8926,-2.8564,-2.834,-2.8301,-2.8301,-2.8301,-2.8301,-2.8301,-2.8301,-2.8301,-2.8301,-2.8271,-2.8154,-2.8105,-2.8018,-2.7666,-2.7471,-2.7441,-2.7168,-2.6924,-2.6846,-2.6816,-2.6611,-2.623,-2.6191,-2.5798,-2.5019,-2.4892,-2.4695,-2.4202,-2.3705,-2.3147,-2.2526,-2.1971,-2.1208,-2.0233,-1.9576,-1.928,-1.9192,-1.9125,-1.9096,-1.9001,-1.8957,-1.8942,-1.8964,-1.8964,-1.8972,-1.8935,-1.8752,-1.8642,-1.8613,-1.8445,-1.8299,-1.8299,-1.8299,-1.8225,-1.8021,-1.7753,-1.7662,-1.7585,-1.7425,-1.7301,-1.7286,-1.7286,-1.7286,-1.7286,-1.7286,-1.7289,-1.7194,-1.7165,-1.7091,-1.7018,-1.6806,-1.6763,-1.6727,-1.6389,-1.6097,-1.5572,-1.4945,-1.4119,-1.3238,-1.2518,-1.1877,-1.1483,-1.1311,-1.1311,-1.1311,-1.1311,-1.1311,-1.1311,-1.1311,-1.1311,-1.1267,-1.1138,-1.0868,-1.0603,-1.0081,-0.9471,-3.1035,-3.0898,-3.0898,-3.0898,-3.0898,-3.0898,-3.0898,-3.0898,-3.0898,-3.0898,-3.0898,-3.0889,-3.0732,-3.0498,-3.0449,-3.0205,-2.9805,-2.9512,-2.9072,-2.8555,-2.834,-2.8301,-2.8301,-2.8301,-2.8301,-2.8301,-2.8301,-2.8301,-2.8301,-2.8301,-2.8291,-2.8232,-2.8027,-2.7953,-2.7881,-2.7637,-2.7432,-2.7295,-2.7246,-2.706,-2.6719,-2.6611,-2.6166,-2.5334,-2.5168,-2.4845,-2.422,-2.3696,-2.3138,-2.2476,-2.1666,-2.0798,-2.013,-1.9576,-1.9272,-1.9272,-1.9272,-1.9264,-1.9272,-1.9235,-1.9272,-1.9272,-1.9272,-1.9264,-1.9235,-1.9052,-1.8979,-1.8935,-1.8803,-1.8664,-1.8672,-1.8672,-1.8664,-1.8657,-1.8255,-1.8028,-1.7947,-1.7706,-1.7483,-1.7461,-1.7374,-1.7301,-1.7286,-1.7286,-1.7286,-1.7286,-1.7286,-1.7286,-1.725,-1.715,-1.7069,-1.6998,-1.6748,-1.6422,-1.6043,-1.5311,-1.4557,-1.3623,-1.2729,-1.1993,-1.1435,-1.1311,-1.1311,-1.1311,-1.1311,-1.1311,-1.1311,-1.1311,-1.1267,-1.1224,-1.1181,-1.1046,-1.0781,-1.0429,-0.982,-3.1279,-3.0937,-3.0898,-3.0898,-3.0898,-3.0898,-3.0898,-3.0898,-3.0898,-3.0898,-3.0898,-3.0898,-3.0879,-3.0879,-3.081,-3.0596,-3.0283,-3.0107,-2.9707,-2.9062,-2.8623,-2.8369,-2.8301,-2.8301,-2.8301,-2.8301,-2.8301,-2.8301,-2.8301,-2.8301,-2.8301,-2.8281,-2.8262,-2.8271,-2.8223,-2.8271,-2.8027,-2.7734,-2.7695,-2.748,-2.708,-2.699,-2.6582,-2.5673,-2.5544,-2.5174,-2.4308,-2.3591,-2.2987,-2.2325,-2.1003,-2.0241,-2.0027,-1.9576,-1.9272,-1.9272,-1.9272,-1.9272,-1.9272,-1.9272,-1.9272,-1.9272,-1.9272,-1.9272,-1.9264,-1.9235,-1.9213,-1.922,-1.9199,-1.9206,-1.9199,-1.9191,-1.9199,-1.9177,-1.8672,-1.835,-1.8277,-1.8013,-1.7867,-1.7794,-1.7534,-1.7337,-1.7428,-1.7406,-1.7337,-1.7286,-1.7286,-1.7286,-1.7279,-1.7282,-1.7271,-1.7186,-1.6989,-1.6808,-1.6408,-1.576,-1.4963,-1.4142,-1.3179,-1.2312,-1.1603,-1.144,-1.1311,-1.1311,-1.1311,-1.1311,-1.1311,-1.1311,-1.1311,-1.1267,-1.1224,-1.1181,-1.0959,-1.0564,-1.0125,-3.1455,-3.1318,-3.1016,-3.0898,-3.0898,-3.0898,-3.0898,-3.0898,-3.0898,-3.0898,-3.0898,-3.0898,-3.0898,-3.0898,-3.0889,-3.081,-3.0635,-3.0361,-3.0137,-2.9785,-2.9082,-2.8584,-2.835,-2.8301,-2.8301,-2.8301,-2.8301,-2.8301,-2.8301,-2.8301,-2.8301,-2.8301,-2.8301,-2.8301,-2.8301,-2.8301,-2.8242,-2.8144,-2.8125,-2.792,-2.7506,-2.7263,-2.6791,-2.6119,-2.5876,-2.5312,-2.4316,-2.3094,-2.2283,-2.1878,-2.0798,-2.0138,-2.0086,-1.9576,-1.9272,-1.9272,-1.9272,-1.9272,-1.9272,-1.9272,-1.9272,-1.9272,-1.9272,-1.9272,-1.9272,-1.9272,-1.9272,-1.9272,-1.9272,-1.9272,-1.9272,-1.9272,-1.9272,-1.9228,-1.8899,-1.8577,-1.8386,-1.8233,-1.8174,-1.816,-1.8086,-1.7911,-1.775,-1.7677,-1.7549,-1.7374,-1.7315,-1.7293,-1.7301,-1.7286,-1.7286,-1.7286,-1.7177,-1.7044,-1.6725,-1.6116,-1.5401,-1.4616,-1.3686,-1.2715,-1.2054,-1.1576,-1.1418,-1.1311,-1.1311,-1.1311,-1.1311,-1.1311,-1.1311,-1.1311,-1.1267,-1.1224,-1.1046,-1.0738,-1.0255,-3.1846,-3.1494,-3.125,-3.1045,-3.0908,-3.0898,-3.0898,-3.0898,-3.0898,-3.0898,-3.0898,-3.0898,-3.0898,-3.0898,-3.0889,-3.0898,-3.085,-3.0615,-3.0381,-3.0049,-2.9297,-2.8701,-2.8379,-2.8301,-2.8301,-2.8301,-2.8301,-2.8301,-2.8301,-2.8301,-2.8301,-2.8301,-2.8301,-2.8301,-2.8301,-2.8301,-2.8301,-2.8291,-2.8291,-2.8101,-2.7781,-2.7593,-2.7046,-2.648,-2.6082,-2.5592,-2.4466,-2.3229,-2.2321,-2.1663,-2.0747,-2.0138,-2.0086,-1.9583,-1.9272,-1.9272,-1.9272,-1.9272,-1.9272,-1.9272,-1.9272,-1.9272,-1.9272,-1.9272,-1.9272,-1.9272,-1.9272,-1.9272,-1.9272,-1.9272,-1.9272,-1.9272,-1.9272,-1.925,-1.9103,-1.8921,-1.8723,-1.8599,-1.8518,-1.8482,-1.8379,-1.8247,-1.8035,-1.8021,-1.7845,-1.764,-1.7567,-1.7472,-1.7377,-1.7308,-1.7286,-1.7286,-1.7286,-1.721,-1.7008,-1.645,-1.5757,-1.5013,-1.3892,-1.2997,-1.2372,-1.1777,-1.1597,-1.1439,-1.1364,-1.1311,-1.1311,-1.1311,-1.1311,-1.1311,-1.1311,-1.1267,-1.1089,-1.0824,-1.0386,-3.2344,-3.165,-3.1562,-3.1309,-3.0996,-3.0918,-3.0898,-3.0898,-3.0898,-3.0898,-3.0898,-3.0898,-3.0898,-3.0898,-3.0898,-3.0898,-3.0889,-3.084,-3.0566,-3.0117,-2.9482,-2.8926,-2.8457,-2.833,-2.8301,-2.8301,-2.8301,-2.8301,-2.8301,-2.8301,-2.8301,-2.8301,-2.8301,-2.8301,-2.8301,-2.8301,-2.8301,-2.8301,-2.8237,-2.8111,-2.7892,-2.7659,-2.7229,-2.6611,-2.6116,-2.5536,-2.4518,-2.3544,-2.2703,-2.172,-2.0723,-2.0243,-2.0065,-1.9576,-1.9324,-1.9272,-1.9272,-1.9272,-1.9272,-1.9272,-1.9272,-1.9272,-1.9272,-1.9272,-1.9272,-1.9272,-1.9272,-1.9272,-1.9272,-1.9272,-1.9272,-1.9272,-1.9272,-1.9272,-1.9257,-1.9264,-1.922,-1.9016,-1.884,-1.8825,-1.8577,-1.8438,-1.8357,-1.8328,-1.8225,-1.7933,-1.7845,-1.7735,-1.7596,-1.7516,-1.7435,-1.7286,-1.7286,-1.7286,-1.7091,-1.6828,-1.6095,-1.53,-1.4069,-1.3081,-1.2535,-1.2046,-1.1801,-1.1661,-1.1509,-1.1396,-1.1311,-1.1311,-1.1321,-1.1311,-1.1311,-1.1311,-1.1224,-1.0911,-1.0516,-3.2695,-3.2461,-3.1797,-3.1465,-3.1338,-3.1045,-3.0898,-3.0898,-3.0898,-3.0898,-3.0898,-3.0898,-3.0898,-3.0898,-3.0898,-3.0898,-3.0898,-3.0869,-3.0635,-3.0205,-3.0059,-2.9463,-2.8857,-2.8506,-2.831,-2.8301,-2.8301,-2.8301,-2.8301,-2.8301,-2.8301,-2.8301,-2.8301,-2.8301,-2.8301,-2.8301,-2.8291,-2.8237,-2.8077,-2.796,-2.7799,-2.7422,-2.7105,-2.6695,-2.5918,-2.504,-2.4291,-2.3384,-2.2573,-2.1801,-2.1051,-2.0422,-2.0104,-1.9613,-1.936,-1.9308,-1.9286,-1.9272,-1.9272,-1.9272,-1.9272,-1.9272,-1.9272,-1.9272,-1.9272,-1.9272,-1.9272,-1.9272,-1.9272,-1.9272,-1.9272,-1.9272,-1.9272,-1.9272,-1.9272,-1.9272,-1.9264,-1.9206,-1.9199,-1.9125,-1.9074,-1.8972,-1.873,-1.8694,-1.854,-1.8277,-1.813,-1.8035,-1.7882,-1.7728,-1.7596,-1.7439,-1.7388,-1.7388,-1.7145,-1.6763,-1.5913,-1.5207,-1.4106,-1.323,-1.2678,-1.2327,-1.2075,-1.1865,-1.1671,-1.1564,-1.1423,-1.1348,-1.1364,-1.1337,-1.1311,-1.1311,-1.1219,-1.0911,-1.0559,-3.2978,-3.2754,-3.2305,-3.1885,-3.1514,-3.1279,-3.1074,-3.0918,-3.0898,-3.0898,-3.0898,-3.0898,-3.0898,-3.0898,-3.0898,-3.0898,-3.0898,-3.0889,-3.0771,-3.0498,-3.0312,-2.9941,-2.9492,-2.8887,-2.8516,-2.835,-2.8301,-2.8301,-2.8301,-2.8301,-2.8301,-2.8301,-2.8301,-2.8301,-2.8301,-2.8291,-2.8237,-2.813,-2.796,-2.7799,-2.7466,-2.7206,-2.6826,-2.6482,-2.5584,-2.4769,-2.4461,-2.3615,-2.2871,-2.2196,-2.1472,-2.0803,-2.0317,-1.9843,-1.9566,-1.9499,-1.9338,-1.9286,-1.9272,-1.9272,-1.9272,-1.9272,-1.9272,-1.9272,-1.9272,-1.9272,-1.9272,-1.9272,-1.9272,-1.9272,-1.9272,-1.9272,-1.9272,-1.9272,-1.9272,-1.9272,-1.9272,-1.9272,-1.9272,-1.9272,-1.9242,-1.9169,-1.9067,-1.8986,-1.8847,-1.8591,-1.8525,-1.8416,-1.8182,-1.8021,-1.7852,-1.768,-1.7585,-1.7436,-1.7196,-1.6574,-1.5635,-1.4873,-1.3986,-1.3332,-1.2785,-1.2537,-1.2334,-1.2129,-1.1919,-1.1736,-1.1634,-1.1509,-1.1413,-1.1343,-1.1273,-1.1273,-1.1176,-1.0906,-1.0516,-3.3213,-3.2891,-3.2822,-3.2363,-3.1748,-3.1562,-3.1318,-3.1035,-3.0918,-3.0898,-3.0898,-3.0898,-3.0898,-3.0898,-3.0898,-3.0898,-3.0898,-3.0898,-3.083,-3.0781,-3.0518,-3.0264,-2.9951,-2.9463,-2.8896,-2.8437,-2.832,-2.8301,-2.8301,-2.8301,-2.8301,-2.8301,-2.8301,-2.8237,-2.8237,-2.8184,-2.8077,-2.7853,-2.7691,-2.753,-2.7152,-2.6944,-2.6618,-2.5881,-2.5313,-2.4671,-2.4339,-2.3694,-2.3071,-2.2482,-2.1904,-2.1299,-2.0761,-2.0187,-1.9835,-1.9828,-1.9623,-1.9499,-1.9425,-1.9381,-1.9419,-1.9301,-1.9272,-1.9272,-1.9272,-1.9272,-1.9272,-1.9272,-1.9272,-1.9272,-1.9272,-1.9272,-1.9272,-1.9272,-1.9272,-1.9272,-1.9272,-1.9272,-1.9272,-1.9272,-1.9272,-1.9228,-1.9228,-1.9184,-1.9052,-1.8935,-1.8877,-1.8767,-1.8518,-1.8335,-1.8182,-1.8021,-1.7877,-1.751,-1.7208,-1.6501,-1.5553,-1.4652,-1.3835,-1.334,-1.2905,-1.271,-1.2506,-1.2377,-1.2183,-1.2,-1.1855,-1.1779,-1.1655,-1.1434,-1.1283,-1.1282,-1.1114,-1.0873,-1.0472,-3.3379,-3.3291,-3.2939,-3.2705,-3.248,-3.1836,-3.1514,-3.1357,-3.1055,-3.0898,-3.0898,-3.0898,-3.0898,-3.0898,-3.0898,-3.0898,-3.0898,-3.0898,-3.0898,-3.0898,-3.0732,-3.0576,-3.0234,-2.9971,-2.9502,-2.8887,-2.8516,-2.834,-2.8301,-2.8301,-2.8301,-2.8301,-2.8301,-2.8237,-2.8067,-2.796,-2.7799,-2.753,-2.7314,-2.7142,-2.6999,-2.6682,-2.6236,-2.545,-2.4953,-2.4406,-2.3801,-2.3352,-2.2821,-2.2202,-2.187,-2.1484,-2.1072,-2.0464,-2.0223,-2.0135,-2.0047,-1.9879,-1.9718,-1.9735,-1.9588,-1.936,-1.9308,-1.9286,-1.9279,-1.9272,-1.9272,-1.9272,-1.9272,-1.9272,-1.9272,-1.9272,-1.9272,-1.9272,-1.9272,-1.9272,-1.9272,-1.9272,-1.9272,-1.9272,-1.9272,-1.9272,-1.9272,-1.9272,-1.9191,-1.9111,-1.9089,-1.8986,-1.8789,-1.8657,-1.8555,-1.8394,-1.8233,-1.7735,-1.7244,-1.6436,-1.5532,-1.4635,-1.3858,-1.3298,-1.2958,-1.2807,-1.2662,-1.2379,-1.2309,-1.2258,-1.2134,-1.2021,-1.1735,-1.1436,-1.1324,-1.1277,-1.1022,-1.0737,-1.0367,-3.3418,-3.3408,-3.3203,-3.2998,-3.2744,-3.2363,-3.1914,-3.1514,-3.1299,-3.1084,-3.0937,-3.0898,-3.0898,-3.0898,-3.0898,-3.0898,-3.0898,-3.0898,-3.0898,-3.0898,-3.0869,-3.0801,-3.0498,-3.0332,-3.0,-2.9492,-2.8975,-2.8496,-2.831,-2.8301,-2.8301,-2.8301,-2.8301,-2.8184,-2.796,-2.7906,-2.7638,-2.7269,-2.7043,-2.689,-2.6736,-2.6354,-2.5734,-2.5119,-2.4518,-2.3968,-2.336,-2.2965,-2.2513,-2.2002,-2.1782,-2.1497,-2.1229,-2.0947,-2.0655,-2.0501,-2.0347,-2.0194,-2.004,-1.9996,-1.9864,-1.9586,-1.958,-1.9485,-1.9382,-1.9272,-1.9272,-1.9272,-1.9272,-1.9272,-1.9272,-1.9272,-1.9272,-1.9272,-1.9272,-1.9272,-1.9272,-1.9272,-1.9272,-1.9272,-1.9272,-1.9272,-1.9272,-1.9272,-1.9272,-1.9272,-1.9272,-1.9169,-1.9016,-1.895,-1.8862,-1.8672,-1.8432,-1.7938,-1.738,-1.6551,-1.568,-1.4728,-1.3868,-1.3305,-1.2824,-1.2635,-1.2403,-1.2169,-1.2214,-1.2321,-1.2172,-1.1952,-1.1713,-1.1491,-1.1348,-1.1221,-1.0924,-1.0597,-1.0255,-3.3418,-3.3418,-3.3418,-3.3223,-3.293,-3.2822,-3.2422,-3.1826,-3.1582,-3.1328,-3.1035,-3.0937,-3.0898,-3.0898,-3.0898,-3.0898,-3.0898,-3.0898,-3.0898,-3.0898,-3.0898,-3.0879,-3.0771,-3.0566,-3.0264,-2.999,-2.958,-2.8906,-2.8516,-2.834,-2.8301,-2.8237,-2.8237,-2.8077,-2.7799,-2.7638,-2.7377,-2.7107,-2.6836,-2.6673,-2.6354,-2.5852,-2.5293,-2.474,-2.408,-2.3464,-2.2965,-2.257,-2.223,-2.1839,-2.1618,-2.1439,-2.1268,-2.1211,-2.1086,-2.083,-2.0567,-2.0387,-2.0285,-2.0278,-2.0201,-1.9894,-1.9864,-1.9689,-1.9507,-1.9352,-1.9272,-1.9272,-1.9272,-1.9272,-1.9272,-1.9272,-1.9272,-1.9272,-1.9272,-1.9272,-1.9272,-1.9272,-1.9272,-1.9272,-1.9272,-1.9272,-1.9272,-1.9272,-1.9272,-1.9272,-1.9272,-1.9272,-1.9155,-1.9184,-1.9081,-1.8891,-1.86,-1.8168,-1.7519,-1.6794,-1.5907,-1.4973,-1.4022,-1.3215,-1.2714,-1.2325,-1.2132,-1.2052,-1.2226,-1.2288,-1.2103,-1.193,-1.1722,-1.1532,-1.1368,-1.1109,-1.0809,-1.0595,-1.0341,-3.3418,-3.3418,-3.3418,-3.3389,-3.3281,-3.2959,-3.2764,-3.2529,-3.1865,-3.1504,-3.1367,-3.1074,-3.0928,-3.0898,-3.0898,-3.0898,-3.0898,-3.0898,-3.0898,-3.0898,-3.0898,-3.0898,-3.0898,-3.0859,-3.0547,-3.0303,-3.0078,-2.958,-2.8994,-2.8555,-2.831,-2.831,-2.8077,-2.7799,-2.7539,-2.7314,-2.6944,-2.6636,-2.6354,-2.6072,-2.5743,-2.5238,-2.4795,-2.4248,-2.3641,-2.3014,-2.2619,-2.2173,-2.1782,-2.1668,-2.1382,-2.1268,-2.1211,-2.1211,-2.1196,-2.1152,-2.1086,-2.0976,-2.0728,-2.0662,-2.053,-2.0267,-2.0186,-2.0011,-1.9755,-1.9514,-1.933,-1.9272,-1.9279,-1.9272,-1.9272,-1.9272,-1.9272,-1.9272,-1.9272,-1.9272,-1.9272,-1.9272,-1.9272,-1.9272,-1.9272,-1.9272,-1.9272,-1.9272,-1.9272,-1.9272,-1.9272,-1.9272,-1.9272,-1.9272,-1.9272,-1.9081,-1.8811,-1.8382,-1.7777,-1.7035,-1.6111,-1.5204,-1.4153,-1.322,-1.2681,-1.2277,-1.2041,-1.2011,-1.2152,-1.2132,-1.19,-1.1786,-1.1707,-1.1542,-1.13,-1.1017,-1.0718,-1.0537,-1.038,-3.3418,-3.3418,-3.3418,-3.3418,-3.3398,-3.3213,-3.3008,-3.2744,-3.2412,-3.1963,-3.1553,-3.1348,-3.1123,-3.0937,-3.0898,-3.0898,-3.0898,-3.0898,-3.0898,-3.0898,-3.0898,-3.0898,-3.0898,-3.0889,-3.0723,-3.0576,-3.0322,-3.0049,-2.9502,-2.8975,-2.8564,-2.8267,-2.8014,-2.7745,-2.7377,-2.7098,-2.6727,-2.6345,-2.5844,-2.545,-2.5174,-2.474,-2.4239,-2.3632,-2.3191,-2.2675,-2.2173,-2.1896,-2.1554,-2.1439,-2.1268,-2.1211,-2.1211,-2.1211,-2.1203,-2.1203,-2.1203,-2.1123,-2.102,-2.0991,-2.0808,-2.0611,-2.0431,-2.0307,-2.0062,-1.9755,-1.9603,-1.955,-1.9374,-1.9294,-1.9279,-1.9272,-1.9272,-1.9272,-1.9272,-1.9272,-1.9272,-1.9272,-1.9272,-1.9272,-1.9272,-1.9272,-1.9272,-1.9272,-1.9272,-1.9272,-1.9272,-1.9272,-1.9272,-1.9272,-1.9272,-1.925,-1.8955,-1.8624,-1.8025,-1.7367,-1.6356,-1.539,-1.4185,-1.3324,-1.2704,-1.2264,-1.1979,-1.1707,-1.1673,-1.1644,-1.1614,-1.1609,-1.1599,-1.1424,-1.1255,-1.1015,-1.0787,-1.0575,-1.0345,-3.3418,-3.3418,-3.3418,-3.3418,-3.3418,-3.3418,-3.3252,-3.2969,-3.2812,-3.2363,-3.1768,-3.1445,-3.1143,-3.0947,-3.0898,-3.0898,-3.0898,-3.0898,-3.0898,-3.0898,-3.0898,-3.0898,-3.0898,-3.0889,-3.0889,-3.0889,-3.0586,-3.0293,-3.0,-2.9524,-2.8868,-2.8359,-2.791,-2.7593,-2.726,-2.6881,-2.64,-2.5734,-2.534,-2.4953,-2.4573,-2.42,-2.3641,-2.3135,-2.274,-2.2343,-2.1839,-2.1561,-2.1382,-2.1268,-2.1211,-2.1211,-2.1211,-2.1211,-2.1211,-2.1211,-2.1211,-2.1203,-2.1167,-2.1145,-2.1072,-2.0918,-2.0735,-2.0526,-2.0329,-2.0077,-1.9806,-1.9793,-1.9625,-1.9403,-1.9294,-1.9272,-1.9272,-1.9272,-1.9272,-1.9272,-1.9272,-1.9272,-1.9272,-1.9272,-1.9272,-1.9272,-1.9272,-1.9272,-1.9272,-1.9272,-1.9272,-1.9272,-1.9272,-1.9272,-1.9279,-1.9279,-1.8885,-1.853,-1.8057,-1.7382,-1.6502,-1.5517,-1.4355,-1.3469,-1.2833,-1.2208,-1.1822,-1.1556,-1.1368,-1.1404,-1.1553,-1.152,-1.1438,-1.1302,-1.1215,-1.1138,-1.0971,-1.0697,-1.0368,-3.3418,-3.3418,-3.3418,-3.3418,-3.3418,-3.3418,-3.3398,-3.3291,-3.2959,-3.2559,-3.2002,-3.1367,-3.1016,-3.0898,-3.0898,-3.0898,-3.0898,-3.0898,-3.0898,-3.0898,-3.0898,-3.0898,-3.0898,-3.0898,-3.0898,-3.0898,-3.0752,-3.0537,-3.0236,-2.9813,-2.9205,-2.8535,-2.7908,-2.7418,-2.6935,-2.6445,-2.5835,-2.5174,-2.4787,-2.4398,-2.396,-2.3464,-2.3078,-2.2845,-2.223,-2.1725,-2.1668,-2.1439,-2.1268,-2.1211,-2.1211,-2.1211,-2.1211,-2.1211,-2.1203,-2.1137,-2.113,-2.1101,-2.1064,-2.1152,-2.1196,-2.1094,-2.0947,-2.0715,-2.0684,-2.0336,-2.0106,-1.9879,-1.9755,-1.961,-1.9456,-1.9272,-1.9272,-1.9272,-1.9272,-1.9272,-1.9272,-1.9272,-1.9272,-1.9272,-1.9272,-1.9272,-1.9272,-1.9272,-1.9272,-1.9272,-1.9272,-1.9272,-1.9272,-1.9272,-1.9279,-1.9175,-1.8743,-1.8363,-1.8003,-1.7246,-1.6339,-1.544,-1.4428,-1.3651,-1.2953,-1.2405,-1.1732,-1.1609,-1.1472,-1.1482,-1.1394,-1.1302,-1.1252,-1.1247,-1.1175,-1.1044,-1.0844,-1.0573,-1.0329,-3.3662,-3.3418,-3.3418,-3.3418,-3.3418,-3.3418,-3.3418,-3.3398,-3.3252,-3.2783,-3.2139,-3.1553,-3.1133,-3.0967,-3.0898,-3.0898,-3.0898,-3.0898,-3.0898,-3.0898,-3.0898,-3.0898,-3.0898,-3.0898,-3.0898,-3.0889,-3.0879,-3.0723,-3.0345,-2.993,-2.9384,-2.8653,-2.7929,-2.7369,-2.6874,-2.6072,-2.534,-2.4723,-2.4119,-2.3568,-2.3352,-2.2788,-2.2343,-2.2116,-2.2002,-2.1554,-2.1382,-2.1268,-2.1211,-2.1211,-2.1211,-2.1211,-2.1211,-2.1211,-2.113,-2.0998,-2.0984,-2.0896,-2.0823,-2.0984,-2.1203,-2.1196,-2.1094,-2.0984,-2.0889,-2.0691,-2.053,-2.0303,-1.9945,-1.972,-1.9661,-1.9403,-1.9272,-1.9272,-1.9272,-1.9272,-1.9272,-1.9272,-1.9272,-1.9272,-1.9272,-1.9272,-1.9272,-1.9272,-1.9272,-1.9272,-1.9272,-1.9272,-1.9272,-1.9279,-1.9227,-1.9071,-1.8646,-1.8167,-1.7799,-1.7008,-1.6158,-1.531,-1.4404,-1.3677,-1.2926,-1.2315,-1.1765,-1.1657,-1.1474,-1.1325,-1.1191,-1.1063,-1.1065,-1.11,-1.0998,-1.0846,-1.0654,-1.0462,-1.0216,-3.3818,-3.3437,-3.3418,-3.3418,-3.3418,-3.3418,-3.3418,-3.3418,-3.3408,-3.3037,-3.2314,-3.1787,-3.1367,-3.1113,-3.0928,-3.0898,-3.0898,-3.0898,-3.0898,-3.0898,-3.0898,-3.0898,-3.0898,-3.0898,-3.0898,-3.0889,-3.0762,-3.0548,-3.0392,-2.99,-2.9392,-2.8763,-2.8048,-2.7493,-2.6701,-2.5769,-2.4842,-2.4119,-2.356,-2.2845,-2.2732,-2.2286,-2.1945,-2.1725,-2.1603,-2.1432,-2.1268,-2.1211,-2.1211,-2.1211,-2.1211,-2.1211,-2.1211,-2.1181,-2.1079,-2.0947,-2.0837,-2.0735,-2.0706,-2.0669,-2.0933,-2.083,-2.0845,-2.0837,-2.0859,-2.0706,-2.0442,-2.0289,-1.9959,-1.9786,-1.9727,-1.9389,-1.9279,-1.9272,-1.9272,-1.9272,-1.9272,-1.9272,-1.9272,-1.9272,-1.9272,-1.9272,-1.9272,-1.9272,-1.9272,-1.9272,-1.9272,-1.9272,-1.9272,-1.9227,-1.9175,-1.8966,-1.8646,-1.8115,-1.7589,-1.6796,-1.5998,-1.5083,-1.4234,-1.3503,-1.2782,-1.2173,-1.168,-1.1492,-1.1322,-1.1143,-1.0987,-1.0834,-1.0896,-1.1002,-1.0855,-1.0609,-1.0511,-1.0314,-1.0167,-3.3838,-3.3437,-3.3428,-3.3418,-3.3418,-3.3418,-3.3418,-3.3418,-3.3408,-3.3154,-3.2656,-3.1953,-3.1553,-3.1396,-3.1113,-3.0967,-3.0898,-3.0898,-3.0898,-3.0898,-3.0898,-3.0898,-3.0898,-3.0898,-3.0898,-3.082,-3.0635,-3.045,-3.0333,-2.9827,-2.9278,-2.8664,-2.7973,-2.7278,-2.6592,-2.5459,-2.4248,-2.3239,-2.307,-2.2619,-2.2222,-2.1896,-2.1668,-2.1554,-2.1432,-2.1268,-2.1211,-2.1211,-2.1211,-2.1211,-2.1211,-2.1211,-2.1211,-2.1211,-2.1159,-2.1101,-2.1108,-2.1108,-2.1101,-2.0589,-2.0428,-2.0402,-2.0497,-2.0387,-2.0285,-2.0205,-2.0237,-2.0142,-1.9896,-1.9683,-1.9455,-1.9301,-1.9286,-1.9272,-1.9272,-1.9272,-1.9272,-1.9272,-1.9272,-1.9272,-1.9272,-1.9272,-1.9272,-1.9272,-1.9272,-1.9272,-1.9272,-1.9272,-1.922,-1.9063,-1.8966,-1.8653,-1.8331,-1.7799,-1.7219,-1.6636,-1.5838,-1.4874,-1.3992,-1.3136,-1.2534,-1.1935,-1.1587,-1.1349,-1.1104,-1.0879,-1.0716,-1.054,-1.0573,-1.056,-1.0511,-1.0364,-1.0314,-1.0216,-1.0019,-3.4248,-3.3828,-3.3545,-3.3418,-3.3418,-3.3418,-3.3418,-3.3418,-3.3389,-3.3193,-3.2822,-3.2441,-3.1992,-3.1621,-3.1357,-3.1143,-3.0918,-3.0898,-3.0898,-3.0898,-3.0898,-3.0898,-3.0898,-3.0898,-3.0898,-3.083,-3.0577,-3.0206,-3.0039,-2.9618,-2.9116,-2.8528,-2.7546,-2.6586,-2.5739,-2.4738,-2.3753,-2.307,-2.2619,-2.223,-2.1831,-2.1554,-2.1382,-2.1382,-2.1268,-2.1211,-2.1211,-2.1211,-2.1211,-2.1211,-2.1211,-2.1211,-2.1211,-2.1211,-2.1115,-2.0984,-2.0896,-2.0772,-2.0633,-2.0325,-2.0377,-2.0351,-2.0292,-2.0197,-2.0183,-2.0183,-2.0164,-2.0047,-1.9903,-1.9757,-1.9683,-1.9381,-1.9308,-1.9279,-1.9272,-1.9272,-1.9272,-1.9272,-1.9272,-1.9272,-1.9272,-1.9272,-1.9272,-1.9227,-1.9175,-1.9071,-1.9018,-1.9018,-1.8966,-1.875,-1.8534,-1.8279,-1.7905,-1.7378,-1.6796,-1.6158,-1.5357,-1.439,-1.3437,-1.2572,-1.207,-1.1679,-1.1296,-1.1011,-1.0814,-1.0676,-1.0493,-1.027,-1.0115,-1.0023,-1.0072,-1.0072,-0.9969,-0.9871,-0.9772,-3.4453,-3.4033,-3.3603,-3.3418,-3.3418,-3.3418,-3.3418,-3.3418,-3.3408,-3.3252,-3.3018,-3.2861,-3.2422,-3.1865,-3.1553,-3.1289,-3.0918,-3.0898,-3.0898,-3.0898,-3.0898,-3.0898,-3.0898,-3.0898,-3.0898,-3.0772,-3.0401,-3.003,-2.9736,-2.9331,-2.8719,-2.7845,-2.6926,-2.5991,-2.5119,-2.4245,-2.3432,-2.2753,-2.223,-2.1831,-2.1546,-2.1325,-2.1211,-2.1211,-2.1211,-2.1211,-2.1211,-2.1211,-2.1211,-2.1211,-2.1211,-2.1211,-2.1211,-2.1174,-2.1101,-2.0947,-2.0874,-2.0794,-2.0691,-2.0424,-2.0567,-2.0655,-2.0358,-2.0205,-2.0183,-2.0183,-2.0183,-2.0135,-1.993,-1.9881,-1.9779,-1.9522,-1.936,-1.933,-1.933,-1.933,-1.933,-1.9338,-1.9323,-1.9316,-1.9227,-1.9227,-1.922,-1.9175,-1.9071,-1.8921,-1.8712,-1.8712,-1.8705,-1.8436,-1.8167,-1.7905,-1.7589,-1.7113,-1.6424,-1.5678,-1.4821,-1.3856,-1.3004,-1.2203,-1.1769,-1.1438,-1.105,-1.0711,-1.0535,-1.0433,-1.0242,-1.0045,-0.9904,-0.9785,-0.9826,-0.9727,-0.9628,-0.9624,-0.9624,-3.4463,-3.4053,-3.3603,-3.3364,-3.3418,-3.3418,-3.3418,-3.3418,-3.3418,-3.3408,-3.3369,-3.2988,-3.2617,-3.2178,-3.1758,-3.1357,-3.0996,-3.0937,-3.0898,-3.0898,-3.0898,-3.0898,-3.0898,-3.0898,-3.0889,-3.0645,-3.0284,-2.9795,-2.9372,-2.8728,-2.802,-2.7185,-2.6388,-2.5522,-2.4693,-2.3885,-2.3071,-2.2395,-2.1976,-2.1626,-2.1325,-2.1268,-2.1211,-2.1211,-2.1211,-2.1211,-2.1211,-2.1211,-2.1211,-2.1211,-2.1211,-2.1211,-2.1211,-2.1211,-2.1211,-2.1196,-2.1174,-2.113,-2.1064,-2.0823,-2.0772,-2.0801,-2.0489,-2.03,-2.0183,-2.0183,-2.0183,-2.0179,-2.0018,-1.9908,-1.9837,-1.9616,-1.9447,-1.944,-1.9433,-1.9433,-1.9425,-1.9418,-1.9403,-1.9315,-1.9197,-1.9123,-1.9063,-1.9011,-1.881,-1.86,-1.8443,-1.8286,-1.8279,-1.8174,-1.7905,-1.7641,-1.7325,-1.6902,-1.6205,-1.5298,-1.4444,-1.3532,-1.2767,-1.2023,-1.1643,-1.1212,-1.0913,-1.0575,-1.033,-1.0186,-1.007,-0.9888,-0.9718,-0.9652,-0.9686,-0.9677,-0.9624,-0.9624,-0.9624,-3.4058,-3.4081,-3.3357,-3.3175,-3.3364,-3.3418,-3.3418,-3.3418,-3.3418,-3.3418,-3.3408,-3.3291,-3.2959,-3.2588,-3.2178,-3.1748,-3.1357,-3.1064,-3.0928,-3.0898,-3.0898,-3.0898,-3.0898,-3.0889,-3.0762,-3.046,-3.0098,-2.9568,-2.9025,-2.825,-2.747,-2.671,-2.6004,-2.5165,-2.4354,-2.3526,-2.2845,-2.2283,-2.1862,-2.1571,-2.129,-2.1225,-2.1218,-2.1211,-2.1211,-2.1211,-2.1211,-2.1211,-2.1211,-2.1211,-2.1211,-2.1211,-2.1211,-2.1211,-2.1211,-2.1211,-2.1203,-2.1196,-2.1196,-2.1123,-2.105,-2.1028,-2.0925,-2.057,-2.0365,-2.0249,-2.0263,-2.0296,-2.0223,-2.0135,-2.0077,-1.993,-1.976,-1.973,-1.9677,-1.9677,-1.9677,-1.9609,-1.9527,-1.9276,-1.9151,-1.8941,-1.8874,-1.8691,-1.8489,-1.8279,-1.8122,-1.801,-1.7852,-1.7799,-1.7641,-1.7325,-1.6955,-1.6583,-1.5832,-1.497,-1.4116,-1.3261,-1.2495,-1.1837,-1.137,-1.0992,-1.0716,-1.051,-1.0327,-1.0136,-0.9963,-0.9827,-0.9799,-0.9669,-0.9636,-0.9632,-0.9624,-0.9624,-0.9624,-3.3956,-3.3926,-3.3276,-3.3075,-3.3184,-3.3364,-3.3355,-3.3238,-3.3355,-3.3418,-3.3418,-3.3408,-3.3193,-3.2793,-3.249,-3.209,-3.1494,-3.1289,-3.1103,-3.0898,-3.0898,-3.0898,-3.0898,-3.083,-3.0704,-3.0392,-2.9912,-2.9381,-2.8668,-2.7702,-2.6805,-2.6214,-2.561,-2.4923,-2.4184,-2.3445,-2.2909,-2.2394,-2.195,-2.1648,-2.1422,-2.1284,-2.1218,-2.1211,-2.1211,-2.1211,-2.1211,-2.1211,-2.1211,-2.1211,-2.1211,-2.1211,-2.1211,-2.1211,-2.1211,-2.1211,-2.1211,-2.1211,-2.1203,-2.1203,-2.1203,-2.1211,-2.1203,-2.1006,-2.0837,-2.072,-2.0706,-2.0684,-2.0537,-2.0365,-2.0314,-2.0263,-2.0157,-2.0052,-1.9997,-1.9942,-1.988,-1.9819,-1.9588,-1.9276,-1.9052,-1.8755,-1.8583,-1.8394,-1.822,-1.8069,-1.7957,-1.7799,-1.7641,-1.7483,-1.7272,-1.7008,-1.6583,-1.6164,-1.5405,-1.4702,-1.39,-1.3093,-1.2278,-1.1673,-1.1181,-1.0891,-1.0728,-1.0575,-1.0404,-1.0237,-1.0099,-1.0018,-0.9961,-0.9827,-0.9713,-0.9701,-0.9681,-0.9624,-0.9624,-3.3983,-3.3615,-3.317,-3.2918,-3.2886,-3.3175,-3.3111,-3.2921,-3.3111,-3.3301,-3.3292,-3.3301,-3.3034,-3.27,-3.2506,-3.2118,-3.1634,-3.1333,-3.1023,-3.0869,-3.0713,-3.0655,-3.0713,-3.0772,-3.046,-3.0147,-2.9667,-2.8966,-2.8182,-2.7159,-2.6205,-2.5549,-2.5173,-2.4617,-2.3939,-2.3396,-2.2919,-2.2671,-2.2178,-2.1847,-2.1664,-2.143,-2.1233,-2.1211,-2.1211,-2.1211,-2.1211,-2.1211,-2.1211,-2.1211,-2.1211,-2.1211,-2.1211,-2.1211,-2.1211,-2.1211,-2.1211,-2.1146,-2.1089,-2.1089,-2.1031,-2.1089,-2.1146,-2.0981,-2.0822,-2.0949,-2.0984,-2.0898,-2.0774,-2.0589,-2.0489,-2.0368,-2.0206,-2.0129,-2.0073,-2.0017,-1.9954,-1.9779,-1.9521,-1.9201,-1.8925,-1.8698,-1.8555,-1.8379,-1.8148,-1.796,-1.7799,-1.7635,-1.743,-1.7279,-1.706,-1.6736,-1.6371,-1.5897,-1.525,-1.4546,-1.3792,-1.298,-1.211,-1.1514,-1.1017,-1.0857,-1.0747,-1.0603,-1.0513,-1.0456,-1.0355,-1.0249,-1.0123,-0.9981,-0.988,-0.9815,-0.9758,-0.9697,-0.964,-3.3378,-3.3189,-3.2737,-3.2497,-3.2549,-3.2613,-3.2613,-3.2549,-3.2603,-3.2667,-3.2603,-3.2667,-3.2629,-3.2539,-3.2262,-3.1937,-3.1736,-3.1204,-3.0768,-3.056,-3.0388,-3.0294,-3.0176,-3.0225,-2.9981,-2.9686,-2.9203,-2.8439,-2.7418,-2.6388,-2.5664,-2.5173,-2.4672,-2.4108,-2.3736,-2.3261,-2.2992,-2.2893,-2.2601,-2.2118,-2.1796,-2.165,-2.1503,-2.132,-2.1225,-2.1211,-2.1211,-2.1211,-2.1211,-2.1211,-2.1211,-2.1211,-2.1211,-2.1211,-2.1211,-2.1211,-2.1146,-2.1024,-2.091,-2.0852,-2.0795,-2.0622,-2.0565,-2.0507,-2.0615,-2.0974,-2.1131,-2.1052,-2.0959,-2.0787,-2.0622,-2.0388,-2.0231,-2.0175,-2.0118,-2.0054,-1.9997,-1.9695,-1.9381,-1.9187,-1.8863,-1.8693,-1.8605,-1.8401,-1.8117,-1.7889,-1.7715,-1.7543,-1.7292,-1.7086,-1.6902,-1.663,-1.6211,-1.5731,-1.5089,-1.439,-1.3635,-1.2871,-1.2001,-1.1404,-1.0911,-1.0802,-1.0692,-1.0688,-1.0635,-1.0566,-1.0497,-1.037,-1.029,-1.0152,-1.0075,-1.0018,-0.9916,-0.9843,-0.9742,-3.3274,-3.2848,-3.2384,-3.2166,-3.223,-3.2358,-3.2294,-3.2166,-3.2166,-3.2102,-3.2029,-3.223,-3.2422,-3.2422,-3.2166,-3.1866,-3.1677,-3.1124,-3.0797,-3.0462,-3.0137,-2.9979,-2.9863,-2.9736,-2.9509,-2.9213,-2.8379,-2.7487,-2.6527,-2.5786,-2.5173,-2.4541,-2.3984,-2.3673,-2.3362,-2.3168,-2.3043,-2.3084,-2.2893,-2.2564,-2.2067,-2.1869,-2.1664,-2.1445,-2.1313,-2.1262,-2.1211,-2.1211,-2.1211,-2.1211,-2.1211,-2.1211,-2.1146,-2.1031,-2.0967,-2.091,-2.0852,-2.0737,-2.0615,-2.0493,-2.0443,-2.027,-2.027,-2.0328,-2.0385,-2.068,-2.068,-2.0608,-2.0601,-2.0444,-2.0444,-2.0337,-2.0158,-2.0044,-1.9936,-1.9871,-1.9757,-1.953,-1.9405,-1.93,-1.9068,-1.8816,-1.8709,-1.8541,-1.8277,-1.8238,-1.7976,-1.7682,-1.7336,-1.6972,-1.6781,-1.6418,-1.5998,-1.5517,-1.4869,-1.4175,-1.3472,-1.2659,-1.1891,-1.14,-1.0911,-1.0802,-1.0692,-1.0688,-1.068,-1.0651,-1.0586,-1.053,-1.0403,-1.0322,-1.0266,-1.0225,-1.0111,-0.9998,-0.9908,-3.3331,-3.26,-3.2125,-3.1892,-3.1855,-3.2166,-3.2102,-3.1846,-3.1855,-3.1653,-3.157,-3.2029,-3.223,-3.2294,-3.2275,-3.203,-3.1665,-3.1146,-3.0804,-3.04,-3.0005,-2.9758,-2.9537,-2.939,-2.9035,-2.8439,-2.7608,-2.664,-2.5672,-2.5111,-2.4487,-2.3736,-2.3417,-2.33,-2.3043,-2.2988,-2.2926,-2.2926,-2.2886,-2.2868,-2.2481,-2.2132,-2.1913,-2.1693,-2.1467,-2.1291,-2.1269,-2.1168,-2.1168,-2.1089,-2.1031,-2.0974,-2.0917,-2.0795,-2.073,-2.0615,-2.0558,-2.0385,-2.027,-2.0213,-2.0162,-2.0162,-2.0162,-2.0155,-2.0155,-2.0162,-2.022,-2.022,-2.022,-2.022,-2.022,-2.0162,-1.9931,-1.9815,-1.9758,-1.97,-1.9526,-1.941,-1.9403,-1.9397,-1.9243,-1.8978,-1.8858,-1.8698,-1.8571,-1.8484,-1.8288,-1.7952,-1.757,-1.7139,-1.6769,-1.6267,-1.5737,-1.5196,-1.4708,-1.4067,-1.3369,-1.255,-1.1787,-1.1291,-1.0907,-1.0802,-1.0692,-1.0692,-1.068,-1.0672,-1.0672,-1.0639,-1.0558,-1.0473,-1.0465,-1.0412,-1.0282,-1.0172,-1.0095,-3.334,-3.2551,-3.214,-3.1828,-3.1543,-3.158,-3.1506,-3.1506,-3.1515,-3.1451,-3.1442,-3.1506,-3.157,-3.1644,-3.157,-3.1524,-3.1531,-3.1097,-3.0692,-3.0251,-2.9883,-2.9508,-2.9136,-2.8783,-2.8217,-2.7547,-2.6943,-2.6144,-2.5234,-2.461,-2.3922,-2.323,-2.2856,-2.2675,-2.2362,-2.2362,-2.2487,-2.2613,-2.2738,-2.2659,-2.2842,-2.2554,-2.2337,-2.2074,-2.1781,-2.1657,-2.1489,-2.1025,-2.0874,-2.0723,-2.0615,-2.0565,-2.0507,-2.045,-2.0385,-2.0328,-2.0213,-2.0097,-1.9989,-1.9931,-1.9873,-1.9707,-1.9707,-1.9707,-1.9707,-1.9707,-1.9707,-1.9707,-1.9758,-1.9873,-1.9873,-1.9707,-1.9533,-1.9533,-1.9533,-1.9533,-1.9417,-1.9417,-1.9417,-1.9417,-1.937,-1.9219,-1.9192,-1.9032,-1.8865,-1.8751,-1.8591,-1.8189,-1.7602,-1.7217,-1.6848,-1.6204,-1.5582,-1.5089,-1.4606,-1.3959,-1.3261,-1.2441,-1.1678,-1.1185,-1.0857,-1.0747,-1.0692,-1.0692,-1.0692,-1.0684,-1.0692,-1.0692,-1.0668,-1.0603,-1.0635,-1.0595,-1.0461,-1.0355,-1.0282]},{"header":{"parameterUnit":"m.s-1","parameterCategory":1,"la1":31.0,"la2":29.5877,"lo1":-88.7671,"lo2":-86.6584,"dy":0.0162,"dx":0.0185,"nx":115,"ny":88,"refTime":"2023-05-08T06:00:00:Z","depth":0,"parameterNumber":3,"parameterNumberName":"V-component_of_WINDS"},"data":[0.0,0.0,0.0,0.0,0.0,0.0,0.0,0.0,0.0,0.0,0.0,0.0,0.0,0.0,0.0,0.0,0.0,0.0,0.0,0.0,0.0,0.0,0.0,0.0,0.0,0.0,0.0,0.0,0.0,0.0,0.0,0.0,0.0,0.0,0.0,0.0,0.0,0.0,0.0,0.0,0.0,0.0,0.0,0.0,0.0,0.0,0.0,0.0,0.0,0.0,0.0,0.0,0.0,0.0,0.0,0.0,0.0,0.0,0.0,0.0,0.0,0.0,0.0,0.0,0.0,0.0,0.0,0.0,0.0,0.0,0.0,0.0,0.0,0.0,0.0,0.0,0.0,0.0,0.0,0.0,0.0,0.0,0.0,0.0,0.0,0.0,0.0,0.0,0.0,0.0,0.0,0.0,0.0,0.0,0.0,0.0,0.0,0.0,0.0,0.0,0.0,0.0,0.0,0.0,0.0,0.0,0.0,0.0,0.0,0.0,0.0,0.0,0.0,0.0,0.0,0.0,0.0,0.0,0.0,0.0,0.0,0.0,0.0,0.0,0.0,0.0,0.0,0.0,0.0,0.0,0.0,0.0,0.0,0.0,0.0,0.0,0.0,0.0,0.0,0.0,0.0,0.0,0.0,0.0,0.0,0.0,0.0,0.0,0.0,0.0,0.0,0.0,0.0,0.0,0.0,0.0,0.0,0.0,0.0,0.0,0.0,0.0,0.0,0.0,0.0,0.0,0.0,0.0,0.0,0.0,0.0,0.0,0.0,0.0,0.0,0.0,0.0,0.0,0.0,0.0,0.0,0.0,0.0,0.0,0.0,0.0,0.0,0.0,0.0,0.0,0.0,0.0,0.0,0.0,0.0,0.0,0.0,0.0,0.0,0.0,0.0,0.0,0.0,0.0,0.0,0.0,0.0,0.0,0.0,0.0,0.0,0.0,0.0,0.0,0.0,0.0,0.0,0.0,0.0,0.0,0.0,0.0,0.0,0.0,0.0,0.0,0.0,0.0,0.0,0.0,0.0,0.0,0.0,0.0,0.0,0.0,0.0,0.0,0.0,0.0,0.0,0.0,0.0,0.0,0.0,0.0,0.0,0.0,0.0,0.0,0.0,0.0,0.0,0.0,0.0,0.0,0.0,0.0,0.0,0.0,0.0,0.0,0.0,0.0,0.0,0.0,0.0,0.0,0.0,0.0,0.0,0.0,0.0,0.0,0.0,0.0,0.0,0.0,0.0,0.0,0.0,0.0,0.0,0.0,0.0,0.0,0.0,0.0,0.0,0.0,0.0,0.0,0.0,0.0,0.0,0.0,0.0,0.0,0.0,0.0,0.0,0.0,0.0,0.0,0.0,0.0,0.0,0.0,0.0,0.0,0.0,0.0,0.0,0.0,0.0,0.0,0.0,0.0,0.0,0.0,0.0,0.0,0.0,0.0,0.0,0.0,0.0,0.0,0.0,0.0,0.0,0.0,0.0,0.0,0.0,0.0,0.0,0.0,0.0,0.0,0.0,0.0,0.0,0.0,0.0,0.0,0.0,0.0,0.0,0.0,0.0,0.0,0.0,0.0,0.0,0.0,0.0,0.0,0.0,0.0,0.0,0.0,0.0,0.0,0.0,0.0,0.0,0.0,0.0,0.0,0.0,0.0,0.0,0.0,0.0,0.0,0.0,0.0,0.0,0.0,0.0,0.0,0.0,0.0,0.0,0.0,0.0,0.0,0.0,0.0,0.0,0.0,0.0,0.0,0.0,0.0,0.0,0.0,0.0,0.0,0.0,0.0,0.0,0.0,0.0,0.0,0.0,0.0,0.0,0.0,0.0,0.0,0.0,0.0,0.0,0.0,0.0,0.0,0.0,0.0,0.0,0.0,0.0,0.0,0.0,0.0,0.0,0.0,0.0,0.0,0.0,0.0,0.0,0.0,0.0,0.0,0.0,0.0,0.0,0.0,0.0,0.0,0.0,0.0,0.0,0.0,0.0,0.0,0.0,0.0,0.0,0.0,0.0,0.0,0.0,0.0,0.0,0.0,0.0,0.0,0.0,0.0,0.0,0.0,0.0,0.0,0.0,0.0,0.0,0.0,0.0,0.0,0.0,0.0,0.0,0.0,0.0,0.0,0.0,0.0,0.0,0.0,0.0,0.0,0.0,0.0,0.0,0.0,0.0,0.0,0.0,0.0,0.0,0.0,0.0,0.0,0.0,0.0,0.0,0.0,0.0,0.0,0.0,0.0,0.0,0.0,0.0,0.0,0.0,0.0,0.0,0.0,0.0,0.0,0.0,0.0,0.0,0.0,0.0,0.0,0.0,0.0,0.0,0.0,0.0,0.0,0.0,0.0,0.0,0.0,0.0,0.0,0.0,0.0,0.0,0.0,0.0,0.0,0.0,0.0,0.0,0.0,0.0,0.0,0.0,0.0,0.0,0.0,0.0,0.0,0.0,0.0,0.0,0.0,0.0,0.0,0.0,0.0,0.0,0.0,0.0,0.0,0.0,0.0,0.0,0.0,0.0,0.0,0.0,0.0,0.0,0.0,0.0,0.0,0.0,0.0,0.0,0.0,0.0,0.0,0.0,0.0,0.0,0.0,0.0,0.0,0.0,0.0,0.0,0.0,0.0,0.0,0.0,0.0,0.0,0.0,0.0,0.0,0.0,0.0,0.0,0.0,0.0,0.0,0.0,0.0,0.0,0.0,0.0,0.0,0.0,0.0,0.0,0.0,0.0,0.0,0.0,0.0,0.0,0.0,0.0,0.0,0.0,0.0,0.0,0.0,0.0,0.0,0.0,0.0,0.0,0.0,0.0,0.0,0.0,0.0,0.0,0.0,0.0,0.0,0.0,0.0,0.0,0.0,0.0,0.0,0.0,0.0,0.0,0.0,0.0,0.0,0.0,0.0,0.0,0.0,0.0,0.0,0.0,0.0,0.0,0.0,0.0,0.0,0.0,0.0,0.0,0.0,0.0,0.0,0.0,0.0,0.0,0.0,0.0,0.0,0.0,0.0,0.0,0.0,0.0,0.0,0.0,0.0,0.0,0.0,0.0,0.0,0.0,0.0,0.0,0.0,0.0,0.0,0.0,0.0,0.0,0.0,0.0,0.0,0.0,0.0,0.0,0.0,0.0,0.0,0.0,0.0,0.0,0.0,0.0,0.0,0.0,0.0,0.0,0.0,0.0,0.0,0.0,0.0,0.0,0.0,0.0,0.0,0.0,0.0,0.0,0.0,0.0,0.0,0.0,0.0,0.0,0.0,0.0,0.0,0.0,0.0,0.0,0.0,0.0,0.0,0.0,0.0,0.0,0.0,0.0,0.0,0.0,0.0,0.0,0.0,0.0,0.0,0.0,0.0,0.0,0.0,0.0,0.0,0.0,0.0,0.0,0.0,0.0,0.0,0.0,0.0,0.0,0.0,0.0,0.0,0.0,0.0,0.0,0.0,0.0,0.0,0.0,0.0,0.0,0.0,0.0,0.0,0.0,0.0,0.0,0.0,0.0,0.0,0.0,0.0,0.0,0.0,0.0,0.0,0.0,0.0,0.0,0.0,0.0,0.0,0.0,0.0,0.0,0.0,0.0,0.0,0.0,0.0,0.0,0.0,0.0,0.0,0.0,0.0,0.0,0.0,0.0,0.0,0.0,0.0,0.0,0.0,0.0,0.0,0.0,0.0,0.0,0.0,0.0,0.0,0.0,0.0,0.0,0.0,0.0,0.0,0.0,0.0,0.0,0.0,0.0,0.0,0.0,0.0,0.0,0.0,0.0,0.0,0.0,0.0,0.0,0.0,0.0,0.0,0.0,0.0,0.0,0.0,0.0,0.0,0.0,0.0,0.0,0.0,0.0,0.0,0.0,0.0,0.0,0.0,0.0,0.0,0.0,0.0,0.0,0.0,0.0,0.0,0.0,0.0,0.0,0.0,0.0,0.0,0.0,0.0,0.0,0.0,0.0,0.0,0.0,0.0,0.0,0.0,0.0,0.0,0.0,0.0,0.0,0.0,0.0,0.0,0.0,0.0,0.0,0.0,0.0,0.0,0.0,0.0,0.0,0.0,0.0,0.0,0.0,0.0,0.0,0.0,0.0,0.0,0.0,0.0,0.0,0.0,0.0,0.0,0.0,0.0,0.0,0.0,0.0,0.0,0.0,0.0,0.0,0.0,0.0,0.0,0.0,0.0,0.0,0.0,0.0,0.0,0.0,0.0,0.0,0.0,0.0,0.0,0.0,0.0,0.0,0.0,0.0,0.0,0.0,0.0,0.0,0.0,0.0,0.0,0.0,0.0,1.5463,0.0,0.0,0.0,0.0,0.0,0.0,0.0,0.0,0.0,0.0,0.0,0.0,0.0,0.0,0.0,0.0,0.0,0.0,0.0,0.0,0.0,0.0,0.0,0.0,0.0,0.0,0.0,0.0,0.0,0.0,0.0,0.0,0.0,0.0,0.0,0.0,0.0,0.0,0.0,0.0,0.0,0.0,0.0,0.0,0.0,0.0,0.0,0.0,0.0,0.0,0.0,0.0,0.0,0.0,0.0,0.0,0.0,0.0,0.0,0.0,0.0,0.0,0.0,0.0,0.0,0.0,0.0,0.0,0.0,0.0,0.0,0.0,0.0,0.0,0.0,0.0,0.0,0.0,0.0,0.0,0.0,0.0,0.0,0.0,0.0,0.0,0.0,0.0,0.0,0.0,0.0,0.0,0.0,0.0,0.0,0.0,0.0,0.0,0.0,0.0,0.0,0.0,0.0,0.0,0.0,0.0,0.0,0.0,0.0,0.0,1.5774,1.5915,1.5638,1.5551,1.5697,0.0,0.0,0.0,0.0,0.0,0.0,0.0,0.0,0.0,0.0,0.0,0.0,0.0,0.0,0.0,0.0,0.0,0.0,0.0,0.0,0.0,0.0,0.0,0.0,0.0,0.0,0.0,0.0,0.0,0.0,0.0,0.0,0.0,0.0,0.0,0.0,0.0,0.0,0.0,0.0,0.0,0.0,0.0,0.0,0.0,0.0,0.0,0.0,0.0,0.0,0.0,0.0,0.0,0.0,0.0,0.0,0.0,0.0,0.0,0.0,0.0,0.0,0.0,0.0,0.0,0.0,0.0,0.0,0.0,0.0,0.0,0.0,0.0,0.0,0.0,0.0,0.0,0.0,0.0,0.0,0.0,0.0,0.0,0.0,0.0,0.0,0.0,0.0,0.0,0.0,0.0,0.0,0.0,0.0,0.0,0.0,0.0,0.0,0.0,0.0,0.0,0.0,0.0,0.0,0.0,0.0,0.0,0.0,0.0,0.0,0.0,0.0,1.6144,1.5933,1.5999,0.0,0.0,0.0,0.0,0.0,0.0,0.0,0.0,0.0,0.0,0.0,0.0,0.0,0.0,0.0,0.0,0.0,0.0,0.0,0.0,0.0,0.0,0.0,0.0,0.0,0.0,0.0,0.0,0.0,0.0,0.0,0.0,0.0,0.0,0.0,0.0,0.0,0.0,0.0,0.0,0.0,0.0,0.0,0.0,0.0,0.0,0.0,0.0,0.0,0.0,0.0,0.0,0.0,0.0,0.0,0.0,0.0,0.0,0.0,0.0,0.0,0.0,0.0,0.0,0.0,0.0,0.0,0.0,0.0,0.0,0.0,0.0,0.0,0.0,0.0,0.0,0.0,0.0,0.0,0.0,0.0,0.0,0.0,0.0,0.0,0.0,0.0,0.0,0.0,0.0,0.0,0.0,0.0,0.0,0.0,0.0,0.0,0.0,0.0,0.0,0.0,0.0,0.0,0.0,0.0,0.0,0.0,0.0,0.0,0.0,1.7403,1.6879,1.6864,0.0,1.6292,0.0,0.0,0.0,0.0,0.0,0.0,0.0,0.0,0.0,0.0,0.0,0.0,0.0,0.0,0.0,0.0,0.0,0.0,0.0,0.0,0.0,0.0,0.0,0.0,0.0,0.0,0.0,0.0,0.0,0.0,0.0,0.0,0.0,0.0,0.0,0.0,0.0,0.0,0.0,0.0,0.0,0.0,0.0,0.0,0.0,0.0,0.0,0.0,0.0,0.0,0.0,0.0,0.0,0.0,0.0,0.0,0.0,0.0,0.0,0.0,0.0,0.0,0.0,0.0,0.0,0.0,0.0,0.0,0.0,0.0,0.0,0.0,0.0,0.0,0.0,0.0,0.0,0.0,0.0,0.0,0.0,0.0,0.0,0.0,0.0,0.0,0.0,0.0,0.0,0.0,0.0,0.0,0.0,0.0,0.0,0.0,0.0,0.0,0.0,0.0,0.0,0.0,0.0,0.0,0.0,0.0,0.0,0.0,0.0,0.0,1.8507,1.839,1.7683,1.7244,0.0,0.0,0.0,0.0,0.0,0.0,0.0,0.0,0.0,0.0,0.0,0.0,0.0,0.0,0.0,0.0,0.0,0.0,0.0,0.0,0.0,0.0,0.0,0.0,0.0,0.0,0.0,0.0,0.0,0.0,0.0,0.0,0.0,0.0,0.0,0.0,0.0,0.0,0.0,0.0,0.0,0.0,0.0,0.0,0.0,0.0,0.0,0.0,0.0,0.0,0.0,0.0,0.0,0.0,0.0,0.0,0.0,0.0,0.0,0.0,0.0,0.0,0.0,0.0,0.0,0.0,0.0,0.0,0.0,0.0,0.0,0.0,0.0,0.0,0.0,0.0,0.0,0.0,0.0,0.0,0.0,0.0,0.0,0.0,0.0,0.0,0.0,0.0,0.0,0.0,0.0,0.0,0.0,0.0,0.0,0.0,0.0,0.0,0.0,0.0,0.0,0.0,0.0,0.0,0.0,0.0,0.0,0.0,0.0,0.0,1.9728,1.9488,1.9418,1.8187,1.757,1.7613,0.0,0.0,0.0,0.0,0.0,0.0,0.0,0.0,0.0,0.0,0.0,0.0,0.0,0.0,0.0,0.0,0.0,0.0,0.0,0.0,0.0,0.0,0.0,0.0,0.0,0.0,0.0,0.0,0.0,0.0,0.0,0.0,0.0,0.0,0.0,0.0,0.0,0.0,0.0,0.0,0.0,0.0,0.0,0.0,0.0,0.0,0.0,0.0,0.0,0.0,0.0,0.0,0.0,0.0,0.0,0.0,0.0,0.0,0.0,0.0,0.0,0.0,0.0,0.0,0.0,0.0,0.0,0.0,0.0,0.0,0.0,0.0,0.0,0.0,0.0,0.0,0.0,0.0,0.0,0.0,0.0,0.0,0.0,0.0,0.0,0.0,0.0,0.0,0.0,0.0,0.0,0.0,0.0,0.0,0.0,0.0,0.0,0.0,0.0,0.0,0.0,0.0,0.0,0.0,0.0,0.0,0.0,0.0,2.0477,2.0446,2.017,1.961,1.8307,1.7628,0.0,0.0,0.0,0.0,0.0,0.0,0.0,0.0,0.0,0.0,0.0,0.0,0.0,0.0,0.0,0.0,0.0,0.0,0.0,0.0,0.0,0.0,0.0,0.0,0.0,0.0,0.0,0.0,0.0,0.0,0.0,0.0,0.0,0.0,0.0,0.0,0.0,0.0,0.0,0.0,0.0,0.0,0.0,0.0,0.0,0.0,0.0,0.0,0.0,0.0,0.0,0.0,0.0,0.0,0.0,0.0,0.0,0.0,0.0,0.0,0.0,0.0,0.0,0.0,0.0,0.0,0.0,0.0,0.0,0.0,0.0,0.0,0.0,0.0,0.0,0.0,0.0,0.0,0.0,0.0,0.0,0.0,0.0,0.0,0.0,0.0,0.0,0.0,0.0,0.0,0.0,0.0,0.0,0.0,0.0,0.0,0.0,0.0,0.0,0.0,0.0,0.0,0.0,0.0,0.0,0.0,0.0,0.0,0.0,2.0627,2.0662,2.0586,2.0335,1.9468,1.882,0.0,0.0,0.0,0.0,0.0,0.0,0.0,0.0,0.0,0.0,0.0,0.0,0.0,0.0,0.0,0.0,0.0,0.0,0.0,0.0,0.0,0.0,0.0,0.0,0.0,0.0,0.0,0.0,0.0,0.0,0.0,0.0,0.0,0.0,0.0,0.0,0.0,0.0,0.0,0.0,0.0,0.0,0.0,0.0,0.0,0.0,0.0,0.0,0.0,0.0,0.0,0.0,0.0,0.0,0.0,0.0,0.0,0.0,0.0,0.0,0.0,0.0,0.0,0.0,0.0,0.0,0.0,0.0,0.0,0.0,0.0,0.0,0.0,0.0,0.0,0.0,0.0,0.0,0.0,0.0,0.0,0.0,0.0,0.0,0.0,0.0,0.0,0.0,0.0,0.0,0.0,0.0,0.0,0.0,0.0,0.0,0.0,0.0,0.0,0.0,0.0,0.0,0.0,0.0,0.0,0.0,0.0,0.0,0.0,2.0727,0.0,2.081,2.0795,2.0194,1.9624,0.0,0.0,0.0,0.0,0.0,0.0,0.0,0.0,0.0,0.0,0.0,0.0,0.0,0.0,0.0,0.0,0.0,0.0,0.0,0.0,0.0,0.0,0.0,0.0,0.0,0.0,0.0,0.0,0.0,0.0,0.0,0.0,0.0,0.0,0.0,0.0,0.0,0.0,0.0,0.0,0.0,0.0,0.0,0.0,0.0,0.0,0.0,0.0,0.0,0.0,0.0,0.0,0.0,0.0,0.0,0.0,0.0,0.0,0.0,0.0,0.0,0.0,0.0,0.0,0.0,0.0,0.0,0.0,0.0,0.0,0.0,0.0,0.0,0.0,0.0,0.0,0.0,0.0,0.0,0.0,0.0,0.0,0.0,0.0,0.0,0.0,0.0,0.0,0.0,0.0,0.0,0.0,0.0,0.0,0.0,0.0,0.0,0.0,0.0,0.0,0.0,0.0,0.0,0.0,0.0,0.0,0.0,0.0,2.0842,2.0842,2.0826,2.0857,2.0811,2.0242,1.9908,0.0,0.0,0.0,0.0,0.0,0.0,0.0,0.0,0.0,0.0,0.0,0.0,0.0,0.0,0.0,0.0,0.0,0.0,0.0,0.0,0.0,0.0,0.0,0.0,0.0,0.0,0.0,0.0,0.0,0.0,0.0,0.0,0.0,0.0,0.0,0.0,0.0,0.0,0.0,0.0,0.0,0.0,0.0,0.0,0.0,0.0,0.0,0.0,0.0,0.0,0.0,0.0,0.0,0.0,0.0,0.0,0.0,0.0,0.0,0.0,0.0,0.0,0.0,0.0,0.0,0.0,0.0,0.0,0.0,0.0,0.0,0.0,0.0,0.0,0.0,0.0,0.0,0.0,0.0,0.0,0.0,0.0,0.0,0.0,0.0,0.0,0.0,0.0,0.0,0.0,0.0,0.0,0.0,0.0,0.0,0.0,0.0,0.0,0.0,0.0,0.0,0.0,0.0,0.0,0.0,0.0,0.0,0.0,0.0,2.225,2.1741,2.1504,2.1521,2.0924,2.04,0.0,0.0,0.0,0.0,0.0,0.0,0.0,0.0,0.0,0.0,0.0,0.0,0.0,0.0,0.0,0.0,0.0,0.0,0.0,0.0,0.0,0.0,0.0,0.0,0.0,0.0,0.0,0.0,0.0,0.0,0.0,0.0,0.0,0.0,0.0,0.0,0.0,0.0,0.0,0.0,0.0,0.0,0.0,0.0,0.0,0.0,0.0,0.0,0.0,0.0,0.0,0.0,0.0,0.0,0.0,0.0,0.0,0.0,0.0,0.0,0.0,0.0,0.0,0.0,0.0,0.0,0.0,0.0,0.0,0.0,0.0,0.0,0.0,0.0,0.0,0.0,0.0,0.0,0.0,0.0,0.0,0.0,0.0,0.0,0.0,0.0,0.0,0.0,0.0,0.0,0.0,0.0,0.0,0.0,0.0,0.0,0.0,0.0,0.0,0.0,0.0,0.0,0.0,0.0,0.0,0.0,0.0,0.0,0.0,2.3626,2.2469,2.1851,2.19,2.1306,2.0799,2.0462,0.0,0.0,0.0,0.0,0.0,0.0,0.0,0.0,0.0,0.0,0.0,0.0,0.0,0.0,0.0,0.0,0.0,0.0,0.0,0.0,0.0,0.0,0.0,0.0,0.0,0.0,0.0,0.0,0.0,0.0,0.0,0.0,0.0,0.0,0.0,0.0,0.0,0.0,0.0,0.0,0.0,0.0,0.0,0.0,0.0,0.0,0.0,0.0,0.0,0.0,0.0,0.0,0.0,0.0,0.0,0.0,0.0,0.0,0.0,0.0,0.0,0.0,0.0,0.0,0.0,0.0,0.0,0.0,0.0,0.0,0.0,0.0,0.0,0.0,0.0,0.0,0.0,0.0,0.0,0.0,0.0,0.0,0.0,0.0,0.0,0.0,0.0,0.0,0.0,0.0,0.0,0.0,0.0,0.0,0.0,0.0,0.0,0.0,0.0,0.0,0.0,0.0,0.0,0.0,0.0,0.0,0.0,0.0,2.5116,2.3154,2.2092,2.2044,2.1467,2.1183,0.0,0.0,0.0,0.0,0.0,0.0,0.0,0.0,0.0,0.0,0.0,0.0,0.0,0.0,0.0,0.0,0.0,0.0,0.0,0.0,0.0,0.0,0.0,0.0,0.0,0.0,0.0,0.0,0.0,0.0,0.0,0.0,0.0,0.0,0.0,0.0,0.0,0.0,0.0,0.0,0.0,0.0,0.0,0.0,0.0,0.0,0.0,0.0,0.0,0.0,0.0,0.0,0.0,0.0,0.0,0.0,0.0,0.0,0.0,0.0,0.0,0.0,0.0,0.0,0.0,0.0,0.0,0.0,0.0,0.0,0.0,0.0,0.0,0.0,0.0,0.0,0.0,0.0,0.0,0.0,0.0,0.0,0.0,0.0,0.0,0.0,0.0,0.0,0.0,0.0,0.0,0.0,0.0,0.0,0.0,0.0,0.0,0.0,0.0,0.0,0.0,0.0,0.0,0.0,0.0,0.0,0.0,0.0,0.0,2.6529,2.5178,2.4111,2.3512,2.2511,2.202,0.0,0.0,0.0,0.0,0.0,0.0,0.0,0.0,0.0,0.0,0.0,0.0,0.0,0.0,0.0,0.0,0.0,0.0,0.0,0.0,0.0,0.0,0.0,0.0,0.0,0.0,0.0,0.0,0.0,0.0,0.0,0.0,0.0,0.0,0.0,0.0,0.0,0.0,0.0,0.0,0.0,0.0,0.0,0.0,0.0,0.0,0.0,0.0,0.0,0.0,0.0,0.0,0.0,0.0,0.0,0.0,0.0,0.0,0.0,0.0,0.0,0.0,0.0,0.0,0.0,0.0,0.0,0.0,0.0,0.0,0.0,0.0,0.0,0.0,0.0,0.0,0.0,0.0,0.0,0.0,0.0,0.0,0.0,0.0,0.0,0.0,0.0,0.0,0.0,0.0,0.0,0.0,0.0,0.0,0.0,0.0,0.0,0.0,0.0,0.0,0.0,0.0,0.0,0.0,0.0,0.0,0.0,0.0,2.6474,2.6812,2.6162,2.5465,2.4756,2.3417,2.2634,0.0,0.0,0.0,0.0,0.0,0.0,0.0,0.0,0.0,0.0,0.0,0.0,0.0,0.0,0.0,0.0,0.0,0.0,0.0,0.0,0.0,0.0,0.0,0.0,0.0,0.0,0.0,0.0,0.0,0.0,0.0,0.0,0.0,0.0,0.0,0.0,0.0,0.0,0.0,0.0,0.0,0.0,0.0,0.0,0.0,0.0,0.0,0.0,0.0,0.0,0.0,0.0,0.0,0.0,0.0,0.0,0.0,0.0,0.0,0.0,0.0,0.0,0.0,0.0,0.0,0.0,0.0,0.0,0.0,0.0,0.0,0.0,0.0,0.0,0.0,0.0,0.0,0.0,0.0,0.0,0.0,0.0,0.0,0.0,0.0,0.0,0.0,0.0,0.0,0.0,0.0,0.0,0.0,0.0,0.0,0.0,0.0,0.0,0.0,0.0,0.0,0.0,0.0,0.0,0.0,0.0,0.0,0.0,2.6519,2.6659,2.6696,2.6489,2.5924,2.4329,2.3235,0.0,0.0,0.0,0.0,0.0,0.0,0.0,0.0,0.0,0.0,0.0,0.0,0.0,0.0,0.0,0.0,0.0,0.0,0.0,0.0,0.0,0.0,0.0,0.0,0.0,0.0,0.0,0.0,0.0,0.0,0.0,0.0,0.0,0.0,0.0,0.0,0.0,0.0,0.0,0.0,0.0,0.0,0.0,0.0,0.0,0.0,0.0,0.0,0.0,0.0,0.0,0.0,0.0,0.0,0.0,0.0,0.0,0.0,0.0,0.0,0.0,0.0,0.0,0.0,0.0,0.0,0.0,0.0,0.0,0.0,0.0,0.0,0.0,0.0,0.0,0.0,0.0,0.0,0.0,0.0,0.0,0.0,0.0,0.0,0.0,0.0,0.0,0.0,0.0,0.0,0.0,0.0,0.0,0.0,0.0,0.0,0.0,0.0,0.0,0.0,0.0,0.0,0.0,0.0,0.0,0.0,0.0,0.0,2.7904,2.8935,2.8543,2.8292,2.8282,2.5761,2.4435,0.0,0.0,0.0,0.0,0.0,0.0,0.0,0.0,0.0,0.0,0.0,0.0,0.0,0.0,0.0,0.0,0.0,0.0,0.0,0.0,0.0,0.0,0.0,0.0,0.0,0.0,0.0,0.0,0.0,0.0,0.0,0.0,0.0,0.0,0.0,0.0,0.0,0.0,0.0,0.0,0.0,0.0,0.0,0.0,0.0,0.0,0.0,0.0,2.0816,0.0,0.0,0.0,0.0,0.0,0.0,0.0,0.0,0.0,0.0,0.0,0.0,0.0,0.0,0.0,0.0,0.0,0.0,0.0,0.0,0.0,0.0,0.0,0.0,0.0,0.0,0.0,0.0,0.0,0.0,0.0,0.0,0.0,0.0,0.0,0.0,0.0,0.0,0.0,0.0,0.0,0.0,0.0,0.0,0.0,0.0,0.0,0.0,0.0,0.0,0.0,0.0,0.0,0.0,0.0,0.0,0.0,0.0,0.0,2.8537,2.9221,2.8963,2.8712,2.8466,2.6776,2.5758,0.0,0.0,0.0,0.0,0.0,0.0,0.0,0.0,0.0,0.0,0.0,0.0,0.0,0.0,0.0,0.0,0.0,0.0,0.0,0.0,0.0,0.0,0.0,0.0,0.0,0.0,0.0,0.0,0.0,0.0,0.0,0.0,0.0,0.0,0.0,0.0,0.0,0.0,0.0,0.0,0.0,0.0,0.0,0.0,0.0,0.0,0.0,0.0,0.0,0.0,0.0,0.0,0.0,0.0,0.0,0.0,0.0,0.0,0.0,0.0,0.0,0.0,0.0,0.0,0.0,0.0,0.0,0.0,0.0,0.0,0.0,0.0,0.0,0.0,0.0,0.0,0.0,0.0,0.0,0.0,0.0,0.0,0.0,0.0,0.0,0.0,0.0,0.0,0.0,0.0,0.0,0.0,0.0,0.0,0.0,0.0,0.0,0.0,0.0,0.0,0.0,0.0,0.0,0.0,0.0,0.0,0.0,2.8454,2.8876,2.8973,2.8973,2.8765,2.8334,2.7744,2.7151,2.6622,0.0,0.0,0.0,0.0,0.0,0.0,0.0,0.0,0.0,0.0,0.0,0.0,0.0,0.0,0.0,0.0,0.0,0.0,0.0,0.0,0.0,0.0,0.0,0.0,0.0,0.0,0.0,0.0,0.0,0.0,0.0,0.0,0.0,0.0,0.0,0.0,0.0,0.0,2.0783,2.1475,0.0,0.0,0.0,0.0,0.0,0.0,0.0,0.0,2.2342,0.0,0.0,0.0,0.0,0.0,0.0,0.0,0.0,0.0,0.0,0.0,0.0,0.0,0.0,0.0,0.0,0.0,0.0,0.0,0.0,0.0,0.0,0.0,0.0,0.0,0.0,0.0,0.0,0.0,0.0,0.0,0.0,0.0,0.0,0.0,0.0,0.0,0.0,0.0,0.0,0.0,0.0,0.0,0.0,0.0,0.0,0.0,0.0,0.0,0.0,0.0,0.0,0.0,0.0,0.0,0.0,2.7705,2.8517,2.922,2.9708,2.9718,2.9762,2.9791,2.9145,2.8639,2.8332,0.0,0.0,0.0,0.0,0.0,0.0,0.0,0.0,0.0,0.0,0.0,0.0,0.0,0.0,0.0,0.0,0.0,0.0,0.0,0.0,0.0,0.0,0.0,0.0,0.0,0.0,0.0,0.0,0.0,0.0,0.0,0.0,0.0,0.0,0.0,0.0,0.0,0.0,0.0,2.1858,2.1994,0.0,0.0,0.0,0.0,0.0,0.0,0.0,0.0,2.2963,0.0,0.0,0.0,0.0,0.0,0.0,0.0,0.0,0.0,0.0,0.0,0.0,0.0,0.0,0.0,0.0,0.0,0.0,0.0,0.0,0.0,0.0,0.0,0.0,0.0,0.0,0.0,0.0,0.0,0.0,0.0,0.0,0.0,0.0,0.0,0.0,0.0,0.0,0.0,0.0,0.0,0.0,0.0,0.0,0.0,0.0,0.0,0.0,0.0,0.0,0.0,0.0,0.0,0.0,0.0,2.7899,2.902,2.9755,3.0038,3.0055,3.0141,3.0279,2.9671,2.9198,0.0,0.0,0.0,0.0,0.0,0.0,0.0,0.0,0.0,0.0,0.0,0.0,0.0,0.0,0.0,0.0,0.0,0.0,0.0,0.0,0.0,0.0,0.0,0.0,0.0,0.0,0.0,0.0,0.0,0.0,0.0,0.0,0.0,0.0,0.0,0.0,0.0,0.0,0.0,0.0,2.2977,2.3235,2.3245,0.0,0.0,0.0,0.0,0.0,0.0,2.4891,2.4396,0.0,0.0,0.0,0.0,0.0,0.0,0.0,0.0,0.0,0.0,0.0,0.0,0.0,0.0,0.0,0.0,0.0,0.0,0.0,0.0,0.0,0.0,0.0,0.0,0.0,0.0,0.0,0.0,0.0,0.0,0.0,0.0,0.0,0.0,0.0,0.0,0.0,0.0,0.0,0.0,0.0,0.0,0.0,0.0,0.0,0.0,0.0,0.0,0.0,0.0,0.0,0.0,0.0,0.0,0.0,2.8059,2.9473,3.021,3.0227,3.0227,3.0253,3.038,2.9984,2.9485,0.0,0.0,0.0,0.0,0.0,0.0,0.0,0.0,0.0,0.0,0.0,0.0,0.0,0.0,0.0,0.0,0.0,0.0,0.0,0.0,0.0,0.0,0.0,0.0,0.0,0.0,0.0,0.0,0.0,0.0,0.0,0.0,0.0,0.0,0.0,0.0,0.0,0.0,0.0,0.0,0.0,2.4717,2.4884,2.4903,0.0,0.0,0.0,0.0,2.6814,2.6282,0.0,0.0,0.0,0.0,0.0,0.0,0.0,0.0,0.0,0.0,0.0,0.0,0.0,0.0,0.0,0.0,0.0,0.0,0.0,0.0,0.0,0.0,0.0,0.0,0.0,0.0,0.0,0.0,0.0,0.0,0.0,0.0,0.0,0.0,0.0,0.0,0.0,0.0,0.0,0.0,0.0,0.0,0.0,0.0,0.0,0.0,0.0,0.0,0.0,0.0,0.0,0.0,0.0,0.0,0.0,0.0,2.8059,2.9556,3.0316,3.021,3.0227,3.0269,3.038,3.0402,2.9946,0.0,0.0,0.0,0.0,0.0,0.0,0.0,0.0,0.0,0.0,0.0,0.0,0.0,0.0,0.0,0.0,0.0,0.0,0.0,0.0,0.0,0.0,0.0,0.0,0.0,0.0,0.0,0.0,0.0,0.0,0.0,0.0,0.0,0.0,0.0,0.0,0.0,0.0,0.0,0.0,0.0,2.581,2.6525,2.66,2.6665,0.0,0.0,2.6842,2.6897,2.6328,0.0,0.0,0.0,0.0,0.0,0.0,0.0,0.0,0.0,0.0,0.0,0.0,0.0,0.0,0.0,0.0,0.0,0.0,0.0,0.0,0.0,0.0,0.0,0.0,0.0,0.0,0.0,0.0,0.0,0.0,0.0,0.0,0.0,0.0,0.0,0.0,0.0,0.0,0.0,0.0,0.0,0.0,0.0,0.0,0.0,0.0,0.0,0.0,0.0,0.0,0.0,0.0,0.0,0.0,0.0,2.8461,2.8814,2.9877,3.0422,3.038,3.038,3.0401,3.0443,3.0547,3.0072,0.0,0.0,0.0,0.0,0.0,0.0,0.0,0.0,0.0,0.0,0.0,0.0,0.0,0.0,0.0,0.0,0.0,0.0,0.0,0.0,0.0,0.0,0.0,0.0,0.0,0.0,0.0,0.0,0.0,0.0,0.0,0.0,0.0,0.0,0.0,0.0,0.0,0.0,0.0,0.0,0.0,0.0,2.6776,2.6888,0.0,0.0,0.0,2.7809,2.8244,0.0,0.0,0.0,0.0,0.0,0.0,0.0,0.0,0.0,0.0,0.0,0.0,0.0,0.0,0.0,0.0,0.0,0.0,0.0,0.0,0.0,0.0,0.0,0.0,0.0,0.0,0.0,0.0,0.0,0.0,0.0,0.0,0.0,0.0,0.0,0.0,0.0,0.0,0.0,0.0,0.0,0.0,0.0,0.0,0.0,0.0,0.0,0.0,0.0,0.0,0.0,0.0,0.0,0.0,0.0,0.0,0.0,2.9417,3.0125,3.0489,3.0489,3.0489,3.0489,3.0489,3.0651,0.0,0.0,0.0,0.0,0.0,0.0,0.0,0.0,0.0,0.0,0.0,0.0,0.0,0.0,0.0,0.0,0.0,0.0,0.0,0.0,0.0,0.0,0.0,0.0,0.0,0.0,0.0,2.4986,0.0,0.0,0.0,0.0,0.0,0.0,0.0,0.0,0.0,0.0,0.0,0.0,0.0,0.0,2.6283,2.736,2.75,2.7733,0.0,0.0,2.8653,2.9285,2.822,2.7214,0.0,0.0,0.0,0.0,0.0,0.0,0.0,0.0,0.0,0.0,0.0,0.0,0.0,0.0,0.0,0.0,0.0,0.0,0.0,0.0,0.0,0.0,0.0,0.0,0.0,0.0,0.0,0.0,0.0,0.0,0.0,0.0,0.0,0.0,0.0,0.0,0.0,0.0,0.0,0.0,0.0,0.0,0.0,0.0,0.0,0.0,0.0,0.0,0.0,0.0,0.0,0.0,0.0,0.0,0.0,2.938,3.0125,3.0489,3.0489,3.0489,3.0489,3.0489,3.0753,3.0586,0.0,0.0,0.0,0.0,0.0,0.0,0.0,0.0,0.0,0.0,0.0,0.0,0.0,0.0,0.0,0.0,0.0,0.0,0.0,0.0,0.0,0.0,0.0,0.0,0.0,0.0,0.0,0.0,0.0,0.0,0.0,0.0,0.0,0.0,0.0,0.0,0.0,0.0,0.0,0.0,0.0,2.7251,2.8913,2.9135,2.9185,0.0,0.0,2.9351,2.9388,2.8675,2.7866,2.7131,0.0,0.0,0.0,0.0,0.0,0.0,0.0,0.0,0.0,0.0,0.0,0.0,0.0,0.0,0.0,0.0,0.0,0.0,0.0,0.0,0.0,0.0,0.0,0.0,0.0,0.0,0.0,0.0,0.0,0.0,0.0,0.0,0.0,0.0,0.0,0.0,0.0,0.0,0.0,0.0,0.0,0.0,0.0,0.0,0.0,0.0,0.0,0.0,0.0,0.0,0.0,0.0,0.0,2.8936,3.0059,3.0357,3.0489,3.0489,3.0489,3.0489,3.0489,3.0671,3.054,0.0,0.0,0.0,0.0,0.0,0.0,0.0,0.0,0.0,0.0,0.0,0.0,0.0,0.0,0.0,0.0,0.0,0.0,0.0,0.0,0.0,0.0,0.0,0.0,0.0,0.0,0.0,0.0,2.6792,2.6783,2.5844,0.0,0.0,0.0,0.0,0.0,0.0,0.0,0.0,0.0,0.0,2.7872,2.9063,2.9262,0.0,0.0,2.9376,2.9388,2.9388,2.8731,2.7922,2.7121,2.5708,0.0,0.0,0.0,0.0,0.0,0.0,0.0,0.0,0.0,0.0,0.0,0.0,0.0,0.0,0.0,0.0,0.0,0.0,0.0,0.0,0.0,0.0,0.0,0.0,0.0,0.0,0.0,0.0,0.0,0.0,0.0,0.0,0.0,0.0,0.0,0.0,0.0,0.0,0.0,0.0,0.0,0.0,0.0,0.0,0.0,0.0,0.0,0.0,0.0,0.0,0.0,0.0,2.94,3.0803,3.082,3.0936,3.1172,3.1172,3.1035,3.0837,3.0987,3.0858,0.0,0.0,0.0,0.0,0.0,0.0,0.0,0.0,0.0,0.0,0.0,0.0,0.0,0.0,0.0,0.0,0.0,0.0,0.0,0.0,0.0,0.0,0.0,0.0,0.0,0.0,0.0,0.0,2.7717,2.738,2.5825,0.0,0.0,0.0,0.0,0.0,0.0,0.0,0.0,0.0,0.0,2.8154,2.9034,2.9211,2.9262,2.9302,2.9355,2.9388,2.9388,2.8944,2.8294,2.7456,0.0,0.0,0.0,0.0,0.0,0.0,0.0,0.0,0.0,0.0,0.0,0.0,0.0,0.0,0.0,0.0,0.0,0.0,0.0,0.0,0.0,0.0,0.0,0.0,0.0,0.0,0.0,0.0,0.0,0.0,2.8359,0.0,0.0,0.0,0.0,0.0,0.0,0.0,0.0,0.0,0.0,0.0,0.0,0.0,0.0,0.0,0.0,0.0,0.0,0.0,0.0,0.0,0.0,3.0092,3.1532,3.1581,3.1912,3.2602,3.2652,3.2282,3.1615,3.1833,3.1711,3.121,0.0,0.0,0.0,0.0,0.0,0.0,0.0,0.0,0.0,0.0,0.0,0.0,0.0,0.0,0.0,0.0,0.0,0.0,0.0,0.0,0.0,0.0,0.0,0.0,0.0,0.0,2.8734,2.8267,2.73,0.0,0.0,0.0,0.0,0.0,0.0,0.0,0.0,0.0,0.0,2.767,2.8061,2.8986,2.9175,2.9266,2.9291,2.9355,2.9378,2.9378,2.9359,2.9091,0.0,0.0,0.0,0.0,0.0,0.0,0.0,0.0,0.0,0.0,0.0,0.0,0.0,0.0,0.0,0.0,0.0,0.0,0.0,0.0,0.0,0.0,0.0,0.0,0.0,0.0,0.0,3.1478,3.1189,0.0,0.0,0.0,0.0,0.0,0.0,0.0,0.0,0.0,0.0,0.0,3.2685,3.2431,0.0,0.0,0.0,0.0,0.0,0.0,0.0,0.0,0.0,0.0,0.0,0.0,3.0621,3.1565,3.2061,3.2448,3.2685,3.2685,3.258,3.2332,3.2584,3.2613,3.2331,0.0,0.0,0.0,0.0,0.0,0.0,0.0,0.0,0.0,0.0,0.0,0.0,0.0,0.0,0.0,0.0,0.0,0.0,0.0,0.0,0.0,0.0,0.0,0.0,0.0,2.9253,0.0,0.0,0.0,0.0,0.0,0.0,0.0,0.0,0.0,0.0,0.0,2.8075,2.8947,2.9629,2.9984,2.9795,2.9865,2.9742,0.0,0.0,0.0,0.0,0.0,0.0,0.0,0.0,0.0,0.0,0.0,0.0,0.0,0.0,2.5038,2.2637,2.224,2.2134,2.163,0.0,0.0,0.0,0.0,0.0,0.0,0.0,0.0,0.0,0.0,0.0,0.0,0.0,0.0,0.0,0.0,3.3055,0.0,0.0,0.0,0.0,0.0,0.0,0.0,0.0,3.3988,3.422,3.422,3.422,3.3978,0.0,3.3481,3.2238,0.0,0.0,0.0,0.0,0.0,0.0,0.0,0.0,3.1636,3.2365,3.2829,3.3193,3.3464,3.3481,3.3326,3.31,3.3155,3.3228,3.3281,3.2537,3.2144,0.0,0.0,0.0,0.0,0.0,0.0,0.0,0.0,0.0,0.0,0.0,0.0,0.0,0.0,0.0,0.0,0.0,0.0,0.0,0.0,0.0,0.0,0.0,2.9894,0.0,0.0,0.0,0.0,0.0,0.0,0.0,0.0,0.0,2.774,2.8344,2.9076,2.9963,3.0654,3.0937,3.0544,0.0,0.0,0.0,0.0,0.0,0.0,0.0,2.9928,2.9384,2.9355,2.9064,2.8024,2.7475,2.7215,2.7312,0.0,0.0,2.4706,2.4383,2.4274,2.3775,2.3678,2.3512,2.2979,2.2894,2.2887,0.0,0.0,0.0,0.0,0.0,0.0,0.0,0.0,3.6011,3.601,0.0,3.511,0.0,0.0,0.0,0.0,0.0,0.0,0.0,0.0,3.639,3.7102,3.7069,3.7036,3.634,3.5015,3.4965,3.4237,3.2878,3.2851,0.0,0.0,0.0,0.0,0.0,0.0,3.3077,3.374,3.3789,3.417,3.4833,3.4883,3.4535,3.3885,3.3609,3.3628,3.4002,3.422,3.4209,3.3846,3.305,0.0,0.0,0.0,0.0,0.0,0.0,0.0,0.0,0.0,0.0,0.0,0.0,0.0,0.0,0.0,0.0,0.0,0.0,0.0,0.0,3.0827,0.0,0.0,0.0,0.0,0.0,0.0,0.0,0.0,0.0,0.0,2.9098,2.9266,2.9621,3.0516,0.0,0.0,0.0,0.0,3.1445,3.1446,3.1519,3.1567,3.1567,3.1567,3.1591,3.1631,0.0,0.0,2.9717,2.8259,2.7371,2.7346,2.7506,2.7475,2.7608,2.7497,2.7058,2.5683,2.5374,2.4822,2.3435,2.336,2.3303,3.936,0.0,0.0,0.0,0.0,3.6924,3.7178,3.7567,3.7347,3.7341,3.7503,3.7081,0.0,0.0,0.0,0.0,0.0,0.0,3.6555,3.6489,3.692,3.7119,3.7119,3.7119,3.6887,3.6473,3.6473,3.6257,3.586,3.5843,3.4767,3.2735,0.0,0.0,0.0,0.0,3.3574,3.3806,3.4319,3.4684,3.4899,3.4899,3.4894,3.4881,3.4431,3.4351,3.4689,3.4528,3.4434,3.4482,3.3828,0.0,0.0,0.0,0.0,0.0,0.0,0.0,0.0,0.0,0.0,0.0,0.0,0.0,0.0,0.0,0.0,0.0,0.0,0.0,3.2362,3.1209,3.0272,0.0,0.0,0.0,0.0,0.0,0.0,0.0,0.0,0.0,3.0641,3.0863,3.1013,0.0,0.0,3.2185,3.178,3.1891,3.1878,3.1336,0.0,0.0,0.0,3.1489,3.1525,3.1537,3.1621,3.1589,3.1243,3.0809,3.0387,2.9908,2.9898,2.9808,2.9276,2.8325,2.7548,2.7077,2.7046,2.6949,2.65,2.6415,2.6439,4.1238,3.9631,3.9343,3.9039,3.8794,3.9089,3.9056,3.8785,3.9089,3.9056,3.8751,3.8464,3.8345,3.8294,3.7431,0.0,0.0,0.0,3.7711,3.7609,3.7857,3.7963,3.7963,3.7963,3.7814,3.7524,3.7549,3.74,3.7119,3.7119,3.6224,3.4502,0.0,0.0,3.4452,3.4883,3.5098,3.5131,3.5545,3.5628,3.5346,3.5096,3.5105,3.5291,3.5043,3.5094,3.5458,3.5316,3.525,3.5274,3.4906,3.4304,0.0,0.0,0.0,0.0,0.0,0.0,0.0,0.0,0.0,0.0,0.0,2.953,2.9833,0.0,0.0,0.0,3.1737,3.2416,3.285,3.1709,0.0,0.0,0.0,0.0,0.0,0.0,0.0,2.9597,2.9953,3.047,3.1414,3.1852,3.2062,3.2096,3.2581,3.2813,3.2439,0.0,3.2548,3.217,3.2151,3.22,3.2305,3.2344,3.2414,3.2465,3.2305,3.2208,3.2299,3.2128,3.1773,3.146,3.14,3.1318,3.0937,2.9834,2.8808,2.8293,2.823,2.8176,2.789,2.7865,2.7902,4.2472,4.2422,4.1745,4.1018,4.035,4.1018,4.0882,4.035,4.0984,4.0899,4.0248,3.9588,3.9259,3.9225,3.8426,0.0,3.8066,3.8505,3.872,3.8711,3.9246,3.9491,3.9481,3.9464,3.9133,3.8451,3.8411,3.803,3.7417,3.7334,3.7284,3.7268,3.7284,3.7218,3.7119,3.7102,3.7119,3.7102,3.7102,3.6746,3.6108,3.5499,3.5258,3.5392,3.5537,3.5778,3.6182,3.6398,3.6377,3.61,3.609,3.5545,3.4365,0.0,0.0,0.0,0.0,0.0,0.0,0.0,0.0,0.0,0.0,0.0,0.0,0.0,0.0,0.0,3.2534,0.0,3.2995,3.2276,0.0,0.0,0.0,3.0478,3.0478,3.0478,3.0529,3.0567,0.0,0.0,3.1704,0.0,3.2805,3.2805,3.2854,3.2932,3.3073,3.3147,3.3304,3.3343,3.3459,3.3516,3.3506,3.3584,3.3642,3.3793,3.3451,3.303,3.3034,3.2608,3.2169,3.2086,3.2152,3.2161,3.2269,3.1607,3.0875,2.9499,2.9148,2.8894,2.8272,2.817,2.8242,4.4056,4.4056,4.387,4.2997,4.1796,4.1965,4.1931,4.1822,4.1948,4.1931,4.1745,4.1576,4.1508,4.1491,4.1296,4.115,4.1062,4.1177,4.1181,4.1073,4.1121,4.1139,4.1122,4.0984,4.0829,4.0602,4.0117,3.9769,3.9597,3.905,3.8785,3.8785,3.8785,3.8195,3.7152,3.7119,3.7119,3.7119,3.7119,3.7036,3.6837,3.6247,3.6002,3.6121,3.5881,3.5839,3.6058,3.644,3.6678,3.6726,3.6335,3.6078,3.5986,3.4678,0.0,0.0,0.0,0.0,0.0,0.0,0.0,0.0,0.0,3.1451,3.1631,0.0,3.2604,0.0,3.2965,3.3088,3.3088,3.2307,0.0,0.0,3.102,3.0478,3.0478,3.0478,3.0728,3.135,3.1581,3.192,3.2511,3.2743,3.2868,3.2886,3.2854,3.2855,3.287,3.2981,3.3106,3.3196,3.3316,3.3466,3.3619,3.3753,3.3881,3.3985,3.3876,3.3846,3.3918,3.38,3.3489,3.2989,3.2921,3.2774,3.2302,3.2109,3.2039,3.1618,3.0738,2.9868,2.9653,2.9678,2.9733,4.5596,4.5563,4.5213,4.457,4.3775,4.3453,4.2929,4.232,4.2642,4.2608,4.2303,4.2303,4.2303,4.2303,4.2303,4.2277,4.2196,4.2132,4.2061,4.198,4.1843,4.1805,4.1777,4.1677,4.1577,4.1521,4.1156,4.0929,4.0812,4.0415,4.0233,4.0233,4.0216,3.9818,3.904,3.8394,3.8089,3.8063,3.7748,3.7599,3.7566,3.7012,3.6736,3.6882,3.6443,3.6288,3.6471,3.655,3.6728,3.6989,3.6796,3.6665,3.6575,3.58,3.5056,0.0,0.0,0.0,0.0,0.0,0.0,0.0,0.0,0.0,0.0,0.0,3.3574,3.3262,3.3196,3.3198,3.318,3.2754,3.2454,3.2391,3.1936,3.1655,3.1609,3.1609,3.1755,3.2186,3.2239,3.24,3.2846,3.29,3.29,3.29,3.2886,3.2854,3.2854,3.2932,3.3026,3.3086,3.3244,3.3408,3.3577,3.3734,3.39,3.3985,3.4061,3.4105,3.4185,3.4216,3.4085,3.3776,3.3728,3.3657,3.3306,3.3003,3.2883,3.2814,3.2069,3.139,3.1348,3.1404,3.1405,4.6786,4.6718,4.6109,4.5838,4.5788,4.5145,4.4022,4.2625,4.3284,4.32,4.2574,4.2591,4.2574,4.2591,4.2574,4.2591,4.2591,4.2483,4.2419,4.2402,4.2265,4.221,4.221,4.2166,4.2144,4.2005,4.1905,4.1771,4.1598,4.1503,4.1453,4.1437,4.1409,4.1397,4.1375,4.0166,3.9531,3.9431,3.8709,3.8344,3.8344,3.776,3.7528,3.7626,3.7162,3.6955,3.7103,3.6835,3.6795,3.7027,3.7298,3.7237,3.6807,3.6782,3.6522,0.0,3.5842,0.0,0.0,0.0,0.0,0.0,0.0,0.0,0.0,3.4199,3.4403,3.3773,3.3659,3.3614,3.3632,3.3599,3.3568,3.3438,3.3407,3.3394,3.3331,3.3315,3.3283,3.3235,3.313,3.3059,3.3078,3.2989,3.29,3.29,3.29,3.29,3.29,3.2965,3.3011,3.307,3.3214,3.3378,3.3577,3.3726,3.3855,3.3985,3.4086,3.4148,3.424,3.4233,3.425,3.4344,3.4307,3.4371,3.4626,3.4026,3.3626,3.3715,3.3285,3.2861,3.2691,3.2682,3.264,4.6786,4.6769,4.665,4.6583,4.6583,4.643,4.5534,4.4192,4.4299,4.4293,4.4175,4.4175,4.4192,4.4175,4.4175,4.4158,4.4175,4.4147,4.4119,4.4119,4.3917,4.3844,4.3816,4.3736,4.3679,4.3616,4.3031,4.2746,4.2674,4.1977,4.1638,4.1655,4.1498,4.1397,4.1409,0.0,0.0,0.0,3.9481,3.91,3.9083,3.862,3.8363,3.8372,3.8072,0.0,3.7288,3.7563,3.7556,3.7273,3.7429,0.0,0.0,0.0,0.0,0.0,0.0,0.0,0.0,0.0,0.0,0.0,3.6093,3.5987,3.5377,3.5447,3.5498,3.5351,3.5336,3.5336,3.5336,3.5288,3.5221,3.5223,3.5105,3.5038,3.504,3.4988,3.4991,3.491,3.4338,3.3928,3.3846,3.3328,3.2936,3.3005,3.29,3.29,3.2953,3.2952,3.2965,3.3011,3.3247,3.3422,3.3577,3.3734,3.3921,3.4061,3.4185,3.4269,3.4328,3.4351,3.437,3.4397,3.442,3.4473,3.4539,3.4473,3.4436,3.4546,3.4529,3.4162,3.2986,3.2781,3.2793,4.7885,0.0,4.7496,4.7344,0.0,4.6955,4.6363,4.5715,4.5669,4.5495,4.5111,4.4767,4.4598,4.4598,4.4598,4.4598,4.4598,4.4598,4.4598,4.4598,4.4514,4.444,4.444,4.44,4.4298,4.4179,4.3826,4.3613,4.3511,4.3103,4.2862,4.2879,4.276,4.2732,4.2732,4.2382,4.161,4.0426,4.0044,3.969,3.9422,3.9187,3.9133,3.9227,0.0,0.0,0.0,0.0,0.0,0.0,0.0,0.0,0.0,0.0,0.0,3.7611,3.7214,3.6979,3.6979,3.6997,3.6997,3.6979,3.7375,3.7249,3.6453,3.6037,3.5786,3.5786,3.5786,3.5786,3.5786,3.577,3.5754,3.5754,3.5688,3.5638,3.5606,3.5606,3.5557,3.5439,3.5099,3.4831,3.48,3.4429,3.4162,3.4127,3.4077,3.4008,3.3953,3.3396,3.2979,3.314,3.3304,3.3495,3.3591,3.378,3.3947,3.4086,3.4209,3.4316,3.4386,3.4386,3.4397,3.4439,3.4461,3.4473,3.4558,3.4634,3.4737,3.4791,3.4936,3.4855,3.4042,3.3976,3.3911,4.9204,4.912,4.8409,4.8091,4.8071,4.7428,4.7192,4.7175,0.0,0.0,0.0,4.5246,4.5004,4.5004,4.4987,4.4987,4.4987,4.4869,4.4801,4.4773,4.4666,4.4598,4.4598,4.4598,4.4514,4.4367,4.4367,4.4281,4.4184,4.4155,4.4109,4.4126,4.4126,4.4097,4.4064,4.3494,4.2412,4.0923,4.074,4.038,3.9744,3.9764,3.9828,3.9935,3.9553,3.943,3.9559,3.9425,3.9406,3.9549,3.9912,3.9892,3.9373,3.9498,3.9314,3.8663,3.8607,3.8536,3.8426,3.8426,3.8354,3.8227,3.8209,3.7902,3.7249,3.6598,3.6236,3.622,3.6236,3.6236,3.622,3.6236,3.622,3.6236,3.6236,3.6204,3.6172,3.6138,3.6159,3.5951,3.5845,3.572,3.5704,3.5494,3.5426,3.5392,3.5198,3.5238,3.5112,3.425,3.356,3.3556,3.3686,3.3738,3.3651,3.378,3.3947,3.408,3.4233,3.4328,3.4404,3.4427,3.4461,3.4506,3.4473,3.4495,3.4572,3.4645,3.4716,3.4788,3.4936,3.5056,3.5107,3.5187,3.5032,4.9932,4.9864,4.9154,4.8849,4.8849,4.8731,4.8697,4.8578,4.7344,4.6735,4.6633,4.6532,4.6481,4.6481,4.6481,4.6481,4.643,4.5838,4.5534,0.0,4.4874,4.4598,4.4598,4.4598,4.4587,4.4542,4.457,4.4542,4.4514,4.4355,4.4265,4.4253,4.4138,4.4097,4.4097,4.3997,4.3528,4.2635,4.201,4.1341,4.0622,4.0721,4.0575,4.0121,4.0235,4.0151,3.9864,4.0101,4.0077,3.9789,4.0029,4.0201,4.0239,4.0293,4.0293,4.0202,4.0184,3.9912,3.9278,3.9224,3.8952,3.8281,3.8209,3.8154,3.8046,3.7937,3.7848,3.7848,3.7794,3.7883,3.7866,3.781,3.7757,3.781,3.7846,3.7848,3.7759,3.7759,3.7688,3.7549,3.7045,3.6597,3.6512,3.601,3.5634,3.5544,3.5708,3.5529,3.5565,3.5312,3.4862,3.4371,3.4377,3.4266,3.4004,3.3825,3.412,3.4161,3.4386,3.4509,3.4585,3.4555,3.4569,3.4572,3.4561,3.4572,3.4612,3.4612,3.4666,3.4749,3.4849,3.4917,3.5056,3.5168,3.5189,5.0693,5.0659,5.0338,4.9965,4.956,4.9171,4.9018,4.8951,4.8308,4.7767,4.7378,4.6972,4.6786,4.6786,4.6786,4.6786,4.6769,4.6447,4.6295,4.6278,4.594,4.5568,4.5196,4.5196,4.5004,4.4632,4.4598,4.4598,4.457,4.4497,4.4468,4.4468,4.44,4.4355,4.4372,4.4372,4.4204,4.3833,4.297,4.2177,4.1554,4.1557,4.1336,4.0824,4.0983,4.0913,4.0568,4.0812,4.0963,4.0988,4.1239,4.1257,4.0976,4.107,4.0945,4.0528,4.0492,4.0347,4.0039,4.0003,3.984,3.9478,3.9441,3.9441,3.9441,3.8663,3.8209,3.8209,3.8209,3.8209,3.8209,3.8209,3.8209,3.8209,3.8209,3.8209,3.8209,3.8209,3.8157,3.8104,3.7798,3.7546,3.7513,3.7137,3.6868,3.6868,3.6835,3.6801,3.6765,3.6799,3.6418,3.5371,3.5235,3.5289,3.5019,3.5206,3.5399,3.554,3.5328,3.5179,3.5132,3.4925,3.4658,3.4612,3.4631,3.4612,3.4631,3.4634,3.4676,3.4718,3.4801,3.4908,3.502,3.516,3.5285,5.1454,5.1454,5.1285,5.0879,5.0304,4.9746,4.9407,4.9255,4.9238,4.8849,4.8122,4.753,4.7293,4.7293,4.7276,4.7293,4.7259,4.7107,4.7056,4.7039,4.687,4.6498,4.6007,4.5957,4.5568,4.4936,4.4852,4.4739,4.4615,4.4598,4.4598,4.4598,4.4598,4.4598,4.4598,4.4598,4.4598,4.4536,4.3771,4.3026,4.2419,4.2395,4.2175,4.1724,4.1793,4.1727,4.1429,4.1551,4.1793,4.2001,4.2246,4.2145,4.1727,4.1827,4.1668,4.1107,4.1053,4.0945,4.0764,4.0583,4.0492,4.0492,4.0492,4.0492,4.0419,3.9423,3.8699,3.8699,3.879,3.8771,3.879,3.8771,3.8717,3.8717,3.8717,3.8716,3.8517,3.848,3.839,3.8281,3.8209,3.8174,3.8192,3.8105,3.7999,3.7928,3.8003,3.7969,3.7969,3.802,3.7493,3.6711,3.6259,3.614,3.6186,3.6274,3.6461,3.6642,3.6317,3.6058,3.5918,3.5507,3.524,3.5307,3.5251,3.5195,3.5007,3.4953,3.491,3.481,3.4781,3.4908,3.503,3.5157,3.5323,5.2198,5.2097,5.1539,5.1151,5.1099,5.1014,5.0591,5.0033,4.9982,4.9576,4.8917,4.8832,4.8765,4.8798,4.8748,4.8731,4.868,4.8091,4.7787,4.7733,4.7107,4.6752,4.6701,4.6701,4.6312,4.5686,4.5568,4.5213,4.4699,4.4615,4.4598,4.4598,4.4598,4.4598,4.4598,4.4598,4.4598,4.4598,4.4519,4.4068,4.3341,4.3291,4.3071,4.2612,4.2595,4.249,4.2293,4.244,4.2354,4.2055,4.2237,4.2374,4.2482,4.2637,4.2679,4.2647,4.2647,4.2375,4.1632,4.0908,4.0582,4.0492,4.0564,4.0583,4.0582,4.0419,4.0293,4.0275,4.0293,4.0166,4.0311,4.022,4.013,4.0075,4.013,4.0039,3.9423,3.9297,3.9007,3.8263,3.8373,3.8227,3.8373,3.8337,3.8228,3.8157,3.8158,3.8141,3.8141,3.814,3.8139,3.7812,3.7441,3.6823,3.6431,3.6244,3.6657,3.6809,3.6814,3.6801,3.6798,3.6801,3.6828,3.6397,3.6659,3.6415,3.5991,3.5758,3.5525,3.5222,3.5061,3.4963,3.5086,3.5299,3.5454,5.301,5.2976,5.2689,5.2283,5.1826,5.1403,5.1048,5.0727,5.027,4.9915,4.961,4.9187,4.9018,4.9018,4.9018,4.9018,4.8984,4.8697,4.8562,4.8528,4.824,4.7868,4.7496,4.7445,4.7073,4.6346,4.5923,4.5551,4.5229,4.4835,4.4598,4.4598,4.4598,4.4598,4.4598,4.4598,4.4598,4.4598,4.4598,4.4462,4.4147,4.4113,4.3878,4.3482,4.3389,4.3237,4.2989,4.3071,4.315,4.3195,4.3016,4.3004,4.329,4.2996,4.2841,4.29,4.2919,4.2774,4.2429,4.2085,4.1922,4.1922,4.1904,4.1904,4.1922,4.1922,4.1904,4.1814,4.1053,4.0492,4.051,4.0492,4.0492,4.0492,4.0492,4.0365,4.0111,4.0057,3.9876,3.9604,3.955,3.9532,3.9496,3.917,3.8752,3.8372,3.8227,3.8228,3.8209,3.8209,3.8209,3.8172,3.7934,3.7758,3.7494,3.7702,3.7872,3.7997,3.7846,3.7692,3.7672,3.7289,3.7091,3.7148,3.7223,3.7129,3.6667,3.661,3.6453,3.6095,3.6212,3.6326,3.6521,3.6264,3.6128,5.3518,5.3518,5.3518,5.3162,5.2604,5.208,5.1675,5.1471,5.093,5.0591,5.0321,4.9627,4.9306,4.9272,4.9103,4.9018,4.9018,4.9018,4.9018,4.9018,4.9018,4.8731,4.8227,4.8176,4.7817,4.7124,4.6599,4.6227,4.594,4.5246,4.4874,4.4902,4.4716,4.4598,4.4598,4.4598,4.4598,4.4598,4.4598,4.4598,4.4581,4.4598,4.4483,4.4243,4.4219,4.4044,4.3642,4.3739,4.3919,4.4078,4.3735,4.374,4.4078,4.366,4.3362,4.3225,4.3208,4.3137,4.2937,4.2919,4.2919,4.2919,4.2919,4.2919,4.2919,4.2919,4.2919,4.2792,4.1832,4.1216,4.1162,4.118,4.1162,4.1162,4.1162,4.1089,4.089,4.0818,4.0745,4.0546,4.0347,4.0492,4.0419,4.0003,3.9441,3.8735,3.8554,3.8373,3.8263,3.8209,3.8209,3.8209,3.8209,3.8236,3.8446,3.8524,3.8877,3.9013,3.8667,3.8534,3.8565,3.8082,3.7824,3.8275,3.7899,3.7606,3.7474,3.7437,3.731,3.7212,3.7246,3.7366,3.7309,3.7039,3.6949,5.3518,5.3518,5.3518,5.3484,5.3433,5.3365,5.2942,5.2249,5.2164,5.1792,5.1116,5.0388,5.0033,4.9949,4.934,4.9018,4.9018,4.9018,4.9018,4.9018,4.9018,4.8984,4.8951,4.8951,4.8578,4.7855,4.7682,4.7327,4.6684,4.6007,4.5669,4.5618,4.4993,4.4632,4.4666,4.4632,4.4598,4.4598,4.4598,4.4598,4.4598,4.4598,4.4703,4.4848,4.4937,4.4738,4.4525,4.458,4.4513,4.4131,4.4238,4.4476,4.4884,4.4877,4.4584,4.413,4.4041,4.3733,4.3118,4.3064,4.3046,4.301,4.3099,4.2992,4.3118,4.3064,4.3028,4.2937,4.2774,4.2611,4.2611,4.2502,4.2593,4.2611,4.2701,4.2357,4.1705,4.165,4.1288,4.0818,4.0745,4.0745,4.06,4.051,4.0111,3.9568,3.9333,3.9151,3.8589,3.8354,3.8317,3.8299,3.8263,3.8241,3.8382,3.859,3.8803,3.8994,3.9125,3.9288,3.9452,3.9495,3.9401,3.9357,3.9157,3.8838,3.8432,3.8143,3.7941,3.7788,3.7676,3.7713,3.8085,3.7785,3.7681,5.3518,5.3518,5.3518,5.3518,5.3518,5.3518,5.3331,5.3027,5.2536,5.2164,5.1809,5.1133,5.0541,5.0067,4.9813,4.9441,4.9035,4.9018,4.9018,4.9018,4.9018,4.9018,4.9018,4.9001,4.89,4.8595,4.8108,4.753,4.6853,4.6515,4.6397,4.6278,4.5669,4.5297,4.5229,4.4835,4.4598,4.4598,4.4598,4.4598,4.4598,4.4598,4.4737,4.4995,4.5022,4.502,4.5053,4.5311,4.5406,4.5427,4.5182,4.5241,4.5677,4.5397,4.5102,4.491,4.4856,4.4729,4.4494,4.444,4.444,4.444,4.444,4.4367,4.4331,4.3969,4.3661,4.3588,4.3154,4.2937,4.2919,4.2919,4.2919,4.2919,4.2919,4.2792,4.2574,4.2466,4.2339,4.2103,4.2031,4.1868,4.1397,4.127,4.0963,4.0293,4.0111,3.9948,3.9677,3.9297,3.8952,3.8879,3.8535,3.8257,3.8366,3.8525,3.8743,3.9003,3.9224,3.9382,3.954,3.9589,3.9495,3.9477,3.9589,3.9533,3.8932,3.8913,3.8712,3.8724,3.8576,3.8508,3.8977,3.8632,3.8517,5.3518,5.3518,5.3518,5.3518,5.3518,5.3518,5.3518,5.3433,5.2926,5.2689,5.2553,5.1911,5.1285,5.0811,5.0541,5.005,4.9373,4.912,4.9018,4.9018,4.9018,4.9018,4.9018,4.9018,4.9018,4.8934,4.8528,4.7986,4.7513,4.7259,4.7158,4.7107,4.643,4.6058,4.5957,4.5534,4.5224,4.5055,4.4942,4.484,4.4649,4.4598,4.472,4.4968,4.5022,4.513,4.5397,4.5641,4.593,4.6116,4.5917,4.6023,4.6431,4.6254,4.5943,4.5725,4.5689,4.5562,4.5327,4.5291,4.5291,4.5291,4.5291,4.5291,4.5254,4.4784,4.453,4.4349,4.4041,4.368,4.368,4.3697,4.3444,4.3064,4.2919,4.2919,4.2919,4.2901,4.2901,4.2829,4.281,4.2574,4.223,4.2103,4.1705,4.0981,4.089,4.0818,4.0474,4.0111,3.9749,3.9677,3.9097,3.8802,3.8767,3.8836,3.8847,3.9054,3.9261,3.9425,3.9558,3.9596,3.9608,3.9608,3.9608,3.9608,3.9608,3.9608,3.962,3.962,3.9455,3.9236,3.9429,3.9473,3.9338,5.3518,5.3518,5.3518,5.3518,5.3518,5.3518,5.3518,5.3501,5.3467,5.3382,5.3247,5.2638,5.2232,5.2063,5.1471,5.0811,5.0084,4.9441,4.9069,4.9018,4.9018,4.9018,4.9018,4.9018,4.9018,4.9018,4.8984,4.8951,4.8781,4.8176,4.7889,4.7784,4.7175,4.6802,4.6802,4.6633,4.6346,4.5855,4.5703,4.5365,4.4733,4.4699,4.4805,4.4968,4.5022,4.5113,4.5414,4.5658,4.5922,4.6186,4.6435,4.6788,4.7168,4.7373,4.7283,4.6631,4.6504,4.6142,4.5544,4.549,4.558,4.558,4.5436,4.558,4.5617,4.5417,4.5309,4.5291,4.5164,4.5146,4.5091,4.5055,4.4566,4.3262,4.3118,4.3064,4.301,4.2937,4.2919,4.2919,4.2919,4.2919,4.2901,4.2755,4.2429,4.1904,4.1687,4.1506,4.0981,4.0691,4.0528,4.0401,3.9912,3.9456,3.9298,3.9166,3.9116,3.9124,3.9266,3.9425,3.9558,3.9608,3.9608,3.9608,3.9608,3.9608,3.9608,3.9608,3.9608,3.9633,3.9662,3.9703,3.9687,3.9697,3.9946,5.3518,5.3518,5.3518,5.3518,5.3518,5.3518,5.3518,5.3518,5.3518,5.3518,5.3467,5.3247,5.2841,5.235,5.2029,5.1555,5.0845,5.0101,4.9475,4.9086,4.9018,4.9018,4.9018,4.9018,4.9018,4.9018,4.9018,4.9018,4.8968,4.8765,4.868,4.8528,4.7919,4.7581,4.753,4.7056,4.6633,4.6498,4.6447,4.6092,4.5432,4.5365,4.5252,4.5019,4.5022,4.513,4.5397,4.5658,4.5922,4.6186,4.6453,4.6806,4.7236,4.7554,4.7569,4.7352,4.7337,4.7265,4.7029,4.692,4.6884,4.6939,4.6939,4.6957,4.6866,4.6413,4.6142,4.6069,4.5653,4.5291,4.5291,4.5291,4.511,4.4603,4.4079,4.3715,4.3662,4.3263,4.2955,4.2919,4.2919,4.2919,4.2919,4.2919,4.2792,4.2556,4.2484,4.2303,4.2122,4.1596,4.1361,4.127,4.0691,4.0219,4.0173,3.9973,3.9734,3.9563,3.9551,3.9462,3.9558,3.9608,3.9608,3.9608,3.9608,3.9608,3.9608,3.9608,3.9608,3.962,3.9657,3.9691,3.9743,3.9878,4.0027,5.3754,5.3518,5.3518,5.3518,5.3518,5.3518,5.3518,5.3518,5.3518,5.3518,5.3518,5.3501,5.323,5.2824,5.2739,5.2317,5.1623,5.1116,5.0355,4.9458,4.9086,4.9018,4.9018,4.9018,4.9018,4.9018,4.9018,4.9018,4.9018,4.9018,4.9001,4.89,4.8545,4.8294,4.8291,4.7868,4.7513,4.7276,4.7192,4.687,4.6278,4.6092,4.5897,4.5469,4.5405,4.5404,4.5432,4.5641,4.5905,4.6211,4.6596,4.6989,4.728,4.7554,4.7699,4.7699,4.7699,4.7681,4.7699,4.7609,4.7699,4.7699,4.7699,4.7681,4.7609,4.7156,4.6975,4.6866,4.654,4.6196,4.6214,4.6214,4.6196,4.6178,4.5182,4.4621,4.4421,4.3824,4.3408,4.3354,4.3137,4.2955,4.2919,4.2919,4.2919,4.2919,4.2919,4.2919,4.2829,4.2448,4.2248,4.194,4.1452,4.1161,4.1122,4.0816,4.0407,4.0133,3.9914,3.9692,3.9552,3.9608,3.9608,3.9608,3.9608,3.9608,3.9608,3.9608,3.962,3.9633,3.9645,3.9662,3.9715,3.9789,3.9943,5.4177,5.3585,5.3518,5.3518,5.3518,5.3518,5.3518,5.3518,5.3518,5.3518,5.3518,5.3518,5.3484,5.3484,5.3365,5.2993,5.2452,5.2147,5.1454,5.0338,4.9576,4.9137,4.9018,4.9018,4.9018,4.9018,4.9018,4.9018,4.9018,4.9018,4.9018,4.8984,4.8951,4.8968,4.8883,4.8968,4.8545,4.8037,4.797,4.7597,4.6904,4.6866,4.6627,4.6197,4.6202,4.6004,4.5717,4.5805,4.598,4.6284,4.6898,4.7254,4.7323,4.7554,4.7699,4.7699,4.7699,4.7699,4.7699,4.7699,4.7699,4.7699,4.7699,4.7699,4.7681,4.7609,4.7554,4.7572,4.7518,4.7536,4.7518,4.75,4.7518,4.7464,4.6214,4.5417,4.5236,4.4584,4.4222,4.4041,4.3535,4.3046,4.3136,4.3081,4.3046,4.2919,4.2919,4.2919,4.2901,4.2774,4.2883,4.2538,4.2049,4.1996,4.1923,4.1461,4.1111,4.1071,4.0713,4.0269,3.9808,3.9733,3.9608,3.9608,3.9608,3.9608,3.9608,3.9608,3.9608,3.962,3.9633,3.9645,3.9686,3.9773,3.9867,5.4482,5.4245,5.3721,5.3518,5.3518,5.3518,5.3518,5.3518,5.3518,5.3518,5.3518,5.3518,5.3518,5.3518,5.3501,5.3365,5.3061,5.2587,5.2198,5.1589,5.0371,4.9509,4.9103,4.9018,4.9018,4.9018,4.9018,4.9018,4.9018,4.9018,4.9018,4.9018,4.9018,4.9018,4.9018,4.9018,4.8917,4.8748,4.8714,4.8359,4.7763,4.77,4.7474,4.6999,4.7044,4.6863,4.6463,4.632,4.6326,4.6518,4.6989,4.7298,4.732,4.7554,4.7699,4.7699,4.7699,4.7699,4.7699,4.7699,4.7699,4.7699,4.7699,4.7699,4.7699,4.7699,4.7699,4.7699,4.7699,4.7699,4.7699,4.7699,4.7699,4.7591,4.6776,4.5979,4.5508,4.5128,4.4983,4.4947,4.4765,4.4331,4.3932,4.3751,4.3571,4.3137,4.2992,4.2937,4.2955,4.2919,4.2919,4.2919,4.2647,4.2722,4.2596,4.212,4.1887,4.2002,4.1657,4.1106,4.0531,4.004,3.9821,3.9608,3.9608,3.9608,3.9608,3.9608,3.9608,3.9608,3.962,3.9633,3.9662,3.9727,3.9834,5.5158,5.4549,5.4126,5.3771,5.3534,5.3518,5.3518,5.3518,5.3518,5.3518,5.3518,5.3518,5.3518,5.3518,5.3501,5.3518,5.3433,5.3027,5.2621,5.2046,5.0744,4.9712,4.9154,4.9018,4.9018,4.9018,4.9018,4.9018,4.9018,4.9018,4.9018,4.9018,4.9018,4.9018,4.9018,4.9018,4.9018,4.9001,4.9001,4.8795,4.8484,4.8523,4.8294,4.7894,4.7912,4.7754,4.7376,4.7364,4.7194,4.6856,4.7012,4.7298,4.732,4.7572,4.7699,4.7699,4.7699,4.7699,4.7699,4.7699,4.7699,4.7699,4.7699,4.7699,4.7699,4.7699,4.7699,4.7699,4.7699,4.7699,4.7699,4.7699,4.7699,4.7645,4.7283,4.683,4.6341,4.6033,4.5834,4.5743,4.549,4.5164,4.4639,4.4603,4.4168,4.3661,4.348,4.3244,4.3009,4.2973,4.2919,4.2919,4.2919,4.2865,4.2904,4.2577,4.2568,4.2691,4.2597,4.202,4.1434,4.0734,4.0278,4.0059,3.9796,3.9608,3.9608,3.9608,3.9608,3.9608,3.9608,3.962,3.965,3.9703,3.98,5.6021,5.482,5.4668,5.4228,5.3687,5.3551,5.3518,5.3518,5.3518,5.3518,5.3518,5.3518,5.3518,5.3518,5.3518,5.3518,5.3501,5.3416,5.2942,5.2164,5.1065,5.0101,4.9289,4.9069,4.9018,4.9018,4.9018,4.9018,4.9018,4.9018,4.9018,4.9018,4.9018,4.9018,4.9018,4.9018,4.9018,4.9018,4.9032,4.906,4.905,4.9137,4.8997,4.8757,4.8604,4.8536,4.838,4.8406,4.8137,4.698,4.7236,4.7401,4.7413,4.7554,4.7678,4.7699,4.7699,4.7699,4.7699,4.7699,4.7699,4.7699,4.7699,4.7699,4.7699,4.7699,4.7699,4.7699,4.7699,4.7699,4.7699,4.7699,4.7699,4.7699,4.7663,4.7681,4.7572,4.7065,4.6631,4.6595,4.5979,4.5635,4.5436,4.5363,4.511,4.4385,4.4168,4.3896,4.3552,4.3353,4.3154,4.2919,4.2919,4.2919,4.2976,4.2996,4.3192,4.3356,4.3299,4.2955,4.2486,4.1835,4.1154,4.0666,4.0303,3.9908,3.9608,3.9608,3.9646,3.9608,3.9608,3.9608,3.9633,3.9679,3.9766,5.663,5.6224,5.5074,5.4499,5.4279,5.3771,5.3518,5.3518,5.3518,5.3518,5.3518,5.3518,5.3518,5.3518,5.3518,5.3518,5.3518,5.3467,5.3061,5.2317,5.2063,5.1031,4.9982,4.9373,4.9035,4.9018,4.9018,4.9018,4.9018,4.9018,4.9018,4.9018,4.9018,4.9018,4.9018,4.9018,4.9001,4.9032,4.9124,4.9168,4.926,4.9471,4.9534,4.9423,4.9262,4.9276,4.9258,4.9025,4.8823,4.8681,4.8414,4.8111,4.7651,4.7644,4.7769,4.779,4.7735,4.7699,4.7699,4.7699,4.7699,4.7699,4.7699,4.7699,4.7699,4.7699,4.7699,4.7699,4.7699,4.7699,4.7699,4.7699,4.7699,4.7699,4.7699,4.7699,4.7681,4.7536,4.737,4.7337,4.721,4.6957,4.6359,4.6269,4.5888,4.5236,4.4874,4.4639,4.4258,4.3878,4.3552,4.33,4.3173,4.3173,4.2975,4.3105,4.3426,4.3699,4.3739,4.3787,4.332,4.2811,4.2111,4.1379,4.0703,4.0328,4.0002,3.9739,3.9796,3.9702,3.9608,3.9608,3.9614,3.9679,3.9754,5.712,5.6731,5.5953,5.5226,5.4583,5.4177,5.3822,5.3551,5.3518,5.3518,5.3518,5.3518,5.3518,5.3518,5.3518,5.3518,5.3518,5.3501,5.3298,5.2824,5.2503,5.186,5.1082,5.0033,4.939,4.9103,4.9018,4.9018,4.9018,4.9018,4.9018,4.9018,4.9018,4.9018,4.9018,4.9001,4.9032,4.9094,4.9168,4.926,4.9424,4.959,4.9796,4.9936,4.9941,5.0089,5.0153,5.0212,5.0041,4.9852,4.9679,4.9307,4.86,4.8352,4.8275,4.8261,4.7862,4.7735,4.7699,4.7699,4.7699,4.7699,4.7699,4.7699,4.7699,4.7699,4.7699,4.7699,4.7699,4.7699,4.7699,4.7699,4.7699,4.7699,4.7699,4.7699,4.7699,4.7699,4.7699,4.7699,4.7627,4.7446,4.7192,4.6993,4.6649,4.6015,4.5852,4.558,4.5001,4.4603,4.4186,4.3897,4.3662,4.3427,4.3102,4.3178,4.3548,4.3814,4.4023,4.4123,4.4041,4.3543,4.3013,4.2299,4.1567,4.0929,4.0572,4.0303,3.9965,3.9721,3.9639,3.9639,3.9626,3.9661,3.9766,5.7526,5.6968,5.685,5.6055,5.4989,5.4668,5.4245,5.3754,5.3551,5.3518,5.3518,5.3518,5.3518,5.3518,5.3518,5.3518,5.3518,5.3518,5.3399,5.3315,5.2858,5.2418,5.1877,5.1031,5.005,4.9255,4.9052,4.9018,4.9018,4.9018,4.9018,4.9018,4.9018,4.9032,4.9032,4.9063,4.9124,4.9229,4.932,4.9411,4.9619,4.9755,4.993,5.025,5.0495,5.0724,5.0885,5.1102,5.1215,5.0794,5.0982,5.0793,5.0277,4.9499,4.9094,4.9075,4.8568,4.8261,4.8079,4.7971,4.7913,4.7772,4.7699,4.7699,4.7699,4.7699,4.7699,4.7699,4.7699,4.7699,4.7699,4.7699,4.7699,4.7699,4.7699,4.7699,4.7699,4.7699,4.7699,4.7699,4.7699,4.7591,4.7591,4.7482,4.7156,4.6866,4.6721,4.645,4.5834,4.5381,4.5001,4.4603,4.4387,4.4029,4.3686,4.3269,4.3618,4.395,4.4214,4.4325,4.4454,4.4144,4.3613,4.3163,4.2487,4.1849,4.1342,4.1079,4.0647,4.004,3.9839,4.0002,3.9907,3.971,3.9777,5.7814,5.7662,5.7053,5.6647,5.6258,5.5141,5.4583,5.4313,5.3788,5.3518,5.3518,5.3518,5.3518,5.3518,5.3518,5.3518,5.3518,5.3518,5.3518,5.3518,5.323,5.2959,5.2367,5.1911,5.1099,5.0033,4.939,4.9086,4.9018,4.9018,4.9018,4.9018,4.9018,4.9032,4.9107,4.9168,4.926,4.9411,4.953,4.9602,4.9725,4.9918,5.0132,5.0492,5.0739,5.1026,5.1333,5.1538,5.1712,5.1832,5.1994,5.2028,5.1669,5.0651,5.0053,4.9836,4.9619,4.9202,4.8804,4.8692,4.833,4.7916,4.779,4.7735,4.7717,4.7699,4.7699,4.7699,4.7699,4.7699,4.7699,4.7699,4.7699,4.7699,4.7699,4.7699,4.7699,4.7699,4.7699,4.7699,4.7699,4.7699,4.7699,4.7699,4.75,4.7301,4.7246,4.6993,4.6504,4.6178,4.5924,4.5526,4.5128,4.4738,4.4343,4.3815,4.3709,4.4059,4.4289,4.4358,4.4458,4.4482,4.4158,4.371,4.3284,4.275,4.2318,4.1924,4.1437,4.0892,4.066,4.049,4.0256,4.0071,3.9906,5.7881,5.7865,5.7509,5.7154,5.6714,5.6055,5.5277,5.4583,5.4211,5.3839,5.3585,5.3518,5.3518,5.3518,5.3518,5.3518,5.3518,5.3518,5.3518,5.3518,5.3467,5.3348,5.2824,5.2536,5.1961,5.1082,5.0185,4.9357,4.9035,4.9018,4.9018,4.9018,4.9018,4.9063,4.9168,4.9199,4.935,4.9577,4.9679,4.9784,4.9889,5.0092,5.0369,5.0657,5.0972,5.1255,5.1556,5.1733,5.1932,5.215,5.2264,5.2382,5.2216,5.1846,5.1122,5.0741,5.0361,4.9981,4.9601,4.9492,4.9166,4.8478,4.8312,4.8076,4.7823,4.7699,4.7699,4.7699,4.7699,4.7699,4.7699,4.7699,4.7699,4.7699,4.7699,4.7699,4.7699,4.7699,4.7699,4.7699,4.7699,4.7699,4.7699,4.7699,4.7699,4.7699,4.7699,4.7446,4.7065,4.6902,4.6685,4.6214,4.5764,4.5393,4.4982,4.4565,4.4278,4.4501,4.449,4.456,4.4538,4.4612,4.4535,4.4256,4.3858,4.3504,4.316,4.2735,4.2234,4.1789,4.1625,4.1336,4.0769,4.0431,4.0378,5.7881,5.7881,5.7881,5.7543,5.7036,5.685,5.6156,5.5124,5.4702,5.4262,5.3754,5.3585,5.3518,5.3518,5.3518,5.3518,5.3518,5.3518,5.3518,5.3518,5.3518,5.3484,5.3298,5.2942,5.2418,5.1944,5.1234,5.0067,4.939,4.9086,4.9018,4.9032,4.9032,4.9124,4.926,4.935,4.9518,4.9666,4.9813,4.9901,5.0092,5.0331,5.0592,5.0865,5.1202,5.1487,5.1733,5.1907,5.2054,5.224,5.2353,5.2405,5.2475,5.2498,5.219,5.1556,5.0904,5.0619,5.0365,5.0347,4.9999,4.9238,4.9166,4.8731,4.8131,4.7898,4.7699,4.7699,4.7699,4.7699,4.7699,4.7699,4.7699,4.7699,4.7699,4.7699,4.7699,4.7699,4.7699,4.7699,4.7699,4.7699,4.7699,4.7699,4.7699,4.7699,4.7699,4.7699,4.7409,4.7482,4.7228,4.6757,4.6327,4.5974,4.564,4.537,4.5234,4.5407,4.5158,4.4974,4.4894,4.4821,4.4691,4.4591,4.4463,4.4122,4.3828,4.3572,4.3183,4.285,4.2611,4.2195,4.1607,4.134,4.1283,5.7881,5.7881,5.7881,5.7831,5.7645,5.7087,5.6748,5.6342,5.5192,5.4566,5.4329,5.3822,5.3568,5.3518,5.3518,5.3518,5.3518,5.3518,5.3518,5.3518,5.3518,5.3518,5.3518,5.345,5.2909,5.2486,5.2097,5.1234,5.0219,4.9458,4.9035,4.9035,4.9124,4.926,4.9428,4.953,4.9755,4.9964,5.0092,5.0217,5.0387,5.062,5.0838,5.1123,5.1428,5.169,5.1864,5.2078,5.2264,5.2311,5.2428,5.2475,5.2498,5.2498,5.2462,5.2353,5.219,5.1919,5.1303,5.114,5.0814,5.0162,4.9963,4.9528,4.8894,4.8149,4.7844,4.7699,4.7717,4.7699,4.7699,4.7699,4.7699,4.7699,4.7699,4.7699,4.7699,4.7699,4.7699,4.7699,4.7699,4.7699,4.7699,4.7699,4.7699,4.7699,4.7699,4.7699,4.7699,4.7699,4.7699,4.7228,4.7,4.6666,4.6461,4.6176,4.6135,4.6277,4.5935,4.5542,4.5533,4.5421,4.4938,4.4825,4.4766,4.4691,4.441,4.4177,4.4077,4.3838,4.3498,4.2986,4.2397,4.2261,4.2219,5.7881,5.7881,5.7881,5.7881,5.7848,5.7526,5.7171,5.6714,5.6139,5.5361,5.4651,5.4296,5.3907,5.3585,5.3518,5.3518,5.3518,5.3518,5.3518,5.3518,5.3518,5.3518,5.3518,5.3501,5.3213,5.2959,5.252,5.2046,5.1099,5.0185,4.9475,4.9083,4.9138,4.929,4.9518,4.9649,4.9872,5.0074,5.0313,5.0492,5.063,5.0865,5.1105,5.141,5.1632,5.184,5.2078,5.2216,5.2358,5.2405,5.2475,5.2498,5.2498,5.2498,5.248,5.248,5.248,5.2281,5.2027,5.1955,5.1502,5.1013,5.0728,5.042,4.9655,4.8894,4.8366,4.8387,4.7953,4.7753,4.7717,4.7699,4.7699,4.7699,4.7699,4.7699,4.7699,4.7699,4.7699,4.7699,4.7699,4.7699,4.7699,4.7699,4.7699,4.7699,4.7699,4.7699,4.7699,4.7699,4.7699,4.7645,4.7511,4.7432,4.7265,4.7074,4.7001,4.7018,4.6763,4.6467,4.6398,4.6172,4.5702,4.5268,4.5136,4.5023,4.4909,4.4688,4.4449,4.4373,4.4316,4.3772,4.3265,4.3217,4.3092,5.7881,5.7881,5.7881,5.7881,5.7881,5.7881,5.7594,5.7103,5.6833,5.6055,5.5023,5.4465,5.394,5.3602,5.3518,5.3518,5.3518,5.3518,5.3518,5.3518,5.3518,5.3518,5.3518,5.3501,5.3501,5.3501,5.2976,5.2469,5.1961,5.1266,5.0382,4.9368,4.9331,4.9398,4.956,4.9767,5.0046,5.0369,5.0547,5.0739,5.0946,5.1167,5.1428,5.1658,5.1833,5.2005,5.224,5.2376,5.2428,5.2475,5.2498,5.2498,5.2498,5.2498,5.2498,5.2498,5.2498,5.248,5.2389,5.2335,5.2154,5.1774,5.1321,5.0963,5.0474,4.9691,4.9021,4.8837,4.842,4.8025,4.7753,4.7699,4.7699,4.7699,4.7699,4.7699,4.7699,4.7699,4.7699,4.7699,4.7699,4.7699,4.7699,4.7699,4.7699,4.7699,4.7699,4.7699,4.7699,4.7699,4.7717,4.7717,4.779,4.7804,4.7817,4.7755,4.7756,4.7757,4.7507,4.736,4.7273,4.6995,4.6549,4.6133,4.5596,4.5527,4.5489,4.5155,4.4833,4.4707,4.4567,4.4466,4.4206,4.4132,4.403,5.7881,5.7881,5.7881,5.7881,5.7881,5.7881,5.7848,5.7662,5.7087,5.6393,5.5429,5.4329,5.3721,5.3518,5.3518,5.3518,5.3518,5.3518,5.3518,5.3518,5.3518,5.3518,5.3518,5.3518,5.3518,5.3518,5.3264,5.2892,5.2502,5.2294,5.1359,5.0436,4.996,4.9718,4.9737,4.9999,5.0296,5.063,5.082,5.1008,5.1237,5.1487,5.1683,5.1765,5.2054,5.2287,5.2311,5.2405,5.2475,5.2498,5.2498,5.2498,5.2498,5.2498,5.248,5.2317,5.2299,5.2226,5.2136,5.2353,5.2462,5.2208,5.1846,5.1434,5.1194,5.0492,4.9764,4.9202,4.8894,4.8384,4.8004,4.7699,4.7699,4.7699,4.7699,4.7699,4.7699,4.7699,4.7699,4.7699,4.7699,4.7699,4.7699,4.7699,4.7699,4.7699,4.7699,4.7699,4.7699,4.7699,4.7717,4.7759,4.7888,4.7994,4.8151,4.8199,4.8307,4.8418,4.8322,4.8202,4.8131,4.7751,4.7055,4.6563,4.6013,4.6051,4.5912,4.5331,4.4921,4.4902,4.4819,4.4711,4.474,4.4684,4.4741,5.8304,5.7881,5.7881,5.7881,5.7881,5.7881,5.7881,5.7848,5.7594,5.6782,5.5666,5.4651,5.3923,5.3636,5.3518,5.3518,5.3518,5.3518,5.3518,5.3518,5.3518,5.3518,5.3518,5.3518,5.3518,5.3501,5.3484,5.3483,5.3227,5.2901,5.2603,5.1825,5.0908,5.0146,5.0015,5.0217,5.0547,5.083,5.114,5.1418,5.1538,5.179,5.2005,5.2102,5.215,5.2358,5.2428,5.2475,5.2498,5.2498,5.2498,5.2498,5.2498,5.2498,5.2299,5.1973,5.1937,5.1719,5.1538,5.1937,5.248,5.2462,5.2208,5.1937,5.1701,5.1212,5.0814,5.0253,4.9365,4.8656,4.8511,4.8025,4.7699,4.7699,4.7699,4.7699,4.7699,4.7699,4.7699,4.7699,4.7699,4.7699,4.7699,4.7699,4.7699,4.7699,4.7699,4.7699,4.7699,4.7717,4.7738,4.7801,4.7947,4.811,4.8247,4.8532,4.8821,4.893,4.9021,4.8905,4.8664,4.7835,4.7188,4.6752,4.6234,4.5848,4.5519,4.5209,4.5007,4.4938,4.4943,4.496,4.5026,4.5091,4.5148,5.8575,5.7915,5.7881,5.7881,5.7881,5.7881,5.7881,5.7881,5.7865,5.7222,5.597,5.5057,5.4329,5.389,5.3568,5.3518,5.3518,5.3518,5.3518,5.3518,5.3518,5.3518,5.3518,5.3518,5.3518,5.3501,5.3551,5.3583,5.3582,5.3254,5.3024,5.2701,5.22,5.13,5.0483,5.0439,5.0793,5.114,5.1401,5.1765,5.1815,5.2029,5.2174,5.2287,5.2317,5.2387,5.2475,5.2498,5.2498,5.2498,5.2498,5.2498,5.2498,5.2426,5.2172,5.1846,5.1574,5.1321,5.1249,5.1158,5.181,5.1556,5.1593,5.1574,5.1629,5.1249,5.0597,5.0216,4.9401,4.8818,4.8674,4.7989,4.7717,4.7699,4.7699,4.7699,4.7699,4.7699,4.7699,4.7699,4.7699,4.7699,4.7699,4.7699,4.7699,4.7699,4.7699,4.7699,4.7699,4.7738,4.7759,4.7842,4.7947,4.813,4.8324,4.8606,4.8874,4.9144,4.9234,4.9317,4.8985,4.8153,4.7732,4.7637,4.6935,4.5752,4.5328,4.5345,4.5169,4.4962,4.4998,4.5057,4.508,4.5125,4.5159,5.8609,5.7915,5.7898,5.7881,5.7881,5.7881,5.7881,5.7881,5.7865,5.7425,5.6562,5.5344,5.4651,5.438,5.389,5.3636,5.3518,5.3518,5.3518,5.3518,5.3518,5.3518,5.3518,5.3518,5.3518,5.3517,5.3601,5.3684,5.375,5.3809,5.3644,5.3487,5.3168,5.254,5.1356,5.0924,5.1123,5.1589,5.1665,5.1864,5.2036,5.2216,5.2311,5.2358,5.2387,5.2475,5.2498,5.2498,5.2498,5.2498,5.2498,5.2498,5.2498,5.2498,5.2371,5.2226,5.2245,5.2245,5.2226,5.0959,5.056,5.0655,5.0891,5.0619,5.0365,5.0166,5.009,4.9854,4.909,4.8565,4.8152,4.7772,4.7735,4.7699,4.7699,4.7699,4.7699,4.7699,4.7699,4.7699,4.7699,4.7699,4.7699,4.7699,4.7699,4.7699,4.7699,4.7699,4.772,4.7783,4.7842,4.7966,4.8068,4.8247,4.8457,4.866,4.8926,4.9228,4.9404,4.9457,4.9351,4.8776,4.8498,4.8434,4.7388,4.5976,4.5734,4.5654,4.5346,4.5068,4.508,4.5114,4.5125,4.5148,4.5192,5.9319,5.8592,5.8101,5.7881,5.7881,5.7881,5.7881,5.7881,5.7831,5.7492,5.685,5.619,5.5412,5.4769,5.4313,5.394,5.3551,5.3518,5.3518,5.3518,5.3518,5.3518,5.3518,5.3518,5.3518,5.3534,5.3634,5.3799,5.3915,5.4126,5.433,5.4223,5.3918,5.3178,5.205,5.143,5.1376,5.1665,5.1864,5.2054,5.2222,5.2358,5.2428,5.2428,5.2475,5.2498,5.2498,5.2498,5.2498,5.2498,5.2498,5.2498,5.2498,5.2498,5.2263,5.1937,5.1719,5.1411,5.1067,5.0307,5.0434,5.0528,5.0383,5.0148,5.0112,5.0112,4.9908,4.9619,4.9108,4.8746,4.8565,4.7971,4.779,4.7717,4.7699,4.7699,4.7699,4.7699,4.7699,4.7699,4.7699,4.7699,4.7699,4.7738,4.7759,4.7801,4.7822,4.7822,4.7842,4.7907,4.797,4.8088,4.8208,4.8401,4.8606,4.8821,4.9079,4.9371,4.9498,4.9503,4.9326,4.9119,4.8446,4.7931,4.7075,4.6244,4.5906,4.5616,4.539,4.5211,4.52,4.52,4.5203,4.5224,4.5246,5.9674,5.8947,5.8203,5.7881,5.7881,5.7881,5.7881,5.7881,5.7865,5.7594,5.7188,5.6917,5.6156,5.5192,5.4651,5.4194,5.3551,5.3518,5.3518,5.3518,5.3518,5.3518,5.3518,5.3518,5.3518,5.3568,5.3734,5.3898,5.4061,5.4303,5.4586,5.4796,5.4601,5.4035,5.3109,5.2591,5.1866,5.2019,5.2054,5.2222,5.234,5.2452,5.2498,5.2498,5.2498,5.2498,5.2498,5.2498,5.2498,5.2498,5.2498,5.2498,5.2498,5.2408,5.2226,5.1846,5.1665,5.1466,5.1212,5.0709,5.0904,5.1122,5.0546,5.0166,5.0112,5.0112,5.0112,4.9836,4.9329,4.9054,4.88,4.8167,4.7916,4.7844,4.7844,4.7844,4.7844,4.7862,4.7826,4.7808,4.7738,4.7738,4.772,4.7759,4.7801,4.7881,4.7963,4.7963,4.7945,4.8028,4.811,4.8208,4.8324,4.8495,4.8732,4.8978,4.9244,4.9544,4.9613,4.9635,4.9499,4.9296,4.8343,4.7579,4.7278,4.682,4.5962,4.5546,4.5377,4.5303,4.5254,4.5275,4.5297,4.5277,4.5277,5.9691,5.8981,5.8203,5.7935,5.7881,5.7881,5.7881,5.7881,5.7881,5.7865,5.7797,5.7137,5.6494,5.5733,5.5006,5.4313,5.3687,5.3585,5.3518,5.3518,5.3518,5.3518,5.3518,5.3518,5.3501,5.3618,5.38,5.4028,5.4237,5.4603,5.4992,5.5278,5.5014,5.4732,5.434,5.3804,5.2903,5.2599,5.2246,5.2371,5.2452,5.2475,5.2498,5.2498,5.2498,5.2498,5.2498,5.2498,5.2498,5.2498,5.2498,5.2498,5.2498,5.2498,5.2498,5.2462,5.2408,5.2299,5.2136,5.1538,5.1411,5.1484,5.0873,5.0401,5.0112,5.0112,5.0112,4.9945,4.9546,4.9275,4.8945,4.855,4.8134,4.8116,4.8098,4.8098,4.8079,4.8061,4.8025,4.7956,4.7814,4.778,4.7783,4.7804,4.7904,4.7986,4.8046,4.8107,4.8088,4.8128,4.8208,4.8305,4.842,4.8569,4.8785,4.9077,4.9355,4.9634,4.9816,4.984,4.9689,4.9548,4.8974,4.8449,4.8082,4.7414,4.638,4.578,4.5477,4.5411,4.5324,4.5286,4.5277,4.5277,4.5277,6.035,5.9933,5.8659,5.8044,5.7935,5.7881,5.7881,5.7881,5.7881,5.7881,5.7865,5.7662,5.7087,5.6444,5.5733,5.4989,5.4313,5.3805,5.3568,5.3518,5.3518,5.3518,5.3518,5.3501,5.3551,5.3701,5.3882,5.4175,5.4445,5.4852,5.5247,5.5531,5.5607,5.5541,5.5348,5.5089,5.4147,5.3303,5.278,5.2562,5.2529,5.2534,5.2516,5.2498,5.2498,5.2498,5.2498,5.2498,5.2498,5.2498,5.2498,5.2498,5.2498,5.2498,5.2498,5.2498,5.248,5.2462,5.2462,5.2281,5.21,5.2045,5.1792,5.1072,5.0565,5.0275,5.0311,5.0234,5.0053,4.9836,4.9691,4.9329,4.9061,4.8988,4.901,4.901,4.901,4.8995,4.8944,4.8623,4.8463,4.8084,4.8068,4.7909,4.8008,4.8088,4.8148,4.8169,4.8228,4.8247,4.8305,4.842,4.855,4.8678,4.8907,4.9158,4.943,4.9707,4.9885,5.0025,4.9993,4.9837,4.9618,4.9182,4.8582,4.7685,4.6623,4.6233,4.6099,4.5488,4.5335,4.5316,4.5277,4.5277,4.5277,6.0944,6.0424,5.9266,5.846,5.8061,5.7935,5.7918,5.8007,5.7918,5.7881,5.7881,5.7865,5.7492,5.6799,5.6275,5.5581,5.4549,5.4194,5.3873,5.3518,5.3518,5.3518,5.3518,5.3534,5.3584,5.3717,5.3963,5.4254,5.4634,5.5109,5.5572,5.5897,5.6197,5.6142,5.5954,5.5739,5.5306,5.4399,5.3652,5.3079,5.2855,5.2679,5.2516,5.2498,5.2498,5.2498,5.2498,5.2498,5.2498,5.2498,5.2498,5.2498,5.2498,5.2498,5.2498,5.2498,5.2498,5.2498,5.248,5.248,5.248,5.2498,5.248,5.1991,5.1574,5.1285,5.1249,5.1194,5.0832,5.0565,5.0438,5.0311,5.0206,5.0101,5.0123,5.0145,5.0148,5.0152,4.9886,4.9567,4.9151,4.8701,4.8411,4.8233,4.809,4.8168,4.8189,4.8247,4.8305,4.8363,4.8438,4.8532,4.8678,4.884,4.9044,4.9239,4.9491,4.9731,4.9939,5.0063,5.0175,5.0159,4.9935,4.9488,4.8945,4.8162,4.7513,4.7131,4.6863,4.6233,4.5698,4.564,4.5545,4.5277,4.5277,6.1465,6.0642,5.984,5.8929,5.8275,5.8044,5.808,5.8188,5.808,5.7971,5.7954,5.7971,5.7652,5.7213,5.6874,5.6195,5.5348,5.4822,5.4279,5.3602,5.3601,5.3635,5.3601,5.3568,5.3701,5.3832,5.4076,5.4477,5.4865,5.5378,5.5879,5.6225,5.6373,5.6447,5.6569,5.6309,5.602,5.5763,5.4719,5.3905,5.3452,5.3041,5.2552,5.2498,5.2498,5.2498,5.2498,5.2498,5.2498,5.2498,5.2498,5.2498,5.2498,5.2498,5.2498,5.2498,5.2498,5.2503,5.2526,5.2526,5.2549,5.2526,5.2503,5.2422,5.2191,5.2014,5.1937,5.1887,5.1579,5.1443,5.1357,5.1215,5.1133,5.11,5.1122,5.1144,5.1148,5.1027,5.0687,5.0349,4.9953,4.9517,4.9299,4.9157,4.8701,4.8521,4.8247,4.8287,4.8382,4.8457,4.8513,4.8605,4.875,4.8927,4.9113,4.9305,4.9521,4.9741,4.9959,5.012,5.0212,5.0267,5.029,4.9882,4.9461,4.9194,4.8716,4.822,4.7627,4.6959,4.6481,4.6175,4.5908,4.5621,4.5354,6.1796,6.081,5.9364,5.8627,5.8419,5.8384,5.8384,5.8419,5.8367,5.8331,5.8367,5.8331,5.8263,5.7955,5.7461,5.6882,5.6524,5.5434,5.494,5.4429,5.4123,5.3817,5.3883,5.3833,5.3948,5.411,5.435,5.4776,5.5294,5.5793,5.6151,5.6373,5.6573,5.6794,5.6951,5.6682,5.6729,5.6663,5.5939,5.4744,5.3947,5.3585,5.3222,5.277,5.2534,5.2498,5.2498,5.2498,5.2498,5.2498,5.2498,5.2498,5.2498,5.2498,5.2498,5.2498,5.2503,5.2531,5.2577,5.2599,5.2622,5.269,5.2712,5.2735,5.2672,5.2572,5.2467,5.2435,5.2368,5.2268,5.2186,5.209,5.2025,5.2047,5.2069,5.2073,5.2094,5.1813,5.1493,5.1148,5.079,5.0499,5.0261,4.9878,4.9441,4.8984,4.8507,4.8362,4.8494,4.8587,4.8569,4.8642,4.8804,4.896,4.9162,4.9371,4.9585,4.9769,4.9986,5.0145,5.0255,5.0278,5.0302,5.0283,5.0034,4.971,4.9385,4.9052,4.8411,4.7761,4.7398,4.7131,4.6653,4.6309,4.5831,6.2251,6.0973,5.9335,5.8631,5.8596,5.8525,5.8561,5.8631,5.8631,5.8666,5.8684,5.8596,5.849,5.849,5.8029,5.7637,5.7295,5.615,5.5416,5.4954,5.4509,5.4083,5.4013,5.4061,5.4207,5.4367,5.4807,5.5282,5.5771,5.6095,5.6373,5.6609,5.6847,5.6977,5.7105,5.7163,5.7213,5.7134,5.6663,5.5848,5.4617,5.4128,5.3621,5.3078,5.2752,5.2625,5.2498,5.2498,5.2498,5.2498,5.2498,5.2498,5.2503,5.2549,5.2554,5.2577,5.2599,5.2645,5.2672,5.2698,5.2739,5.2806,5.2806,5.2783,5.2761,5.2667,5.2667,5.2654,5.2635,5.2571,5.2571,5.2466,5.2514,5.2558,5.2619,5.2623,5.2666,5.2584,5.2422,5.2315,5.1859,5.1348,5.1055,5.0597,5.0215,4.9938,4.9389,4.8914,4.8955,4.8772,4.8735,4.8714,4.8874,4.9029,4.9209,4.9434,4.963,4.9843,5.0012,5.0126,5.0255,5.0278,5.0302,5.0283,5.0245,5.0111,4.9805,4.9538,4.9205,4.8563,4.8296,4.8105,4.757,4.7035,4.6615,6.2686,6.115,5.9631,5.8891,5.8823,5.8631,5.8666,5.8806,5.8823,5.8909,5.8909,5.8684,5.8596,5.8561,5.8526,5.8082,5.7569,5.6918,5.6148,5.5412,5.4693,5.4383,5.4259,5.4271,5.4463,5.4776,5.5221,5.5695,5.6169,5.6401,5.6653,5.6951,5.7061,5.713,5.7213,5.7257,5.7282,5.7282,5.7003,5.6779,5.5818,5.478,5.4237,5.3693,5.3132,5.2697,5.2643,5.2557,5.2557,5.2526,5.2549,5.2572,5.2595,5.2622,5.2627,5.2672,5.2694,5.2761,5.2806,5.2828,5.2868,5.2868,5.2868,5.285,5.285,5.2868,5.2846,5.2846,5.2846,5.2846,5.2846,5.2868,5.2955,5.2999,5.302,5.3042,5.3106,5.3148,5.313,5.3112,5.269,5.2142,5.1811,5.1371,5.1022,5.0784,5.0418,5.0,4.9617,4.9251,4.9048,4.897,4.8979,4.9129,4.9257,4.9464,4.9678,4.9871,5.0057,5.0151,5.0236,5.0278,5.0302,5.0302,5.0245,5.0206,5.0206,5.0054,4.9671,4.927,4.9232,4.8984,4.8372,4.7857,4.7494,6.2703,6.122,6.0288,5.9547,5.9013,5.8927,5.8944,5.8944,5.8961,5.8995,5.8978,5.8944,5.8909,5.8892,5.8909,5.8669,5.8376,5.7723,5.712,5.6448,5.547,5.4918,5.4652,5.4707,5.4934,5.5252,5.5549,5.5908,5.6346,5.66,5.6873,5.7138,5.7289,5.7381,5.7504,5.7504,5.7455,5.7406,5.7356,5.7157,5.6894,5.6,5.5287,5.4635,5.3911,5.3603,5.3355,5.2867,5.2654,5.2608,5.2672,5.2712,5.2735,5.2757,5.2761,5.2783,5.2828,5.2872,5.2934,5.2955,5.2977,5.306,5.306,5.306,5.306,5.306,5.306,5.306,5.302,5.2977,5.2977,5.306,5.3124,5.3124,5.3124,5.3124,5.3167,5.3167,5.3167,5.3167,5.3038,5.2803,5.2729,5.2289,5.183,5.1518,5.1077,5.0662,5.0228,4.9824,4.9455,4.932,4.9233,4.9162,4.9308,4.9495,4.9707,4.9898,5.0082,5.0194,5.0267,5.029,5.0302,5.0302,5.0302,5.0264,5.0302,5.0302,5.0187,4.9882,5.0034,4.9843,4.9213,4.8716,4.8372]}]]